<?xml version="1.0" encoding="UTF-8" standalone="no" ?>
<gpx xmlns="http://www.topografix.com/GPX/1/1" xmlns:xsi="http://www.w3.org/2001/XMLSchema-instance" xsi:schemaLocation="http://www.topografix.com/GPX/1/1 http://www.topografix.com/GPX/1/1/gpx.xsd" version="1.1" creator="VisuGPX - https://www.visugpx.com">
  <metadata>
    <name>2017-01-26 - Breisach-Colmar</name>
    <desc><![CDATA[2017-01-26 - Breisach-Colmar - Denis Vouin]]></desc>
  </metadata>
  <trk>
    <name><![CDATA[JAN-26-17 15:42:25]]></name>
    <trkseg>
      <trkpt lat="48.02721" lon="7.58912">
        <ele>181.35</ele>
        <time>2017-01-26T06:59:00Z</time>
      </trkpt>
      <trkpt lat="48.02713" lon="7.58902">
        <ele>180.38</ele>
        <time>2017-01-26T06:59:24Z</time>
      </trkpt>
      <trkpt lat="48.02705" lon="7.5889">
        <ele>179.9</ele>
        <time>2017-01-26T06:59:34Z</time>
      </trkpt>
      <trkpt lat="48.02698" lon="7.58877">
        <ele>180.87</ele>
        <time>2017-01-26T06:59:42Z</time>
      </trkpt>
      <trkpt lat="48.02692" lon="7.5886">
        <ele>180.87</ele>
        <time>2017-01-26T06:59:53Z</time>
      </trkpt>
      <trkpt lat="48.0269" lon="7.58841">
        <ele>180.87</ele>
        <time>2017-01-26T07:00:03Z</time>
      </trkpt>
      <trkpt lat="48.02689" lon="7.5882">
        <ele>181.35</ele>
        <time>2017-01-26T07:00:13Z</time>
      </trkpt>
      <trkpt lat="48.02687" lon="7.58797">
        <ele>181.35</ele>
        <time>2017-01-26T07:00:23Z</time>
      </trkpt>
      <trkpt lat="48.02688" lon="7.58775">
        <ele>181.35</ele>
        <time>2017-01-26T07:00:32Z</time>
      </trkpt>
      <trkpt lat="48.02687" lon="7.58753">
        <ele>181.83</ele>
        <time>2017-01-26T07:00:42Z</time>
      </trkpt>
      <trkpt lat="48.02693" lon="7.58737">
        <ele>181.83</ele>
        <time>2017-01-26T07:00:53Z</time>
      </trkpt>
      <trkpt lat="48.02701" lon="7.58722">
        <ele>181.83</ele>
        <time>2017-01-26T07:01:02Z</time>
      </trkpt>
      <trkpt lat="48.02707" lon="7.58708">
        <ele>181.83</ele>
        <time>2017-01-26T07:01:11Z</time>
      </trkpt>
      <trkpt lat="48.02713" lon="7.58688">
        <ele>182.31</ele>
        <time>2017-01-26T07:01:20Z</time>
      </trkpt>
      <trkpt lat="48.02718" lon="7.58664">
        <ele>182.31</ele>
        <time>2017-01-26T07:01:30Z</time>
      </trkpt>
      <trkpt lat="48.02723" lon="7.58638">
        <ele>182.31</ele>
        <time>2017-01-26T07:01:39Z</time>
      </trkpt>
      <trkpt lat="48.02728" lon="7.58612">
        <ele>181.35</ele>
        <time>2017-01-26T07:01:49Z</time>
      </trkpt>
      <trkpt lat="48.02733" lon="7.58591">
        <ele>181.83</ele>
        <time>2017-01-26T07:01:59Z</time>
      </trkpt>
      <trkpt lat="48.02742" lon="7.58577">
        <ele>182.31</ele>
        <time>2017-01-26T07:02:08Z</time>
      </trkpt>
      <trkpt lat="48.0275" lon="7.58564">
        <ele>181.83</ele>
        <time>2017-01-26T07:02:16Z</time>
      </trkpt>
      <trkpt lat="48.02757" lon="7.58551">
        <ele>181.35</ele>
        <time>2017-01-26T07:02:24Z</time>
      </trkpt>
      <trkpt lat="48.02765" lon="7.58541">
        <ele>181.35</ele>
        <time>2017-01-26T07:02:33Z</time>
      </trkpt>
      <trkpt lat="48.02776" lon="7.58525">
        <ele>179.9</ele>
        <time>2017-01-26T07:02:43Z</time>
      </trkpt>
      <trkpt lat="48.02787" lon="7.58509">
        <ele>180.87</ele>
        <time>2017-01-26T07:02:53Z</time>
      </trkpt>
      <trkpt lat="48.02795" lon="7.58502">
        <ele>180.87</ele>
        <time>2017-01-26T07:02:59Z</time>
      </trkpt>
      <trkpt lat="48.02803" lon="7.58486">
        <ele>180.87</ele>
        <time>2017-01-26T07:03:07Z</time>
      </trkpt>
      <trkpt lat="48.02808" lon="7.58475">
        <ele>180.38</ele>
        <time>2017-01-26T07:03:15Z</time>
      </trkpt>
      <trkpt lat="48.02813" lon="7.58463">
        <ele>181.35</ele>
        <time>2017-01-26T07:03:22Z</time>
      </trkpt>
      <trkpt lat="48.02815" lon="7.58446">
        <ele>180.87</ele>
        <time>2017-01-26T07:03:29Z</time>
      </trkpt>
      <trkpt lat="48.0282" lon="7.58432">
        <ele>181.35</ele>
        <time>2017-01-26T07:03:36Z</time>
      </trkpt>
      <trkpt lat="48.02826" lon="7.58422">
        <ele>181.35</ele>
        <time>2017-01-26T07:03:42Z</time>
      </trkpt>
      <trkpt lat="48.02838" lon="7.58407">
        <ele>181.83</ele>
        <time>2017-01-26T07:03:50Z</time>
      </trkpt>
      <trkpt lat="48.02841" lon="7.58389">
        <ele>181.83</ele>
        <time>2017-01-26T07:03:59Z</time>
      </trkpt>
      <trkpt lat="48.02845" lon="7.58374">
        <ele>180.87</ele>
        <time>2017-01-26T07:04:10Z</time>
      </trkpt>
      <trkpt lat="48.02848" lon="7.58358">
        <ele>180.87</ele>
        <time>2017-01-26T07:04:27Z</time>
      </trkpt>
      <trkpt lat="48.02852" lon="7.58344">
        <ele>181.35</ele>
        <time>2017-01-26T07:04:47Z</time>
      </trkpt>
      <trkpt lat="48.02856" lon="7.58327">
        <ele>180.38</ele>
        <time>2017-01-26T07:04:57Z</time>
      </trkpt>
      <trkpt lat="48.02861" lon="7.58312">
        <ele>180.87</ele>
        <time>2017-01-26T07:05:06Z</time>
      </trkpt>
      <trkpt lat="48.02865" lon="7.58294">
        <ele>180.38</ele>
        <time>2017-01-26T07:05:16Z</time>
      </trkpt>
      <trkpt lat="48.0287" lon="7.58287">
        <ele>180.38</ele>
        <time>2017-01-26T07:05:27Z</time>
      </trkpt>
      <trkpt lat="48.02877" lon="7.58254">
        <ele>180.87</ele>
        <time>2017-01-26T07:05:41Z</time>
      </trkpt>
      <trkpt lat="48.02875" lon="7.58238">
        <ele>181.35</ele>
        <time>2017-01-26T07:06:13Z</time>
      </trkpt>
      <trkpt lat="48.02896" lon="7.58196">
        <ele>184.71</ele>
        <time>2017-01-26T07:06:42Z</time>
      </trkpt>
      <trkpt lat="48.02906" lon="7.58163">
        <ele>190</ele>
        <time>2017-01-26T07:07:19Z</time>
      </trkpt>
      <trkpt lat="48.02902" lon="7.58131">
        <ele>190.96</ele>
        <time>2017-01-26T07:07:32Z</time>
      </trkpt>
      <trkpt lat="48.02899" lon="7.58096">
        <ele>197.69</ele>
        <time>2017-01-26T07:08:10Z</time>
      </trkpt>
      <trkpt lat="48.02909" lon="7.58086">
        <ele>200.57</ele>
        <time>2017-01-26T07:08:27Z</time>
      </trkpt>
      <trkpt lat="48.02923" lon="7.58083">
        <ele>202.49</ele>
        <time>2017-01-26T07:08:39Z</time>
      </trkpt>
      <trkpt lat="48.02938" lon="7.58068">
        <ele>206.34</ele>
        <time>2017-01-26T07:08:55Z</time>
      </trkpt>
      <trkpt lat="48.02935" lon="7.58054">
        <ele>208.26</ele>
        <time>2017-01-26T07:09:06Z</time>
      </trkpt>
      <trkpt lat="48.02934" lon="7.58041">
        <ele>210.67</ele>
        <time>2017-01-26T07:09:19Z</time>
      </trkpt>
      <trkpt lat="48.02935" lon="7.5803">
        <ele>214.99</ele>
        <time>2017-01-26T07:09:35Z</time>
      </trkpt>
      <trkpt lat="48.02939" lon="7.58017">
        <ele>215.47</ele>
        <time>2017-01-26T07:10:19Z</time>
      </trkpt>
      <trkpt lat="48.02942" lon="7.57994">
        <ele>215.95</ele>
        <time>2017-01-26T07:10:43Z</time>
      </trkpt>
      <trkpt lat="48.02943" lon="7.57978">
        <ele>215.95</ele>
        <time>2017-01-26T07:11:11Z</time>
      </trkpt>
      <trkpt lat="48.0294" lon="7.57959">
        <ele>216.43</ele>
        <time>2017-01-26T07:11:23Z</time>
      </trkpt>
      <trkpt lat="48.02936" lon="7.57941">
        <ele>216.43</ele>
        <time>2017-01-26T07:11:32Z</time>
      </trkpt>
      <trkpt lat="48.02928" lon="7.57922">
        <ele>216.43</ele>
        <time>2017-01-26T07:11:44Z</time>
      </trkpt>
      <trkpt lat="48.02919" lon="7.57919">
        <ele>216.43</ele>
        <time>2017-01-26T07:12:35Z</time>
      </trkpt>
      <trkpt lat="48.02909" lon="7.57919">
        <ele>216.43</ele>
        <time>2017-01-26T07:12:43Z</time>
      </trkpt>
      <trkpt lat="48.02898" lon="7.57919">
        <ele>215.95</ele>
        <time>2017-01-26T07:12:57Z</time>
      </trkpt>
      <trkpt lat="48.02889" lon="7.57935">
        <ele>215.95</ele>
        <time>2017-01-26T07:13:12Z</time>
      </trkpt>
      <trkpt lat="48.02889" lon="7.57951">
        <ele>215.95</ele>
        <time>2017-01-26T07:14:54Z</time>
      </trkpt>
      <trkpt lat="48.02893" lon="7.57971">
        <ele>215.47</ele>
        <time>2017-01-26T07:15:02Z</time>
      </trkpt>
      <trkpt lat="48.02895" lon="7.57989">
        <ele>215.47</ele>
        <time>2017-01-26T07:15:11Z</time>
      </trkpt>
      <trkpt lat="48.02896" lon="7.58005">
        <ele>214.51</ele>
        <time>2017-01-26T07:15:20Z</time>
      </trkpt>
      <trkpt lat="48.02892" lon="7.5801">
        <ele>214.03</ele>
        <time>2017-01-26T07:15:36Z</time>
      </trkpt>
      <trkpt lat="48.02888" lon="7.57998">
        <ele>212.11</ele>
        <time>2017-01-26T07:15:46Z</time>
      </trkpt>
      <trkpt lat="48.02884" lon="7.57984">
        <ele>210.19</ele>
        <time>2017-01-26T07:15:55Z</time>
      </trkpt>
      <trkpt lat="48.02884" lon="7.57968">
        <ele>208.74</ele>
        <time>2017-01-26T07:16:05Z</time>
      </trkpt>
      <trkpt lat="48.02883" lon="7.57949">
        <ele>206.82</ele>
        <time>2017-01-26T07:16:15Z</time>
      </trkpt>
      <trkpt lat="48.02877" lon="7.57932">
        <ele>203.94</ele>
        <time>2017-01-26T07:16:29Z</time>
      </trkpt>
      <trkpt lat="48.02879" lon="7.57914">
        <ele>204.42</ele>
        <time>2017-01-26T07:16:39Z</time>
      </trkpt>
      <trkpt lat="48.02872" lon="7.57902">
        <ele>204.42</ele>
        <time>2017-01-26T07:16:55Z</time>
      </trkpt>
      <trkpt lat="48.02879" lon="7.57916">
        <ele>204.9</ele>
        <time>2017-01-26T07:18:06Z</time>
      </trkpt>
      <trkpt lat="48.02875" lon="7.57937">
        <ele>203.94</ele>
        <time>2017-01-26T07:18:16Z</time>
      </trkpt>
      <trkpt lat="48.0287" lon="7.57952">
        <ele>202.49</ele>
        <time>2017-01-26T07:18:24Z</time>
      </trkpt>
      <trkpt lat="48.02865" lon="7.57946">
        <ele>201.53</ele>
        <time>2017-01-26T07:18:46Z</time>
      </trkpt>
      <trkpt lat="48.02866" lon="7.57948">
        <ele>201.53</ele>
        <time>2017-01-26T07:19:43Z</time>
      </trkpt>
      <trkpt lat="48.02867" lon="7.57963">
        <ele>202.98</ele>
        <time>2017-01-26T07:19:58Z</time>
      </trkpt>
      <trkpt lat="48.02873" lon="7.5798">
        <ele>201.05</ele>
        <time>2017-01-26T07:20:07Z</time>
      </trkpt>
      <trkpt lat="48.02873" lon="7.57998">
        <ele>200.09</ele>
        <time>2017-01-26T07:20:14Z</time>
      </trkpt>
      <trkpt lat="48.02875" lon="7.58017">
        <ele>199.13</ele>
        <time>2017-01-26T07:20:22Z</time>
      </trkpt>
      <trkpt lat="48.02876" lon="7.58034">
        <ele>197.69</ele>
        <time>2017-01-26T07:20:30Z</time>
      </trkpt>
      <trkpt lat="48.02878" lon="7.58051">
        <ele>196.25</ele>
        <time>2017-01-26T07:20:39Z</time>
      </trkpt>
      <trkpt lat="48.02882" lon="7.58066">
        <ele>194.32</ele>
        <time>2017-01-26T07:20:47Z</time>
      </trkpt>
      <trkpt lat="48.02881" lon="7.58084">
        <ele>192.88</ele>
        <time>2017-01-26T07:20:58Z</time>
      </trkpt>
      <trkpt lat="48.0288" lon="7.58099">
        <ele>189.04</ele>
        <time>2017-01-26T07:21:10Z</time>
      </trkpt>
      <trkpt lat="48.02869" lon="7.5811">
        <ele>183.27</ele>
        <time>2017-01-26T07:21:32Z</time>
      </trkpt>
      <trkpt lat="48.02858" lon="7.58123">
        <ele>183.27</ele>
        <time>2017-01-26T07:21:40Z</time>
      </trkpt>
      <trkpt lat="48.02847" lon="7.58132">
        <ele>182.31</ele>
        <time>2017-01-26T07:21:48Z</time>
      </trkpt>
      <trkpt lat="48.02838" lon="7.58142">
        <ele>181.83</ele>
        <time>2017-01-26T07:21:56Z</time>
      </trkpt>
      <trkpt lat="48.02828" lon="7.5816">
        <ele>182.31</ele>
        <time>2017-01-26T07:22:06Z</time>
      </trkpt>
      <trkpt lat="48.02825" lon="7.58174">
        <ele>181.83</ele>
        <time>2017-01-26T07:22:28Z</time>
      </trkpt>
      <trkpt lat="48.02827" lon="7.58187">
        <ele>181.35</ele>
        <time>2017-01-26T07:22:39Z</time>
      </trkpt>
      <trkpt lat="48.02828" lon="7.58202">
        <ele>181.35</ele>
        <time>2017-01-26T07:22:47Z</time>
      </trkpt>
      <trkpt lat="48.02829" lon="7.58225">
        <ele>181.35</ele>
        <time>2017-01-26T07:22:57Z</time>
      </trkpt>
      <trkpt lat="48.02827" lon="7.58246">
        <ele>181.35</ele>
        <time>2017-01-26T07:23:03Z</time>
      </trkpt>
      <trkpt lat="48.02821" lon="7.5827">
        <ele>180.87</ele>
        <time>2017-01-26T07:23:12Z</time>
      </trkpt>
      <trkpt lat="48.02815" lon="7.58285">
        <ele>181.35</ele>
        <time>2017-01-26T07:23:19Z</time>
      </trkpt>
      <trkpt lat="48.02811" lon="7.58301">
        <ele>181.83</ele>
        <time>2017-01-26T07:23:26Z</time>
      </trkpt>
      <trkpt lat="48.02813" lon="7.58322">
        <ele>181.83</ele>
        <time>2017-01-26T07:23:36Z</time>
      </trkpt>
      <trkpt lat="48.02813" lon="7.58343">
        <ele>182.31</ele>
        <time>2017-01-26T07:23:54Z</time>
      </trkpt>
      <trkpt lat="48.02809" lon="7.58361">
        <ele>182.79</ele>
        <time>2017-01-26T07:24:06Z</time>
      </trkpt>
      <trkpt lat="48.02804" lon="7.58378">
        <ele>182.31</ele>
        <time>2017-01-26T07:24:16Z</time>
      </trkpt>
      <trkpt lat="48.02798" lon="7.584">
        <ele>182.31</ele>
        <time>2017-01-26T07:24:25Z</time>
      </trkpt>
      <trkpt lat="48.02794" lon="7.58419">
        <ele>182.79</ele>
        <time>2017-01-26T07:24:33Z</time>
      </trkpt>
      <trkpt lat="48.02788" lon="7.58434">
        <ele>181.83</ele>
        <time>2017-01-26T07:24:40Z</time>
      </trkpt>
      <trkpt lat="48.02779" lon="7.5845">
        <ele>182.79</ele>
        <time>2017-01-26T07:24:48Z</time>
      </trkpt>
      <trkpt lat="48.0277" lon="7.58476">
        <ele>182.31</ele>
        <time>2017-01-26T07:24:55Z</time>
      </trkpt>
      <trkpt lat="48.02763" lon="7.58491">
        <ele>182.79</ele>
        <time>2017-01-26T07:25:01Z</time>
      </trkpt>
      <trkpt lat="48.02755" lon="7.58498">
        <ele>182.79</ele>
        <time>2017-01-26T07:25:09Z</time>
      </trkpt>
      <trkpt lat="48.02747" lon="7.58509">
        <ele>183.27</ele>
        <time>2017-01-26T07:25:17Z</time>
      </trkpt>
      <trkpt lat="48.02739" lon="7.58525">
        <ele>183.27</ele>
        <time>2017-01-26T07:25:26Z</time>
      </trkpt>
      <trkpt lat="48.02732" lon="7.58544">
        <ele>183.75</ele>
        <time>2017-01-26T07:25:33Z</time>
      </trkpt>
      <trkpt lat="48.02725" lon="7.5856">
        <ele>183.75</ele>
        <time>2017-01-26T07:25:41Z</time>
      </trkpt>
      <trkpt lat="48.02717" lon="7.58576">
        <ele>183.27</ele>
        <time>2017-01-26T07:25:49Z</time>
      </trkpt>
      <trkpt lat="48.02712" lon="7.58589">
        <ele>183.75</ele>
        <time>2017-01-26T07:25:56Z</time>
      </trkpt>
      <trkpt lat="48.02707" lon="7.58606">
        <ele>184.23</ele>
        <time>2017-01-26T07:26:03Z</time>
      </trkpt>
      <trkpt lat="48.027" lon="7.58623">
        <ele>183.75</ele>
        <time>2017-01-26T07:26:11Z</time>
      </trkpt>
      <trkpt lat="48.02695" lon="7.58639">
        <ele>184.71</ele>
        <time>2017-01-26T07:26:20Z</time>
      </trkpt>
      <trkpt lat="48.02691" lon="7.58654">
        <ele>182.31</ele>
        <time>2017-01-26T07:26:28Z</time>
      </trkpt>
      <trkpt lat="48.0269" lon="7.5867">
        <ele>183.27</ele>
        <time>2017-01-26T07:26:35Z</time>
      </trkpt>
      <trkpt lat="48.02687" lon="7.58685">
        <ele>183.75</ele>
        <time>2017-01-26T07:26:41Z</time>
      </trkpt>
      <trkpt lat="48.02681" lon="7.58699">
        <ele>182.79</ele>
        <time>2017-01-26T07:26:49Z</time>
      </trkpt>
      <trkpt lat="48.02675" lon="7.58713">
        <ele>183.75</ele>
        <time>2017-01-26T07:26:55Z</time>
      </trkpt>
      <trkpt lat="48.0267" lon="7.58731">
        <ele>183.75</ele>
        <time>2017-01-26T07:27:02Z</time>
      </trkpt>
      <trkpt lat="48.02662" lon="7.58742">
        <ele>183.75</ele>
        <time>2017-01-26T07:27:09Z</time>
      </trkpt>
      <trkpt lat="48.02657" lon="7.58753">
        <ele>181.83</ele>
        <time>2017-01-26T07:27:15Z</time>
      </trkpt>
      <trkpt lat="48.02652" lon="7.58766">
        <ele>185.19</ele>
        <time>2017-01-26T07:27:22Z</time>
      </trkpt>
      <trkpt lat="48.02645" lon="7.58777">
        <ele>183.75</ele>
        <time>2017-01-26T07:27:29Z</time>
      </trkpt>
      <trkpt lat="48.02637" lon="7.58787">
        <ele>184.23</ele>
        <time>2017-01-26T07:27:36Z</time>
      </trkpt>
      <trkpt lat="48.02626" lon="7.58795">
        <ele>183.75</ele>
        <time>2017-01-26T07:27:43Z</time>
      </trkpt>
      <trkpt lat="48.02619" lon="7.58806">
        <ele>184.23</ele>
        <time>2017-01-26T07:27:50Z</time>
      </trkpt>
      <trkpt lat="48.02611" lon="7.58816">
        <ele>184.23</ele>
        <time>2017-01-26T07:27:58Z</time>
      </trkpt>
      <trkpt lat="48.02601" lon="7.58825">
        <ele>184.23</ele>
        <time>2017-01-26T07:28:06Z</time>
      </trkpt>
      <trkpt lat="48.02591" lon="7.58831">
        <ele>184.23</ele>
        <time>2017-01-26T07:28:13Z</time>
      </trkpt>
      <trkpt lat="48.02579" lon="7.58832">
        <ele>183.75</ele>
        <time>2017-01-26T07:28:24Z</time>
      </trkpt>
      <trkpt lat="48.02569" lon="7.5883">
        <ele>183.75</ele>
        <time>2017-01-26T07:28:31Z</time>
      </trkpt>
      <trkpt lat="48.02556" lon="7.58824">
        <ele>183.27</ele>
        <time>2017-01-26T07:28:39Z</time>
      </trkpt>
      <trkpt lat="48.02545" lon="7.58819">
        <ele>183.27</ele>
        <time>2017-01-26T07:28:47Z</time>
      </trkpt>
      <trkpt lat="48.02538" lon="7.58801">
        <ele>183.27</ele>
        <time>2017-01-26T07:28:57Z</time>
      </trkpt>
      <trkpt lat="48.02528" lon="7.58789">
        <ele>183.27</ele>
        <time>2017-01-26T07:29:06Z</time>
      </trkpt>
      <trkpt lat="48.0252" lon="7.58796">
        <ele>182.31</ele>
        <time>2017-01-26T07:29:16Z</time>
      </trkpt>
      <trkpt lat="48.02492" lon="7.58792">
        <ele>183.27</ele>
        <time>2017-01-26T07:29:28Z</time>
      </trkpt>
      <trkpt lat="48.02495" lon="7.58775">
        <ele>183.27</ele>
        <time>2017-01-26T07:29:35Z</time>
      </trkpt>
      <trkpt lat="48.02495" lon="7.58758">
        <ele>183.27</ele>
        <time>2017-01-26T07:29:42Z</time>
      </trkpt>
      <trkpt lat="48.02491" lon="7.58742">
        <ele>183.75</ele>
        <time>2017-01-26T07:29:49Z</time>
      </trkpt>
      <trkpt lat="48.02488" lon="7.58727">
        <ele>184.23</ele>
        <time>2017-01-26T07:29:56Z</time>
      </trkpt>
      <trkpt lat="48.02488" lon="7.58708">
        <ele>184.71</ele>
        <time>2017-01-26T07:30:04Z</time>
      </trkpt>
      <trkpt lat="48.02486" lon="7.58691">
        <ele>185.67</ele>
        <time>2017-01-26T07:30:12Z</time>
      </trkpt>
      <trkpt lat="48.02482" lon="7.58672">
        <ele>186.63</ele>
        <time>2017-01-26T07:30:25Z</time>
      </trkpt>
      <trkpt lat="48.0248" lon="7.58653">
        <ele>187.59</ele>
        <time>2017-01-26T07:30:33Z</time>
      </trkpt>
      <trkpt lat="48.02476" lon="7.58638">
        <ele>187.11</ele>
        <time>2017-01-26T07:30:41Z</time>
      </trkpt>
      <trkpt lat="48.02472" lon="7.58622">
        <ele>186.63</ele>
        <time>2017-01-26T07:30:50Z</time>
      </trkpt>
      <trkpt lat="48.02468" lon="7.58607">
        <ele>187.11</ele>
        <time>2017-01-26T07:30:59Z</time>
      </trkpt>
      <trkpt lat="48.02462" lon="7.58592">
        <ele>187.59</ele>
        <time>2017-01-26T07:31:06Z</time>
      </trkpt>
      <trkpt lat="48.02456" lon="7.58576">
        <ele>187.59</ele>
        <time>2017-01-26T07:31:14Z</time>
      </trkpt>
      <trkpt lat="48.02451" lon="7.58563">
        <ele>188.08</ele>
        <time>2017-01-26T07:31:21Z</time>
      </trkpt>
      <trkpt lat="48.02446" lon="7.5855">
        <ele>188.08</ele>
        <time>2017-01-26T07:31:28Z</time>
      </trkpt>
      <trkpt lat="48.02441" lon="7.5853">
        <ele>188.56</ele>
        <time>2017-01-26T07:31:37Z</time>
      </trkpt>
      <trkpt lat="48.02436" lon="7.58513">
        <ele>188.56</ele>
        <time>2017-01-26T07:31:45Z</time>
      </trkpt>
      <trkpt lat="48.02429" lon="7.58497">
        <ele>188.56</ele>
        <time>2017-01-26T07:31:53Z</time>
      </trkpt>
      <trkpt lat="48.02423" lon="7.58483">
        <ele>189.04</ele>
        <time>2017-01-26T07:32:00Z</time>
      </trkpt>
      <trkpt lat="48.02415" lon="7.58468">
        <ele>189.04</ele>
        <time>2017-01-26T07:32:08Z</time>
      </trkpt>
      <trkpt lat="48.02408" lon="7.58454">
        <ele>189.04</ele>
        <time>2017-01-26T07:32:15Z</time>
      </trkpt>
      <trkpt lat="48.02401" lon="7.5844">
        <ele>189.04</ele>
        <time>2017-01-26T07:32:23Z</time>
      </trkpt>
      <trkpt lat="48.02396" lon="7.5843">
        <ele>190</ele>
        <time>2017-01-26T07:32:31Z</time>
      </trkpt>
      <trkpt lat="48.0239" lon="7.58415">
        <ele>189.52</ele>
        <time>2017-01-26T07:32:39Z</time>
      </trkpt>
      <trkpt lat="48.02384" lon="7.58401">
        <ele>190</ele>
        <time>2017-01-26T07:32:46Z</time>
      </trkpt>
      <trkpt lat="48.02377" lon="7.58388">
        <ele>190</ele>
        <time>2017-01-26T07:32:53Z</time>
      </trkpt>
      <trkpt lat="48.02371" lon="7.58376">
        <ele>190.48</ele>
        <time>2017-01-26T07:32:59Z</time>
      </trkpt>
      <trkpt lat="48.02365" lon="7.58364">
        <ele>190.48</ele>
        <time>2017-01-26T07:33:06Z</time>
      </trkpt>
      <trkpt lat="48.02359" lon="7.5835">
        <ele>190.96</ele>
        <time>2017-01-26T07:33:13Z</time>
      </trkpt>
      <trkpt lat="48.02353" lon="7.58338">
        <ele>191.44</ele>
        <time>2017-01-26T07:33:20Z</time>
      </trkpt>
      <trkpt lat="48.02345" lon="7.58326">
        <ele>191.44</ele>
        <time>2017-01-26T07:33:28Z</time>
      </trkpt>
      <trkpt lat="48.02339" lon="7.58314">
        <ele>191.44</ele>
        <time>2017-01-26T07:33:34Z</time>
      </trkpt>
      <trkpt lat="48.02332" lon="7.58304">
        <ele>191.44</ele>
        <time>2017-01-26T07:33:40Z</time>
      </trkpt>
      <trkpt lat="48.02325" lon="7.58293">
        <ele>191.92</ele>
        <time>2017-01-26T07:33:46Z</time>
      </trkpt>
      <trkpt lat="48.0232" lon="7.58283">
        <ele>191.44</ele>
        <time>2017-01-26T07:33:51Z</time>
      </trkpt>
      <trkpt lat="48.02315" lon="7.58272">
        <ele>192.4</ele>
        <time>2017-01-26T07:33:58Z</time>
      </trkpt>
      <trkpt lat="48.02308" lon="7.58259">
        <ele>192.4</ele>
        <time>2017-01-26T07:34:06Z</time>
      </trkpt>
      <trkpt lat="48.02302" lon="7.58247">
        <ele>192.4</ele>
        <time>2017-01-26T07:34:12Z</time>
      </trkpt>
      <trkpt lat="48.02295" lon="7.58238">
        <ele>192.4</ele>
        <time>2017-01-26T07:34:17Z</time>
      </trkpt>
      <trkpt lat="48.0229" lon="7.58227">
        <ele>192.4</ele>
        <time>2017-01-26T07:34:24Z</time>
      </trkpt>
      <trkpt lat="48.02283" lon="7.58216">
        <ele>192.88</ele>
        <time>2017-01-26T07:34:31Z</time>
      </trkpt>
      <trkpt lat="48.02274" lon="7.58203">
        <ele>192.88</ele>
        <time>2017-01-26T07:34:39Z</time>
      </trkpt>
      <trkpt lat="48.02269" lon="7.58191">
        <ele>192.88</ele>
        <time>2017-01-26T07:34:45Z</time>
      </trkpt>
      <trkpt lat="48.02263" lon="7.58181">
        <ele>192.88</ele>
        <time>2017-01-26T07:34:51Z</time>
      </trkpt>
      <trkpt lat="48.02257" lon="7.58171">
        <ele>192.88</ele>
        <time>2017-01-26T07:34:57Z</time>
      </trkpt>
      <trkpt lat="48.02251" lon="7.5816">
        <ele>193.36</ele>
        <time>2017-01-26T07:35:03Z</time>
      </trkpt>
      <trkpt lat="48.02245" lon="7.5815">
        <ele>193.36</ele>
        <time>2017-01-26T07:35:09Z</time>
      </trkpt>
      <trkpt lat="48.0224" lon="7.5814">
        <ele>193.36</ele>
        <time>2017-01-26T07:35:14Z</time>
      </trkpt>
      <trkpt lat="48.02233" lon="7.58131">
        <ele>193.36</ele>
        <time>2017-01-26T07:35:20Z</time>
      </trkpt>
      <trkpt lat="48.02228" lon="7.5812">
        <ele>193.84</ele>
        <time>2017-01-26T07:35:26Z</time>
      </trkpt>
      <trkpt lat="48.02222" lon="7.5811">
        <ele>193.36</ele>
        <time>2017-01-26T07:35:31Z</time>
      </trkpt>
      <trkpt lat="48.02215" lon="7.58099">
        <ele>193.36</ele>
        <time>2017-01-26T07:35:37Z</time>
      </trkpt>
      <trkpt lat="48.02208" lon="7.58086">
        <ele>194.32</ele>
        <time>2017-01-26T07:35:46Z</time>
      </trkpt>
      <trkpt lat="48.02202" lon="7.58075">
        <ele>193.84</ele>
        <time>2017-01-26T07:35:53Z</time>
      </trkpt>
      <trkpt lat="48.02195" lon="7.58065">
        <ele>193.84</ele>
        <time>2017-01-26T07:35:59Z</time>
      </trkpt>
      <trkpt lat="48.02188" lon="7.58052">
        <ele>194.32</ele>
        <time>2017-01-26T07:36:06Z</time>
      </trkpt>
      <trkpt lat="48.02185" lon="7.58042">
        <ele>194.32</ele>
        <time>2017-01-26T07:36:22Z</time>
      </trkpt>
      <trkpt lat="48.02184" lon="7.58027">
        <ele>194.8</ele>
        <time>2017-01-26T07:36:30Z</time>
      </trkpt>
      <trkpt lat="48.02181" lon="7.58013">
        <ele>194.32</ele>
        <time>2017-01-26T07:36:38Z</time>
      </trkpt>
      <trkpt lat="48.0218" lon="7.57998">
        <ele>192.4</ele>
        <time>2017-01-26T07:36:44Z</time>
      </trkpt>
      <trkpt lat="48.02173" lon="7.57987">
        <ele>193.36</ele>
        <time>2017-01-26T07:36:51Z</time>
      </trkpt>
      <trkpt lat="48.02162" lon="7.57981">
        <ele>194.32</ele>
        <time>2017-01-26T07:37:00Z</time>
      </trkpt>
      <trkpt lat="48.02154" lon="7.5797">
        <ele>193.84</ele>
        <time>2017-01-26T07:37:07Z</time>
      </trkpt>
      <trkpt lat="48.02146" lon="7.57959">
        <ele>193.84</ele>
        <time>2017-01-26T07:37:15Z</time>
      </trkpt>
      <trkpt lat="48.0214" lon="7.57947">
        <ele>195.28</ele>
        <time>2017-01-26T07:37:22Z</time>
      </trkpt>
      <trkpt lat="48.02132" lon="7.57935">
        <ele>195.28</ele>
        <time>2017-01-26T07:37:30Z</time>
      </trkpt>
      <trkpt lat="48.02125" lon="7.57923">
        <ele>196.25</ele>
        <time>2017-01-26T07:37:47Z</time>
      </trkpt>
      <trkpt lat="48.0212" lon="7.57916">
        <ele>195.28</ele>
        <time>2017-01-26T07:38:45Z</time>
      </trkpt>
      <trkpt lat="48.02116" lon="7.57909">
        <ele>195.77</ele>
        <time>2017-01-26T07:40:09Z</time>
      </trkpt>
      <trkpt lat="48.02111" lon="7.57896">
        <ele>196.25</ele>
        <time>2017-01-26T07:40:47Z</time>
      </trkpt>
      <trkpt lat="48.02103" lon="7.57882">
        <ele>194.8</ele>
        <time>2017-01-26T07:40:55Z</time>
      </trkpt>
      <trkpt lat="48.02096" lon="7.57868">
        <ele>195.77</ele>
        <time>2017-01-26T07:41:02Z</time>
      </trkpt>
      <trkpt lat="48.0209" lon="7.57851">
        <ele>194.8</ele>
        <time>2017-01-26T07:41:09Z</time>
      </trkpt>
      <trkpt lat="48.02084" lon="7.57836">
        <ele>195.28</ele>
        <time>2017-01-26T07:41:16Z</time>
      </trkpt>
      <trkpt lat="48.02074" lon="7.57825">
        <ele>195.77</ele>
        <time>2017-01-26T07:41:24Z</time>
      </trkpt>
      <trkpt lat="48.02062" lon="7.57819">
        <ele>195.77</ele>
        <time>2017-01-26T07:41:31Z</time>
      </trkpt>
      <trkpt lat="48.02053" lon="7.57812">
        <ele>195.77</ele>
        <time>2017-01-26T07:41:38Z</time>
      </trkpt>
      <trkpt lat="48.02044" lon="7.578">
        <ele>195.77</ele>
        <time>2017-01-26T07:41:46Z</time>
      </trkpt>
      <trkpt lat="48.02037" lon="7.57788">
        <ele>195.77</ele>
        <time>2017-01-26T07:41:54Z</time>
      </trkpt>
      <trkpt lat="48.02029" lon="7.57777">
        <ele>195.77</ele>
        <time>2017-01-26T07:42:01Z</time>
      </trkpt>
      <trkpt lat="48.02021" lon="7.57767">
        <ele>195.28</ele>
        <time>2017-01-26T07:42:09Z</time>
      </trkpt>
      <trkpt lat="48.02014" lon="7.57755">
        <ele>195.28</ele>
        <time>2017-01-26T07:42:16Z</time>
      </trkpt>
      <trkpt lat="48.02007" lon="7.57743">
        <ele>195.77</ele>
        <time>2017-01-26T07:42:23Z</time>
      </trkpt>
      <trkpt lat="48.02001" lon="7.57728">
        <ele>195.28</ele>
        <time>2017-01-26T07:42:31Z</time>
      </trkpt>
      <trkpt lat="48.01995" lon="7.57713">
        <ele>195.28</ele>
        <time>2017-01-26T07:42:39Z</time>
      </trkpt>
      <trkpt lat="48.0199" lon="7.57698">
        <ele>195.77</ele>
        <time>2017-01-26T07:42:47Z</time>
      </trkpt>
      <trkpt lat="48.01983" lon="7.57686">
        <ele>195.77</ele>
        <time>2017-01-26T07:42:53Z</time>
      </trkpt>
      <trkpt lat="48.01976" lon="7.57674">
        <ele>196.25</ele>
        <time>2017-01-26T07:43:00Z</time>
      </trkpt>
      <trkpt lat="48.01969" lon="7.57662">
        <ele>196.25</ele>
        <time>2017-01-26T07:43:06Z</time>
      </trkpt>
      <trkpt lat="48.01962" lon="7.5765">
        <ele>196.25</ele>
        <time>2017-01-26T07:43:13Z</time>
      </trkpt>
      <trkpt lat="48.01955" lon="7.57638">
        <ele>197.21</ele>
        <time>2017-01-26T07:43:20Z</time>
      </trkpt>
      <trkpt lat="48.01948" lon="7.57625">
        <ele>197.69</ele>
        <time>2017-01-26T07:43:27Z</time>
      </trkpt>
      <trkpt lat="48.01941" lon="7.57615">
        <ele>198.17</ele>
        <time>2017-01-26T07:43:34Z</time>
      </trkpt>
      <trkpt lat="48.01934" lon="7.57603">
        <ele>198.17</ele>
        <time>2017-01-26T07:43:42Z</time>
      </trkpt>
      <trkpt lat="48.01927" lon="7.57593">
        <ele>198.65</ele>
        <time>2017-01-26T07:43:48Z</time>
      </trkpt>
      <trkpt lat="48.01921" lon="7.57581">
        <ele>198.65</ele>
        <time>2017-01-26T07:43:55Z</time>
      </trkpt>
      <trkpt lat="48.01914" lon="7.5757">
        <ele>199.13</ele>
        <time>2017-01-26T07:44:02Z</time>
      </trkpt>
      <trkpt lat="48.01907" lon="7.57557">
        <ele>198.65</ele>
        <time>2017-01-26T07:44:12Z</time>
      </trkpt>
      <trkpt lat="48.01901" lon="7.57546">
        <ele>199.13</ele>
        <time>2017-01-26T07:44:19Z</time>
      </trkpt>
      <trkpt lat="48.01894" lon="7.57535">
        <ele>198.65</ele>
        <time>2017-01-26T07:44:26Z</time>
      </trkpt>
      <trkpt lat="48.01889" lon="7.57524">
        <ele>199.13</ele>
        <time>2017-01-26T07:44:32Z</time>
      </trkpt>
      <trkpt lat="48.01882" lon="7.57512">
        <ele>198.17</ele>
        <time>2017-01-26T07:44:39Z</time>
      </trkpt>
      <trkpt lat="48.01876" lon="7.57501">
        <ele>198.65</ele>
        <time>2017-01-26T07:44:45Z</time>
      </trkpt>
      <trkpt lat="48.01869" lon="7.57488">
        <ele>198.17</ele>
        <time>2017-01-26T07:44:51Z</time>
      </trkpt>
      <trkpt lat="48.01864" lon="7.57476">
        <ele>197.69</ele>
        <time>2017-01-26T07:44:57Z</time>
      </trkpt>
      <trkpt lat="48.01859" lon="7.57463">
        <ele>198.17</ele>
        <time>2017-01-26T07:45:02Z</time>
      </trkpt>
      <trkpt lat="48.01853" lon="7.57452">
        <ele>197.69</ele>
        <time>2017-01-26T07:45:08Z</time>
      </trkpt>
      <trkpt lat="48.01847" lon="7.5744">
        <ele>196.73</ele>
        <time>2017-01-26T07:45:14Z</time>
      </trkpt>
      <trkpt lat="48.01839" lon="7.57428">
        <ele>197.21</ele>
        <time>2017-01-26T07:45:20Z</time>
      </trkpt>
      <trkpt lat="48.01833" lon="7.57416">
        <ele>196.73</ele>
        <time>2017-01-26T07:45:26Z</time>
      </trkpt>
      <trkpt lat="48.01827" lon="7.57405">
        <ele>196.73</ele>
        <time>2017-01-26T07:45:32Z</time>
      </trkpt>
      <trkpt lat="48.01822" lon="7.57394">
        <ele>196.25</ele>
        <time>2017-01-26T07:45:38Z</time>
      </trkpt>
      <trkpt lat="48.01815" lon="7.57383">
        <ele>195.77</ele>
        <time>2017-01-26T07:45:44Z</time>
      </trkpt>
      <trkpt lat="48.01809" lon="7.57373">
        <ele>195.28</ele>
        <time>2017-01-26T07:45:49Z</time>
      </trkpt>
      <trkpt lat="48.01803" lon="7.57363">
        <ele>195.28</ele>
        <time>2017-01-26T07:45:55Z</time>
      </trkpt>
      <trkpt lat="48.01797" lon="7.57352">
        <ele>194.8</ele>
        <time>2017-01-26T07:46:01Z</time>
      </trkpt>
      <trkpt lat="48.0179" lon="7.57341">
        <ele>194.32</ele>
        <time>2017-01-26T07:46:08Z</time>
      </trkpt>
      <trkpt lat="48.01785" lon="7.57329">
        <ele>193.36</ele>
        <time>2017-01-26T07:46:14Z</time>
      </trkpt>
      <trkpt lat="48.0178" lon="7.57318">
        <ele>192.88</ele>
        <time>2017-01-26T07:46:21Z</time>
      </trkpt>
      <trkpt lat="48.01776" lon="7.57305">
        <ele>192.88</ele>
        <time>2017-01-26T07:46:29Z</time>
      </trkpt>
      <trkpt lat="48.01771" lon="7.57291">
        <ele>192.4</ele>
        <time>2017-01-26T07:46:36Z</time>
      </trkpt>
      <trkpt lat="48.01767" lon="7.57275">
        <ele>191.44</ele>
        <time>2017-01-26T07:46:44Z</time>
      </trkpt>
      <trkpt lat="48.01762" lon="7.5726">
        <ele>191.44</ele>
        <time>2017-01-26T07:46:51Z</time>
      </trkpt>
      <trkpt lat="48.01758" lon="7.57244">
        <ele>191.44</ele>
        <time>2017-01-26T07:46:58Z</time>
      </trkpt>
      <trkpt lat="48.01755" lon="7.57228">
        <ele>190.48</ele>
        <time>2017-01-26T07:47:05Z</time>
      </trkpt>
      <trkpt lat="48.01751" lon="7.57212">
        <ele>190</ele>
        <time>2017-01-26T07:47:12Z</time>
      </trkpt>
      <trkpt lat="48.01748" lon="7.57198">
        <ele>190</ele>
        <time>2017-01-26T07:47:19Z</time>
      </trkpt>
      <trkpt lat="48.01745" lon="7.57182">
        <ele>190</ele>
        <time>2017-01-26T07:47:26Z</time>
      </trkpt>
      <trkpt lat="48.01743" lon="7.57166">
        <ele>191.44</ele>
        <time>2017-01-26T07:47:33Z</time>
      </trkpt>
      <trkpt lat="48.01741" lon="7.57152">
        <ele>189.04</ele>
        <time>2017-01-26T07:47:40Z</time>
      </trkpt>
      <trkpt lat="48.01741" lon="7.57137">
        <ele>189.04</ele>
        <time>2017-01-26T07:47:47Z</time>
      </trkpt>
      <trkpt lat="48.01741" lon="7.57121">
        <ele>188.56</ele>
        <time>2017-01-26T07:47:54Z</time>
      </trkpt>
      <trkpt lat="48.01742" lon="7.57106">
        <ele>187.11</ele>
        <time>2017-01-26T07:48:01Z</time>
      </trkpt>
      <trkpt lat="48.01743" lon="7.5709">
        <ele>186.63</ele>
        <time>2017-01-26T07:48:08Z</time>
      </trkpt>
      <trkpt lat="48.01746" lon="7.57074">
        <ele>186.63</ele>
        <time>2017-01-26T07:48:15Z</time>
      </trkpt>
      <trkpt lat="48.0175" lon="7.57058">
        <ele>186.63</ele>
        <time>2017-01-26T07:48:22Z</time>
      </trkpt>
      <trkpt lat="48.01753" lon="7.57044">
        <ele>186.15</ele>
        <time>2017-01-26T07:48:28Z</time>
      </trkpt>
      <trkpt lat="48.01751" lon="7.5703">
        <ele>185.67</ele>
        <time>2017-01-26T07:48:33Z</time>
      </trkpt>
      <trkpt lat="48.01745" lon="7.57019">
        <ele>185.67</ele>
        <time>2017-01-26T07:48:40Z</time>
      </trkpt>
      <trkpt lat="48.01739" lon="7.57008">
        <ele>186.15</ele>
        <time>2017-01-26T07:48:46Z</time>
      </trkpt>
      <trkpt lat="48.01736" lon="7.56997">
        <ele>187.11</ele>
        <time>2017-01-26T07:48:53Z</time>
      </trkpt>
      <trkpt lat="48.01727" lon="7.56997">
        <ele>189.52</ele>
        <time>2017-01-26T07:49:00Z</time>
      </trkpt>
      <trkpt lat="48.01719" lon="7.56991">
        <ele>187.11</ele>
        <time>2017-01-26T07:49:07Z</time>
      </trkpt>
      <trkpt lat="48.01711" lon="7.56983">
        <ele>187.11</ele>
        <time>2017-01-26T07:49:13Z</time>
      </trkpt>
      <trkpt lat="48.01703" lon="7.56975">
        <ele>187.11</ele>
        <time>2017-01-26T07:49:21Z</time>
      </trkpt>
      <trkpt lat="48.01694" lon="7.56965">
        <ele>187.59</ele>
        <time>2017-01-26T07:49:30Z</time>
      </trkpt>
      <trkpt lat="48.01685" lon="7.56955">
        <ele>187.59</ele>
        <time>2017-01-26T07:49:37Z</time>
      </trkpt>
      <trkpt lat="48.01677" lon="7.56945">
        <ele>188.56</ele>
        <time>2017-01-26T07:49:43Z</time>
      </trkpt>
      <trkpt lat="48.01669" lon="7.56937">
        <ele>187.59</ele>
        <time>2017-01-26T07:49:49Z</time>
      </trkpt>
      <trkpt lat="48.01661" lon="7.56927">
        <ele>188.08</ele>
        <time>2017-01-26T07:49:56Z</time>
      </trkpt>
      <trkpt lat="48.01653" lon="7.56918">
        <ele>187.59</ele>
        <time>2017-01-26T07:50:03Z</time>
      </trkpt>
      <trkpt lat="48.01644" lon="7.56908">
        <ele>188.08</ele>
        <time>2017-01-26T07:50:10Z</time>
      </trkpt>
      <trkpt lat="48.01635" lon="7.56898">
        <ele>187.59</ele>
        <time>2017-01-26T07:50:17Z</time>
      </trkpt>
      <trkpt lat="48.01627" lon="7.56889">
        <ele>187.59</ele>
        <time>2017-01-26T07:50:23Z</time>
      </trkpt>
      <trkpt lat="48.01618" lon="7.5688">
        <ele>187.59</ele>
        <time>2017-01-26T07:50:29Z</time>
      </trkpt>
      <trkpt lat="48.0161" lon="7.56871">
        <ele>187.59</ele>
        <time>2017-01-26T07:50:35Z</time>
      </trkpt>
      <trkpt lat="48.01604" lon="7.5686">
        <ele>187.59</ele>
        <time>2017-01-26T07:50:41Z</time>
      </trkpt>
      <trkpt lat="48.01598" lon="7.56848">
        <ele>187.11</ele>
        <time>2017-01-26T07:50:48Z</time>
      </trkpt>
      <trkpt lat="48.01593" lon="7.56836">
        <ele>187.11</ele>
        <time>2017-01-26T07:50:54Z</time>
      </trkpt>
      <trkpt lat="48.01587" lon="7.56822">
        <ele>187.59</ele>
        <time>2017-01-26T07:51:01Z</time>
      </trkpt>
      <trkpt lat="48.01583" lon="7.56808">
        <ele>187.11</ele>
        <time>2017-01-26T07:51:08Z</time>
      </trkpt>
      <trkpt lat="48.01579" lon="7.56794">
        <ele>187.11</ele>
        <time>2017-01-26T07:51:15Z</time>
      </trkpt>
      <trkpt lat="48.01574" lon="7.56779">
        <ele>187.59</ele>
        <time>2017-01-26T07:51:22Z</time>
      </trkpt>
      <trkpt lat="48.0157" lon="7.56765">
        <ele>187.59</ele>
        <time>2017-01-26T07:51:29Z</time>
      </trkpt>
      <trkpt lat="48.01566" lon="7.5675">
        <ele>187.59</ele>
        <time>2017-01-26T07:51:36Z</time>
      </trkpt>
      <trkpt lat="48.01561" lon="7.56735">
        <ele>188.08</ele>
        <time>2017-01-26T07:51:43Z</time>
      </trkpt>
      <trkpt lat="48.01556" lon="7.5672">
        <ele>188.08</ele>
        <time>2017-01-26T07:51:50Z</time>
      </trkpt>
      <trkpt lat="48.01553" lon="7.56705">
        <ele>188.08</ele>
        <time>2017-01-26T07:51:57Z</time>
      </trkpt>
      <trkpt lat="48.01548" lon="7.56691">
        <ele>188.08</ele>
        <time>2017-01-26T07:52:04Z</time>
      </trkpt>
      <trkpt lat="48.01544" lon="7.56677">
        <ele>188.08</ele>
        <time>2017-01-26T07:52:11Z</time>
      </trkpt>
      <trkpt lat="48.01539" lon="7.56663">
        <ele>188.56</ele>
        <time>2017-01-26T07:52:18Z</time>
      </trkpt>
      <trkpt lat="48.01535" lon="7.56649">
        <ele>188.56</ele>
        <time>2017-01-26T07:52:25Z</time>
      </trkpt>
      <trkpt lat="48.0153" lon="7.56635">
        <ele>188.56</ele>
        <time>2017-01-26T07:52:32Z</time>
      </trkpt>
      <trkpt lat="48.01525" lon="7.56621">
        <ele>188.56</ele>
        <time>2017-01-26T07:52:39Z</time>
      </trkpt>
      <trkpt lat="48.0152" lon="7.56605">
        <ele>188.08</ele>
        <time>2017-01-26T07:52:46Z</time>
      </trkpt>
      <trkpt lat="48.01518" lon="7.56587">
        <ele>188.56</ele>
        <time>2017-01-26T07:52:55Z</time>
      </trkpt>
      <trkpt lat="48.01519" lon="7.56568">
        <ele>188.56</ele>
        <time>2017-01-26T07:53:04Z</time>
      </trkpt>
      <trkpt lat="48.01522" lon="7.5655">
        <ele>187.59</ele>
        <time>2017-01-26T07:53:12Z</time>
      </trkpt>
      <trkpt lat="48.01527" lon="7.56534">
        <ele>191.44</ele>
        <time>2017-01-26T07:53:20Z</time>
      </trkpt>
      <trkpt lat="48.01532" lon="7.56522">
        <ele>189.52</ele>
        <time>2017-01-26T07:53:26Z</time>
      </trkpt>
      <trkpt lat="48.01536" lon="7.56508">
        <ele>188.56</ele>
        <time>2017-01-26T07:53:32Z</time>
      </trkpt>
      <trkpt lat="48.01541" lon="7.56495">
        <ele>188.56</ele>
        <time>2017-01-26T07:53:40Z</time>
      </trkpt>
      <trkpt lat="48.01544" lon="7.56479">
        <ele>188.56</ele>
        <time>2017-01-26T07:53:49Z</time>
      </trkpt>
      <trkpt lat="48.01546" lon="7.56458">
        <ele>188.56</ele>
        <time>2017-01-26T07:53:58Z</time>
      </trkpt>
      <trkpt lat="48.01547" lon="7.5644">
        <ele>189.52</ele>
        <time>2017-01-26T07:54:04Z</time>
      </trkpt>
      <trkpt lat="48.01546" lon="7.56425">
        <ele>189.04</ele>
        <time>2017-01-26T07:54:10Z</time>
      </trkpt>
      <trkpt lat="48.01546" lon="7.56411">
        <ele>189.04</ele>
        <time>2017-01-26T07:54:16Z</time>
      </trkpt>
      <trkpt lat="48.01545" lon="7.56395">
        <ele>189.04</ele>
        <time>2017-01-26T07:54:24Z</time>
      </trkpt>
      <trkpt lat="48.01544" lon="7.56376">
        <ele>189.04</ele>
        <time>2017-01-26T07:54:33Z</time>
      </trkpt>
      <trkpt lat="48.01543" lon="7.56356">
        <ele>188.56</ele>
        <time>2017-01-26T07:54:43Z</time>
      </trkpt>
      <trkpt lat="48.01541" lon="7.56334">
        <ele>189.04</ele>
        <time>2017-01-26T07:54:51Z</time>
      </trkpt>
      <trkpt lat="48.0154" lon="7.56315">
        <ele>188.08</ele>
        <time>2017-01-26T07:55:00Z</time>
      </trkpt>
      <trkpt lat="48.01541" lon="7.56295">
        <ele>188.08</ele>
        <time>2017-01-26T07:55:10Z</time>
      </trkpt>
      <trkpt lat="48.0154" lon="7.56274">
        <ele>188.56</ele>
        <time>2017-01-26T07:55:20Z</time>
      </trkpt>
      <trkpt lat="48.0154" lon="7.56254">
        <ele>188.56</ele>
        <time>2017-01-26T07:55:29Z</time>
      </trkpt>
      <trkpt lat="48.01537" lon="7.56232">
        <ele>189.52</ele>
        <time>2017-01-26T07:55:37Z</time>
      </trkpt>
      <trkpt lat="48.01536" lon="7.56212">
        <ele>189.04</ele>
        <time>2017-01-26T07:55:46Z</time>
      </trkpt>
      <trkpt lat="48.01535" lon="7.56192">
        <ele>188.56</ele>
        <time>2017-01-26T07:55:54Z</time>
      </trkpt>
      <trkpt lat="48.01534" lon="7.56172">
        <ele>189.52</ele>
        <time>2017-01-26T07:56:02Z</time>
      </trkpt>
      <trkpt lat="48.01531" lon="7.56155">
        <ele>190</ele>
        <time>2017-01-26T07:56:08Z</time>
      </trkpt>
      <trkpt lat="48.01529" lon="7.56139">
        <ele>188.08</ele>
        <time>2017-01-26T07:56:14Z</time>
      </trkpt>
      <trkpt lat="48.01528" lon="7.56123">
        <ele>188.56</ele>
        <time>2017-01-26T07:56:20Z</time>
      </trkpt>
      <trkpt lat="48.01527" lon="7.56107">
        <ele>189.04</ele>
        <time>2017-01-26T07:56:27Z</time>
      </trkpt>
      <trkpt lat="48.01525" lon="7.56091">
        <ele>189.52</ele>
        <time>2017-01-26T07:56:33Z</time>
      </trkpt>
      <trkpt lat="48.01525" lon="7.56074">
        <ele>187.11</ele>
        <time>2017-01-26T07:56:41Z</time>
      </trkpt>
      <trkpt lat="48.01525" lon="7.56056">
        <ele>189.52</ele>
        <time>2017-01-26T07:56:50Z</time>
      </trkpt>
      <trkpt lat="48.01524" lon="7.56037">
        <ele>189.52</ele>
        <time>2017-01-26T07:56:58Z</time>
      </trkpt>
      <trkpt lat="48.01524" lon="7.56019">
        <ele>189.04</ele>
        <time>2017-01-26T07:57:05Z</time>
      </trkpt>
      <trkpt lat="48.01525" lon="7.56002">
        <ele>188.56</ele>
        <time>2017-01-26T07:57:12Z</time>
      </trkpt>
      <trkpt lat="48.01526" lon="7.55985">
        <ele>190</ele>
        <time>2017-01-26T07:57:19Z</time>
      </trkpt>
      <trkpt lat="48.01526" lon="7.55968">
        <ele>189.04</ele>
        <time>2017-01-26T07:57:25Z</time>
      </trkpt>
      <trkpt lat="48.01524" lon="7.55953">
        <ele>189.04</ele>
        <time>2017-01-26T07:57:30Z</time>
      </trkpt>
      <trkpt lat="48.01522" lon="7.55937">
        <ele>189.52</ele>
        <time>2017-01-26T07:57:35Z</time>
      </trkpt>
      <trkpt lat="48.01521" lon="7.55922">
        <ele>188.56</ele>
        <time>2017-01-26T07:57:40Z</time>
      </trkpt>
      <trkpt lat="48.01521" lon="7.55909">
        <ele>189.52</ele>
        <time>2017-01-26T07:57:45Z</time>
      </trkpt>
      <trkpt lat="48.0152" lon="7.55895">
        <ele>189.04</ele>
        <time>2017-01-26T07:57:51Z</time>
      </trkpt>
      <trkpt lat="48.0152" lon="7.55882">
        <ele>188.56</ele>
        <time>2017-01-26T07:57:57Z</time>
      </trkpt>
      <trkpt lat="48.01521" lon="7.55868">
        <ele>189.52</ele>
        <time>2017-01-26T07:58:03Z</time>
      </trkpt>
      <trkpt lat="48.01522" lon="7.55853">
        <ele>189.04</ele>
        <time>2017-01-26T07:58:10Z</time>
      </trkpt>
      <trkpt lat="48.01524" lon="7.55837">
        <ele>188.56</ele>
        <time>2017-01-26T07:58:18Z</time>
      </trkpt>
      <trkpt lat="48.01525" lon="7.5582">
        <ele>188.56</ele>
        <time>2017-01-26T07:58:25Z</time>
      </trkpt>
      <trkpt lat="48.01528" lon="7.55804">
        <ele>188.56</ele>
        <time>2017-01-26T07:58:32Z</time>
      </trkpt>
      <trkpt lat="48.01532" lon="7.55788">
        <ele>188.56</ele>
        <time>2017-01-26T07:58:40Z</time>
      </trkpt>
      <trkpt lat="48.01537" lon="7.55772">
        <ele>188.56</ele>
        <time>2017-01-26T07:58:47Z</time>
      </trkpt>
      <trkpt lat="48.01543" lon="7.55756">
        <ele>189.04</ele>
        <time>2017-01-26T07:58:55Z</time>
      </trkpt>
      <trkpt lat="48.01547" lon="7.55744">
        <ele>189.04</ele>
        <time>2017-01-26T07:59:06Z</time>
      </trkpt>
      <trkpt lat="48.01552" lon="7.55729">
        <ele>189.52</ele>
        <time>2017-01-26T07:59:13Z</time>
      </trkpt>
      <trkpt lat="48.01559" lon="7.55716">
        <ele>189.52</ele>
        <time>2017-01-26T07:59:21Z</time>
      </trkpt>
      <trkpt lat="48.01564" lon="7.55701">
        <ele>189.04</ele>
        <time>2017-01-26T07:59:27Z</time>
      </trkpt>
      <trkpt lat="48.01568" lon="7.55686">
        <ele>189.04</ele>
        <time>2017-01-26T07:59:33Z</time>
      </trkpt>
      <trkpt lat="48.01574" lon="7.55671">
        <ele>189.04</ele>
        <time>2017-01-26T07:59:40Z</time>
      </trkpt>
      <trkpt lat="48.01579" lon="7.55654">
        <ele>189.04</ele>
        <time>2017-01-26T07:59:47Z</time>
      </trkpt>
      <trkpt lat="48.01583" lon="7.55639">
        <ele>189.52</ele>
        <time>2017-01-26T07:59:53Z</time>
      </trkpt>
      <trkpt lat="48.01587" lon="7.55625">
        <ele>189.52</ele>
        <time>2017-01-26T07:59:59Z</time>
      </trkpt>
      <trkpt lat="48.01587" lon="7.55611">
        <ele>189.52</ele>
        <time>2017-01-26T08:00:05Z</time>
      </trkpt>
      <trkpt lat="48.0159" lon="7.55592">
        <ele>189.52</ele>
        <time>2017-01-26T08:00:13Z</time>
      </trkpt>
      <trkpt lat="48.01593" lon="7.55577">
        <ele>189.52</ele>
        <time>2017-01-26T08:00:21Z</time>
      </trkpt>
      <trkpt lat="48.01593" lon="7.55562">
        <ele>189.52</ele>
        <time>2017-01-26T08:00:28Z</time>
      </trkpt>
      <trkpt lat="48.0159" lon="7.55548">
        <ele>190</ele>
        <time>2017-01-26T08:00:37Z</time>
      </trkpt>
      <trkpt lat="48.01599" lon="7.55536">
        <ele>190</ele>
        <time>2017-01-26T08:00:51Z</time>
      </trkpt>
      <trkpt lat="48.016" lon="7.55522">
        <ele>190.48</ele>
        <time>2017-01-26T08:01:03Z</time>
      </trkpt>
      <trkpt lat="48.01601" lon="7.55501">
        <ele>190</ele>
        <time>2017-01-26T08:01:11Z</time>
      </trkpt>
      <trkpt lat="48.01602" lon="7.55484">
        <ele>190.48</ele>
        <time>2017-01-26T08:01:18Z</time>
      </trkpt>
      <trkpt lat="48.01603" lon="7.55468">
        <ele>190</ele>
        <time>2017-01-26T08:01:24Z</time>
      </trkpt>
      <trkpt lat="48.01604" lon="7.55452">
        <ele>190.48</ele>
        <time>2017-01-26T08:01:32Z</time>
      </trkpt>
      <trkpt lat="48.01603" lon="7.55435">
        <ele>190.48</ele>
        <time>2017-01-26T08:01:39Z</time>
      </trkpt>
      <trkpt lat="48.01607" lon="7.55418">
        <ele>190.96</ele>
        <time>2017-01-26T08:01:48Z</time>
      </trkpt>
      <trkpt lat="48.01615" lon="7.55406">
        <ele>190.48</ele>
        <time>2017-01-26T08:01:55Z</time>
      </trkpt>
      <trkpt lat="48.01621" lon="7.55389">
        <ele>190.96</ele>
        <time>2017-01-26T08:02:02Z</time>
      </trkpt>
      <trkpt lat="48.01629" lon="7.55377">
        <ele>190.48</ele>
        <time>2017-01-26T08:02:09Z</time>
      </trkpt>
      <trkpt lat="48.01636" lon="7.55366">
        <ele>190.96</ele>
        <time>2017-01-26T08:02:16Z</time>
      </trkpt>
      <trkpt lat="48.01644" lon="7.55351">
        <ele>191.44</ele>
        <time>2017-01-26T08:02:25Z</time>
      </trkpt>
      <trkpt lat="48.01648" lon="7.55336">
        <ele>190.96</ele>
        <time>2017-01-26T08:02:32Z</time>
      </trkpt>
      <trkpt lat="48.01649" lon="7.55317">
        <ele>191.92</ele>
        <time>2017-01-26T08:02:41Z</time>
      </trkpt>
      <trkpt lat="48.01654" lon="7.55302">
        <ele>191.92</ele>
        <time>2017-01-26T08:02:49Z</time>
      </trkpt>
      <trkpt lat="48.01662" lon="7.55296">
        <ele>191.44</ele>
        <time>2017-01-26T08:02:55Z</time>
      </trkpt>
      <trkpt lat="48.01673" lon="7.55295">
        <ele>191.92</ele>
        <time>2017-01-26T08:03:04Z</time>
      </trkpt>
      <trkpt lat="48.01685" lon="7.55291">
        <ele>191.44</ele>
        <time>2017-01-26T08:03:13Z</time>
      </trkpt>
      <trkpt lat="48.01697" lon="7.55287">
        <ele>191.44</ele>
        <time>2017-01-26T08:03:21Z</time>
      </trkpt>
      <trkpt lat="48.01708" lon="7.55285">
        <ele>191.44</ele>
        <time>2017-01-26T08:03:29Z</time>
      </trkpt>
      <trkpt lat="48.01721" lon="7.55283">
        <ele>190.96</ele>
        <time>2017-01-26T08:03:37Z</time>
      </trkpt>
      <trkpt lat="48.01733" lon="7.55279">
        <ele>190.96</ele>
        <time>2017-01-26T08:03:45Z</time>
      </trkpt>
      <trkpt lat="48.01748" lon="7.55276">
        <ele>191.44</ele>
        <time>2017-01-26T08:03:56Z</time>
      </trkpt>
      <trkpt lat="48.0176" lon="7.55273">
        <ele>190.96</ele>
        <time>2017-01-26T08:04:05Z</time>
      </trkpt>
      <trkpt lat="48.01772" lon="7.5527">
        <ele>190.48</ele>
        <time>2017-01-26T08:04:13Z</time>
      </trkpt>
      <trkpt lat="48.01785" lon="7.55268">
        <ele>191.44</ele>
        <time>2017-01-26T08:04:21Z</time>
      </trkpt>
      <trkpt lat="48.01796" lon="7.55267">
        <ele>190.96</ele>
        <time>2017-01-26T08:04:27Z</time>
      </trkpt>
      <trkpt lat="48.01808" lon="7.55266">
        <ele>190.96</ele>
        <time>2017-01-26T08:04:34Z</time>
      </trkpt>
      <trkpt lat="48.01819" lon="7.55265">
        <ele>191.44</ele>
        <time>2017-01-26T08:04:41Z</time>
      </trkpt>
      <trkpt lat="48.0183" lon="7.55262">
        <ele>191.92</ele>
        <time>2017-01-26T08:04:49Z</time>
      </trkpt>
      <trkpt lat="48.01842" lon="7.5526">
        <ele>191.92</ele>
        <time>2017-01-26T08:04:58Z</time>
      </trkpt>
      <trkpt lat="48.01853" lon="7.55259">
        <ele>192.4</ele>
        <time>2017-01-26T08:05:06Z</time>
      </trkpt>
      <trkpt lat="48.0186" lon="7.55245">
        <ele>192.88</ele>
        <time>2017-01-26T08:05:13Z</time>
      </trkpt>
      <trkpt lat="48.01864" lon="7.55232">
        <ele>192.88</ele>
        <time>2017-01-26T08:05:19Z</time>
      </trkpt>
      <trkpt lat="48.01865" lon="7.55216">
        <ele>192.88</ele>
        <time>2017-01-26T08:05:29Z</time>
      </trkpt>
      <trkpt lat="48.01864" lon="7.55197">
        <ele>193.36</ele>
        <time>2017-01-26T08:05:37Z</time>
      </trkpt>
      <trkpt lat="48.01863" lon="7.55178">
        <ele>192.88</ele>
        <time>2017-01-26T08:05:46Z</time>
      </trkpt>
      <trkpt lat="48.01863" lon="7.55159">
        <ele>193.36</ele>
        <time>2017-01-26T08:05:56Z</time>
      </trkpt>
      <trkpt lat="48.01862" lon="7.55139">
        <ele>192.88</ele>
        <time>2017-01-26T08:06:05Z</time>
      </trkpt>
      <trkpt lat="48.01862" lon="7.55118">
        <ele>193.36</ele>
        <time>2017-01-26T08:06:15Z</time>
      </trkpt>
      <trkpt lat="48.01862" lon="7.55097">
        <ele>192.88</ele>
        <time>2017-01-26T08:06:24Z</time>
      </trkpt>
      <trkpt lat="48.01862" lon="7.55076">
        <ele>193.84</ele>
        <time>2017-01-26T08:06:33Z</time>
      </trkpt>
      <trkpt lat="48.01861" lon="7.55057">
        <ele>194.32</ele>
        <time>2017-01-26T08:06:41Z</time>
      </trkpt>
      <trkpt lat="48.01861" lon="7.55038">
        <ele>194.8</ele>
        <time>2017-01-26T08:06:50Z</time>
      </trkpt>
      <trkpt lat="48.01861" lon="7.55021">
        <ele>194.32</ele>
        <time>2017-01-26T08:06:58Z</time>
      </trkpt>
      <trkpt lat="48.01862" lon="7.55004">
        <ele>194.32</ele>
        <time>2017-01-26T08:07:05Z</time>
      </trkpt>
      <trkpt lat="48.01862" lon="7.54985">
        <ele>194.8</ele>
        <time>2017-01-26T08:07:14Z</time>
      </trkpt>
      <trkpt lat="48.01861" lon="7.54967">
        <ele>195.28</ele>
        <time>2017-01-26T08:07:22Z</time>
      </trkpt>
      <trkpt lat="48.0186" lon="7.54951">
        <ele>195.28</ele>
        <time>2017-01-26T08:07:29Z</time>
      </trkpt>
      <trkpt lat="48.0186" lon="7.54935">
        <ele>194.8</ele>
        <time>2017-01-26T08:07:37Z</time>
      </trkpt>
      <trkpt lat="48.01861" lon="7.54916">
        <ele>195.77</ele>
        <time>2017-01-26T08:07:46Z</time>
      </trkpt>
      <trkpt lat="48.01861" lon="7.54898">
        <ele>196.25</ele>
        <time>2017-01-26T08:07:53Z</time>
      </trkpt>
      <trkpt lat="48.01861" lon="7.54881">
        <ele>195.77</ele>
        <time>2017-01-26T08:08:01Z</time>
      </trkpt>
      <trkpt lat="48.0186" lon="7.54866">
        <ele>195.77</ele>
        <time>2017-01-26T08:08:08Z</time>
      </trkpt>
      <trkpt lat="48.01861" lon="7.54849">
        <ele>195.77</ele>
        <time>2017-01-26T08:08:16Z</time>
      </trkpt>
      <trkpt lat="48.01861" lon="7.54833">
        <ele>196.25</ele>
        <time>2017-01-26T08:08:24Z</time>
      </trkpt>
      <trkpt lat="48.01861" lon="7.54816">
        <ele>196.25</ele>
        <time>2017-01-26T08:08:32Z</time>
      </trkpt>
      <trkpt lat="48.01861" lon="7.54798">
        <ele>196.25</ele>
        <time>2017-01-26T08:08:40Z</time>
      </trkpt>
      <trkpt lat="48.01859" lon="7.54782">
        <ele>196.73</ele>
        <time>2017-01-26T08:08:48Z</time>
      </trkpt>
      <trkpt lat="48.01858" lon="7.54766">
        <ele>196.25</ele>
        <time>2017-01-26T08:08:55Z</time>
      </trkpt>
      <trkpt lat="48.01858" lon="7.5475">
        <ele>196.73</ele>
        <time>2017-01-26T08:09:02Z</time>
      </trkpt>
      <trkpt lat="48.01858" lon="7.54733">
        <ele>196.25</ele>
        <time>2017-01-26T08:09:09Z</time>
      </trkpt>
      <trkpt lat="48.01858" lon="7.54716">
        <ele>196.73</ele>
        <time>2017-01-26T08:09:16Z</time>
      </trkpt>
      <trkpt lat="48.01857" lon="7.547">
        <ele>196.25</ele>
        <time>2017-01-26T08:09:24Z</time>
      </trkpt>
      <trkpt lat="48.01857" lon="7.54681">
        <ele>196.73</ele>
        <time>2017-01-26T08:09:32Z</time>
      </trkpt>
      <trkpt lat="48.01857" lon="7.54664">
        <ele>196.73</ele>
        <time>2017-01-26T08:09:40Z</time>
      </trkpt>
      <trkpt lat="48.01857" lon="7.54646">
        <ele>196.25</ele>
        <time>2017-01-26T08:09:48Z</time>
      </trkpt>
      <trkpt lat="48.01857" lon="7.5463">
        <ele>197.21</ele>
        <time>2017-01-26T08:09:55Z</time>
      </trkpt>
      <trkpt lat="48.01856" lon="7.54614">
        <ele>196.73</ele>
        <time>2017-01-26T08:10:02Z</time>
      </trkpt>
      <trkpt lat="48.01858" lon="7.54598">
        <ele>197.21</ele>
        <time>2017-01-26T08:10:10Z</time>
      </trkpt>
      <trkpt lat="48.01858" lon="7.54581">
        <ele>197.69</ele>
        <time>2017-01-26T08:10:18Z</time>
      </trkpt>
      <trkpt lat="48.01859" lon="7.54565">
        <ele>197.21</ele>
        <time>2017-01-26T08:10:26Z</time>
      </trkpt>
      <trkpt lat="48.0186" lon="7.5455">
        <ele>197.21</ele>
        <time>2017-01-26T08:10:38Z</time>
      </trkpt>
      <trkpt lat="48.0186" lon="7.54534">
        <ele>197.21</ele>
        <time>2017-01-26T08:10:45Z</time>
      </trkpt>
      <trkpt lat="48.01859" lon="7.54515">
        <ele>197.21</ele>
        <time>2017-01-26T08:10:53Z</time>
      </trkpt>
      <trkpt lat="48.01858" lon="7.545">
        <ele>197.21</ele>
        <time>2017-01-26T08:11:00Z</time>
      </trkpt>
      <trkpt lat="48.01857" lon="7.54483">
        <ele>197.69</ele>
        <time>2017-01-26T08:11:08Z</time>
      </trkpt>
      <trkpt lat="48.01855" lon="7.54468">
        <ele>197.21</ele>
        <time>2017-01-26T08:11:15Z</time>
      </trkpt>
      <trkpt lat="48.01854" lon="7.54452">
        <ele>197.69</ele>
        <time>2017-01-26T08:11:22Z</time>
      </trkpt>
      <trkpt lat="48.01854" lon="7.54435">
        <ele>197.69</ele>
        <time>2017-01-26T08:11:30Z</time>
      </trkpt>
      <trkpt lat="48.01853" lon="7.5442">
        <ele>197.69</ele>
        <time>2017-01-26T08:11:37Z</time>
      </trkpt>
      <trkpt lat="48.01853" lon="7.54405">
        <ele>197.69</ele>
        <time>2017-01-26T08:11:44Z</time>
      </trkpt>
      <trkpt lat="48.01852" lon="7.54389">
        <ele>197.69</ele>
        <time>2017-01-26T08:11:51Z</time>
      </trkpt>
      <trkpt lat="48.01852" lon="7.54373">
        <ele>197.69</ele>
        <time>2017-01-26T08:11:59Z</time>
      </trkpt>
      <trkpt lat="48.01852" lon="7.54356">
        <ele>198.17</ele>
        <time>2017-01-26T08:12:06Z</time>
      </trkpt>
      <trkpt lat="48.01851" lon="7.5434">
        <ele>198.17</ele>
        <time>2017-01-26T08:12:13Z</time>
      </trkpt>
      <trkpt lat="48.01852" lon="7.54325">
        <ele>198.17</ele>
        <time>2017-01-26T08:12:20Z</time>
      </trkpt>
      <trkpt lat="48.01852" lon="7.54309">
        <ele>198.65</ele>
        <time>2017-01-26T08:12:28Z</time>
      </trkpt>
      <trkpt lat="48.01851" lon="7.54292">
        <ele>198.17</ele>
        <time>2017-01-26T08:12:35Z</time>
      </trkpt>
      <trkpt lat="48.01851" lon="7.54278">
        <ele>198.65</ele>
        <time>2017-01-26T08:12:41Z</time>
      </trkpt>
      <trkpt lat="48.01852" lon="7.54259">
        <ele>198.17</ele>
        <time>2017-01-26T08:12:49Z</time>
      </trkpt>
      <trkpt lat="48.01852" lon="7.54244">
        <ele>198.17</ele>
        <time>2017-01-26T08:12:57Z</time>
      </trkpt>
      <trkpt lat="48.01855" lon="7.54229">
        <ele>198.65</ele>
        <time>2017-01-26T08:13:04Z</time>
      </trkpt>
      <trkpt lat="48.01856" lon="7.54216">
        <ele>198.65</ele>
        <time>2017-01-26T08:13:10Z</time>
      </trkpt>
      <trkpt lat="48.01856" lon="7.54202">
        <ele>198.17</ele>
        <time>2017-01-26T08:13:17Z</time>
      </trkpt>
      <trkpt lat="48.01856" lon="7.54186">
        <ele>197.69</ele>
        <time>2017-01-26T08:13:24Z</time>
      </trkpt>
      <trkpt lat="48.01856" lon="7.54171">
        <ele>197.69</ele>
        <time>2017-01-26T08:13:31Z</time>
      </trkpt>
      <trkpt lat="48.01856" lon="7.54156">
        <ele>197.69</ele>
        <time>2017-01-26T08:13:39Z</time>
      </trkpt>
      <trkpt lat="48.01856" lon="7.54142">
        <ele>198.17</ele>
        <time>2017-01-26T08:13:45Z</time>
      </trkpt>
      <trkpt lat="48.01856" lon="7.54127">
        <ele>198.17</ele>
        <time>2017-01-26T08:13:52Z</time>
      </trkpt>
      <trkpt lat="48.01854" lon="7.54111">
        <ele>198.17</ele>
        <time>2017-01-26T08:13:59Z</time>
      </trkpt>
      <trkpt lat="48.01856" lon="7.54095">
        <ele>197.69</ele>
        <time>2017-01-26T08:14:07Z</time>
      </trkpt>
      <trkpt lat="48.01855" lon="7.5408">
        <ele>198.17</ele>
        <time>2017-01-26T08:14:14Z</time>
      </trkpt>
      <trkpt lat="48.01856" lon="7.54064">
        <ele>198.17</ele>
        <time>2017-01-26T08:14:21Z</time>
      </trkpt>
      <trkpt lat="48.01856" lon="7.5405">
        <ele>198.17</ele>
        <time>2017-01-26T08:14:28Z</time>
      </trkpt>
      <trkpt lat="48.01856" lon="7.54032">
        <ele>198.65</ele>
        <time>2017-01-26T08:14:36Z</time>
      </trkpt>
      <trkpt lat="48.01856" lon="7.54015">
        <ele>197.69</ele>
        <time>2017-01-26T08:14:44Z</time>
      </trkpt>
      <trkpt lat="48.01855" lon="7.54">
        <ele>199.13</ele>
        <time>2017-01-26T08:14:51Z</time>
      </trkpt>
      <trkpt lat="48.01855" lon="7.53984">
        <ele>197.69</ele>
        <time>2017-01-26T08:14:58Z</time>
      </trkpt>
      <trkpt lat="48.01855" lon="7.53969">
        <ele>198.65</ele>
        <time>2017-01-26T08:15:06Z</time>
      </trkpt>
      <trkpt lat="48.01856" lon="7.53951">
        <ele>198.65</ele>
        <time>2017-01-26T08:15:16Z</time>
      </trkpt>
      <trkpt lat="48.01856" lon="7.53933">
        <ele>198.65</ele>
        <time>2017-01-26T08:15:24Z</time>
      </trkpt>
      <trkpt lat="48.01854" lon="7.53918">
        <ele>198.17</ele>
        <time>2017-01-26T08:15:30Z</time>
      </trkpt>
      <trkpt lat="48.01855" lon="7.53903">
        <ele>198.17</ele>
        <time>2017-01-26T08:15:39Z</time>
      </trkpt>
      <trkpt lat="48.01855" lon="7.53891">
        <ele>198.17</ele>
        <time>2017-01-26T08:15:49Z</time>
      </trkpt>
      <trkpt lat="48.01856" lon="7.53878">
        <ele>198.65</ele>
        <time>2017-01-26T08:15:56Z</time>
      </trkpt>
      <trkpt lat="48.01858" lon="7.53866">
        <ele>196.73</ele>
        <time>2017-01-26T08:16:01Z</time>
      </trkpt>
      <trkpt lat="48.01859" lon="7.53852">
        <ele>199.61</ele>
        <time>2017-01-26T08:16:09Z</time>
      </trkpt>
      <trkpt lat="48.01861" lon="7.53836">
        <ele>198.17</ele>
        <time>2017-01-26T08:16:17Z</time>
      </trkpt>
      <trkpt lat="48.01862" lon="7.53819">
        <ele>199.61</ele>
        <time>2017-01-26T08:16:25Z</time>
      </trkpt>
      <trkpt lat="48.01861" lon="7.53804">
        <ele>198.65</ele>
        <time>2017-01-26T08:16:31Z</time>
      </trkpt>
      <trkpt lat="48.01862" lon="7.5379">
        <ele>198.65</ele>
        <time>2017-01-26T08:16:37Z</time>
      </trkpt>
      <trkpt lat="48.01862" lon="7.53777">
        <ele>198.65</ele>
        <time>2017-01-26T08:16:42Z</time>
      </trkpt>
      <trkpt lat="48.01863" lon="7.53764">
        <ele>198.65</ele>
        <time>2017-01-26T08:16:48Z</time>
      </trkpt>
      <trkpt lat="48.01865" lon="7.53751">
        <ele>199.61</ele>
        <time>2017-01-26T08:16:54Z</time>
      </trkpt>
      <trkpt lat="48.01868" lon="7.53738">
        <ele>199.13</ele>
        <time>2017-01-26T08:17:02Z</time>
      </trkpt>
      <trkpt lat="48.01868" lon="7.53723">
        <ele>199.13</ele>
        <time>2017-01-26T08:17:10Z</time>
      </trkpt>
      <trkpt lat="48.01868" lon="7.53708">
        <ele>198.65</ele>
        <time>2017-01-26T08:17:23Z</time>
      </trkpt>
      <trkpt lat="48.0187" lon="7.53692">
        <ele>199.13</ele>
        <time>2017-01-26T08:17:31Z</time>
      </trkpt>
      <trkpt lat="48.01871" lon="7.53677">
        <ele>199.13</ele>
        <time>2017-01-26T08:17:38Z</time>
      </trkpt>
      <trkpt lat="48.01872" lon="7.53654">
        <ele>199.13</ele>
        <time>2017-01-26T08:17:49Z</time>
      </trkpt>
      <trkpt lat="48.01874" lon="7.53635">
        <ele>199.13</ele>
        <time>2017-01-26T08:17:57Z</time>
      </trkpt>
      <trkpt lat="48.01876" lon="7.53617">
        <ele>199.13</ele>
        <time>2017-01-26T08:18:04Z</time>
      </trkpt>
      <trkpt lat="48.01878" lon="7.53598">
        <ele>199.13</ele>
        <time>2017-01-26T08:18:12Z</time>
      </trkpt>
      <trkpt lat="48.01882" lon="7.53579">
        <ele>199.13</ele>
        <time>2017-01-26T08:18:21Z</time>
      </trkpt>
      <trkpt lat="48.01883" lon="7.53561">
        <ele>199.61</ele>
        <time>2017-01-26T08:18:29Z</time>
      </trkpt>
      <trkpt lat="48.01883" lon="7.53545">
        <ele>197.21</ele>
        <time>2017-01-26T08:18:36Z</time>
      </trkpt>
      <trkpt lat="48.01884" lon="7.53531">
        <ele>199.13</ele>
        <time>2017-01-26T08:18:43Z</time>
      </trkpt>
      <trkpt lat="48.01888" lon="7.53512">
        <ele>199.13</ele>
        <time>2017-01-26T08:18:53Z</time>
      </trkpt>
      <trkpt lat="48.01891" lon="7.53495">
        <ele>198.65</ele>
        <time>2017-01-26T08:19:00Z</time>
      </trkpt>
      <trkpt lat="48.01894" lon="7.5348">
        <ele>199.13</ele>
        <time>2017-01-26T08:19:06Z</time>
      </trkpt>
      <trkpt lat="48.01897" lon="7.53468">
        <ele>199.61</ele>
        <time>2017-01-26T08:19:11Z</time>
      </trkpt>
      <trkpt lat="48.01899" lon="7.53452">
        <ele>198.65</ele>
        <time>2017-01-26T08:19:17Z</time>
      </trkpt>
      <trkpt lat="48.01902" lon="7.53439">
        <ele>198.65</ele>
        <time>2017-01-26T08:19:22Z</time>
      </trkpt>
      <trkpt lat="48.01903" lon="7.53428">
        <ele>200.09</ele>
        <time>2017-01-26T08:19:26Z</time>
      </trkpt>
      <trkpt lat="48.01906" lon="7.53416">
        <ele>199.13</ele>
        <time>2017-01-26T08:19:32Z</time>
      </trkpt>
      <trkpt lat="48.01909" lon="7.53406">
        <ele>201.05</ele>
        <time>2017-01-26T08:19:36Z</time>
      </trkpt>
      <trkpt lat="48.01912" lon="7.53396">
        <ele>198.65</ele>
        <time>2017-01-26T08:19:41Z</time>
      </trkpt>
      <trkpt lat="48.01916" lon="7.53387">
        <ele>199.13</ele>
        <time>2017-01-26T08:19:46Z</time>
      </trkpt>
      <trkpt lat="48.01919" lon="7.53377">
        <ele>199.13</ele>
        <time>2017-01-26T08:19:51Z</time>
      </trkpt>
      <trkpt lat="48.01923" lon="7.53366">
        <ele>199.61</ele>
        <time>2017-01-26T08:19:58Z</time>
      </trkpt>
      <trkpt lat="48.01927" lon="7.53353">
        <ele>199.61</ele>
        <time>2017-01-26T08:20:05Z</time>
      </trkpt>
      <trkpt lat="48.01932" lon="7.53343">
        <ele>199.13</ele>
        <time>2017-01-26T08:20:11Z</time>
      </trkpt>
      <trkpt lat="48.01938" lon="7.53329">
        <ele>199.61</ele>
        <time>2017-01-26T08:20:19Z</time>
      </trkpt>
      <trkpt lat="48.01945" lon="7.53312">
        <ele>200.09</ele>
        <time>2017-01-26T08:20:28Z</time>
      </trkpt>
      <trkpt lat="48.01951" lon="7.53295">
        <ele>198.65</ele>
        <time>2017-01-26T08:20:37Z</time>
      </trkpt>
      <trkpt lat="48.01959" lon="7.53281">
        <ele>199.13</ele>
        <time>2017-01-26T08:20:45Z</time>
      </trkpt>
      <trkpt lat="48.01966" lon="7.53266">
        <ele>199.13</ele>
        <time>2017-01-26T08:20:53Z</time>
      </trkpt>
      <trkpt lat="48.01972" lon="7.53255">
        <ele>199.13</ele>
        <time>2017-01-26T08:20:59Z</time>
      </trkpt>
      <trkpt lat="48.01977" lon="7.53243">
        <ele>199.13</ele>
        <time>2017-01-26T08:21:04Z</time>
      </trkpt>
      <trkpt lat="48.01983" lon="7.53232">
        <ele>199.61</ele>
        <time>2017-01-26T08:21:09Z</time>
      </trkpt>
      <trkpt lat="48.01988" lon="7.53221">
        <ele>199.61</ele>
        <time>2017-01-26T08:21:14Z</time>
      </trkpt>
      <trkpt lat="48.01992" lon="7.53209">
        <ele>200.09</ele>
        <time>2017-01-26T08:21:21Z</time>
      </trkpt>
      <trkpt lat="48.01996" lon="7.53198">
        <ele>200.57</ele>
        <time>2017-01-26T08:21:29Z</time>
      </trkpt>
      <trkpt lat="48.01998" lon="7.53182">
        <ele>199.13</ele>
        <time>2017-01-26T08:21:38Z</time>
      </trkpt>
      <trkpt lat="48.02004" lon="7.53167">
        <ele>199.61</ele>
        <time>2017-01-26T08:21:47Z</time>
      </trkpt>
      <trkpt lat="48.02012" lon="7.53155">
        <ele>201.05</ele>
        <time>2017-01-26T08:21:55Z</time>
      </trkpt>
      <trkpt lat="48.02018" lon="7.5314">
        <ele>198.17</ele>
        <time>2017-01-26T08:22:04Z</time>
      </trkpt>
      <trkpt lat="48.02021" lon="7.53125">
        <ele>198.17</ele>
        <time>2017-01-26T08:22:12Z</time>
      </trkpt>
      <trkpt lat="48.02015" lon="7.53114">
        <ele>198.65</ele>
        <time>2017-01-26T08:22:58Z</time>
      </trkpt>
      <trkpt lat="48.02007" lon="7.53103">
        <ele>198.17</ele>
        <time>2017-01-26T08:23:06Z</time>
      </trkpt>
      <trkpt lat="48.01998" lon="7.53094">
        <ele>198.17</ele>
        <time>2017-01-26T08:23:14Z</time>
      </trkpt>
      <trkpt lat="48.0199" lon="7.53084">
        <ele>198.65</ele>
        <time>2017-01-26T08:23:22Z</time>
      </trkpt>
      <trkpt lat="48.01982" lon="7.53074">
        <ele>198.65</ele>
        <time>2017-01-26T08:23:29Z</time>
      </trkpt>
      <trkpt lat="48.01973" lon="7.53064">
        <ele>198.65</ele>
        <time>2017-01-26T08:23:36Z</time>
      </trkpt>
      <trkpt lat="48.01966" lon="7.53055">
        <ele>198.17</ele>
        <time>2017-01-26T08:23:43Z</time>
      </trkpt>
      <trkpt lat="48.01959" lon="7.53045">
        <ele>198.17</ele>
        <time>2017-01-26T08:23:51Z</time>
      </trkpt>
      <trkpt lat="48.0195" lon="7.53037">
        <ele>198.65</ele>
        <time>2017-01-26T08:23:58Z</time>
      </trkpt>
      <trkpt lat="48.01939" lon="7.53032">
        <ele>198.65</ele>
        <time>2017-01-26T08:24:05Z</time>
      </trkpt>
      <trkpt lat="48.01935" lon="7.5302">
        <ele>198.65</ele>
        <time>2017-01-26T08:24:14Z</time>
      </trkpt>
      <trkpt lat="48.01929" lon="7.53009">
        <ele>198.65</ele>
        <time>2017-01-26T08:24:23Z</time>
      </trkpt>
      <trkpt lat="48.01915" lon="7.52997">
        <ele>198.65</ele>
        <time>2017-01-26T08:24:32Z</time>
      </trkpt>
      <trkpt lat="48.01906" lon="7.52989">
        <ele>199.13</ele>
        <time>2017-01-26T08:24:40Z</time>
      </trkpt>
      <trkpt lat="48.01896" lon="7.52981">
        <ele>198.65</ele>
        <time>2017-01-26T08:24:48Z</time>
      </trkpt>
      <trkpt lat="48.01885" lon="7.52968">
        <ele>198.65</ele>
        <time>2017-01-26T08:25:00Z</time>
      </trkpt>
      <trkpt lat="48.01882" lon="7.52947">
        <ele>198.65</ele>
        <time>2017-01-26T08:25:14Z</time>
      </trkpt>
      <trkpt lat="48.01873" lon="7.52931">
        <ele>199.13</ele>
        <time>2017-01-26T08:25:27Z</time>
      </trkpt>
      <trkpt lat="48.01869" lon="7.52906">
        <ele>199.13</ele>
        <time>2017-01-26T08:25:40Z</time>
      </trkpt>
      <trkpt lat="48.01865" lon="7.52884">
        <ele>198.65</ele>
        <time>2017-01-26T08:25:53Z</time>
      </trkpt>
      <trkpt lat="48.01849" lon="7.52877">
        <ele>197.69</ele>
        <time>2017-01-26T08:26:20Z</time>
      </trkpt>
      <trkpt lat="48.0185" lon="7.5287">
        <ele>197.69</ele>
        <time>2017-01-26T08:26:29Z</time>
      </trkpt>
      <trkpt lat="48.01855" lon="7.52859">
        <ele>197.69</ele>
        <time>2017-01-26T08:26:37Z</time>
      </trkpt>
      <trkpt lat="48.01859" lon="7.52832">
        <ele>197.69</ele>
        <time>2017-01-26T08:26:46Z</time>
      </trkpt>
      <trkpt lat="48.01856" lon="7.52814">
        <ele>197.69</ele>
        <time>2017-01-26T08:26:55Z</time>
      </trkpt>
      <trkpt lat="48.01853" lon="7.52796">
        <ele>197.69</ele>
        <time>2017-01-26T08:27:06Z</time>
      </trkpt>
      <trkpt lat="48.01846" lon="7.52783">
        <ele>197.21</ele>
        <time>2017-01-26T08:27:16Z</time>
      </trkpt>
      <trkpt lat="48.01832" lon="7.52771">
        <ele>196.73</ele>
        <time>2017-01-26T08:27:28Z</time>
      </trkpt>
      <trkpt lat="48.0182" lon="7.52763">
        <ele>197.21</ele>
        <time>2017-01-26T08:27:37Z</time>
      </trkpt>
      <trkpt lat="48.01811" lon="7.52749">
        <ele>196.73</ele>
        <time>2017-01-26T08:27:50Z</time>
      </trkpt>
      <trkpt lat="48.01801" lon="7.52733">
        <ele>196.73</ele>
        <time>2017-01-26T08:28:00Z</time>
      </trkpt>
      <trkpt lat="48.01789" lon="7.52724">
        <ele>197.21</ele>
        <time>2017-01-26T08:28:12Z</time>
      </trkpt>
      <trkpt lat="48.01775" lon="7.52725">
        <ele>197.21</ele>
        <time>2017-01-26T08:28:20Z</time>
      </trkpt>
      <trkpt lat="48.01759" lon="7.52726">
        <ele>196.73</ele>
        <time>2017-01-26T08:28:29Z</time>
      </trkpt>
      <trkpt lat="48.01751" lon="7.52737">
        <ele>196.73</ele>
        <time>2017-01-26T08:28:43Z</time>
      </trkpt>
      <trkpt lat="48.01743" lon="7.52746">
        <ele>196.73</ele>
        <time>2017-01-26T08:28:54Z</time>
      </trkpt>
      <trkpt lat="48.01737" lon="7.52763">
        <ele>196.73</ele>
        <time>2017-01-26T08:29:02Z</time>
      </trkpt>
      <trkpt lat="48.01728" lon="7.52778">
        <ele>198.17</ele>
        <time>2017-01-26T08:29:38Z</time>
      </trkpt>
      <trkpt lat="48.01728" lon="7.52772">
        <ele>197.21</ele>
        <time>2017-01-26T08:29:55Z</time>
      </trkpt>
      <trkpt lat="48.0173" lon="7.52761">
        <ele>197.69</ele>
        <time>2017-01-26T08:30:09Z</time>
      </trkpt>
      <trkpt lat="48.01728" lon="7.52746">
        <ele>197.69</ele>
        <time>2017-01-26T08:30:16Z</time>
      </trkpt>
      <trkpt lat="48.01729" lon="7.52732">
        <ele>197.69</ele>
        <time>2017-01-26T08:30:22Z</time>
      </trkpt>
      <trkpt lat="48.0174" lon="7.52732">
        <ele>197.21</ele>
        <time>2017-01-26T08:30:35Z</time>
      </trkpt>
      <trkpt lat="48.01735" lon="7.52766">
        <ele>196.73</ele>
        <time>2017-01-26T08:31:04Z</time>
      </trkpt>
      <trkpt lat="48.01715" lon="7.52802">
        <ele>195.77</ele>
        <time>2017-01-26T08:31:26Z</time>
      </trkpt>
      <trkpt lat="48.01705" lon="7.52824">
        <ele>196.25</ele>
        <time>2017-01-26T08:31:43Z</time>
      </trkpt>
      <trkpt lat="48.01695" lon="7.5284">
        <ele>195.77</ele>
        <time>2017-01-26T08:31:58Z</time>
      </trkpt>
      <trkpt lat="48.01689" lon="7.52844">
        <ele>196.73</ele>
        <time>2017-01-26T08:32:26Z</time>
      </trkpt>
      <trkpt lat="48.01681" lon="7.52838">
        <ele>196.25</ele>
        <time>2017-01-26T08:32:47Z</time>
      </trkpt>
      <trkpt lat="48.0168" lon="7.52836">
        <ele>196.73</ele>
        <time>2017-01-26T08:32:53Z</time>
      </trkpt>
      <trkpt lat="48.01712" lon="7.52839">
        <ele>196.25</ele>
        <time>2017-01-26T08:37:10Z</time>
      </trkpt>
      <trkpt lat="48.01698" lon="7.52839">
        <ele>195.77</ele>
        <time>2017-01-26T08:37:39Z</time>
      </trkpt>
      <trkpt lat="48.01692" lon="7.52843">
        <ele>196.25</ele>
        <time>2017-01-26T08:38:24Z</time>
      </trkpt>
      <trkpt lat="48.01686" lon="7.52849">
        <ele>196.25</ele>
        <time>2017-01-26T08:39:33Z</time>
      </trkpt>
      <trkpt lat="48.01693" lon="7.52848">
        <ele>196.25</ele>
        <time>2017-01-26T08:39:48Z</time>
      </trkpt>
      <trkpt lat="48.01692" lon="7.52849">
        <ele>196.25</ele>
        <time>2017-01-26T08:40:09Z</time>
      </trkpt>
      <trkpt lat="48.01683" lon="7.52847">
        <ele>196.73</ele>
        <time>2017-01-26T08:40:31Z</time>
      </trkpt>
      <trkpt lat="48.01682" lon="7.52851">
        <ele>196.25</ele>
        <time>2017-01-26T08:41:02Z</time>
      </trkpt>
      <trkpt lat="48.01678" lon="7.52851">
        <ele>196.73</ele>
        <time>2017-01-26T08:41:24Z</time>
      </trkpt>
      <trkpt lat="48.01683" lon="7.52857">
        <ele>196.73</ele>
        <time>2017-01-26T08:41:59Z</time>
      </trkpt>
      <trkpt lat="48.01691" lon="7.52861">
        <ele>196.73</ele>
        <time>2017-01-26T08:42:18Z</time>
      </trkpt>
      <trkpt lat="48.01696" lon="7.52854">
        <ele>196.73</ele>
        <time>2017-01-26T08:42:48Z</time>
      </trkpt>
      <trkpt lat="48.01696" lon="7.52837">
        <ele>196.73</ele>
        <time>2017-01-26T08:43:00Z</time>
      </trkpt>
      <trkpt lat="48.01704" lon="7.52846">
        <ele>197.21</ele>
        <time>2017-01-26T08:43:13Z</time>
      </trkpt>
      <trkpt lat="48.017" lon="7.5286">
        <ele>197.21</ele>
        <time>2017-01-26T08:43:32Z</time>
      </trkpt>
      <trkpt lat="48.01703" lon="7.52858">
        <ele>197.21</ele>
        <time>2017-01-26T08:44:20Z</time>
      </trkpt>
      <trkpt lat="48.01709" lon="7.52859">
        <ele>197.21</ele>
        <time>2017-01-26T08:44:34Z</time>
      </trkpt>
      <trkpt lat="48.01693" lon="7.52856">
        <ele>197.21</ele>
        <time>2017-01-26T08:45:16Z</time>
      </trkpt>
      <trkpt lat="48.01694" lon="7.52853">
        <ele>197.69</ele>
        <time>2017-01-26T08:46:03Z</time>
      </trkpt>
      <trkpt lat="48.01708" lon="7.52852">
        <ele>199.61</ele>
        <time>2017-01-26T08:58:19Z</time>
      </trkpt>
      <trkpt lat="48.01707" lon="7.52859">
        <ele>199.13</ele>
        <time>2017-01-26T08:58:28Z</time>
      </trkpt>
      <trkpt lat="48.01706" lon="7.5285">
        <ele>199.13</ele>
        <time>2017-01-26T08:58:40Z</time>
      </trkpt>
      <trkpt lat="48.01713" lon="7.52861">
        <ele>199.61</ele>
        <time>2017-01-26T08:58:52Z</time>
      </trkpt>
      <trkpt lat="48.01721" lon="7.52872">
        <ele>200.09</ele>
        <time>2017-01-26T08:59:02Z</time>
      </trkpt>
      <trkpt lat="48.01728" lon="7.52884">
        <ele>200.09</ele>
        <time>2017-01-26T08:59:12Z</time>
      </trkpt>
      <trkpt lat="48.01737" lon="7.52898">
        <ele>199.61</ele>
        <time>2017-01-26T08:59:22Z</time>
      </trkpt>
      <trkpt lat="48.01745" lon="7.5291">
        <ele>200.09</ele>
        <time>2017-01-26T08:59:32Z</time>
      </trkpt>
      <trkpt lat="48.01745" lon="7.52921">
        <ele>200.09</ele>
        <time>2017-01-26T08:59:38Z</time>
      </trkpt>
      <trkpt lat="48.01756" lon="7.52926">
        <ele>202.01</ele>
        <time>2017-01-26T08:59:45Z</time>
      </trkpt>
      <trkpt lat="48.01766" lon="7.52933">
        <ele>199.61</ele>
        <time>2017-01-26T08:59:53Z</time>
      </trkpt>
      <trkpt lat="48.01777" lon="7.52931">
        <ele>199.61</ele>
        <time>2017-01-26T09:00:01Z</time>
      </trkpt>
      <trkpt lat="48.01788" lon="7.52927">
        <ele>201.53</ele>
        <time>2017-01-26T09:00:09Z</time>
      </trkpt>
      <trkpt lat="48.01799" lon="7.5293">
        <ele>199.61</ele>
        <time>2017-01-26T09:00:19Z</time>
      </trkpt>
      <trkpt lat="48.0181" lon="7.52923">
        <ele>199.61</ele>
        <time>2017-01-26T09:00:29Z</time>
      </trkpt>
      <trkpt lat="48.01819" lon="7.52909">
        <ele>200.09</ele>
        <time>2017-01-26T09:00:38Z</time>
      </trkpt>
      <trkpt lat="48.01827" lon="7.52898">
        <ele>199.61</ele>
        <time>2017-01-26T09:00:47Z</time>
      </trkpt>
      <trkpt lat="48.01835" lon="7.52908">
        <ele>199.61</ele>
        <time>2017-01-26T09:00:55Z</time>
      </trkpt>
      <trkpt lat="48.01843" lon="7.52915">
        <ele>199.61</ele>
        <time>2017-01-26T09:01:02Z</time>
      </trkpt>
      <trkpt lat="48.01852" lon="7.52923">
        <ele>198.65</ele>
        <time>2017-01-26T09:01:10Z</time>
      </trkpt>
      <trkpt lat="48.01857" lon="7.52922">
        <ele>199.13</ele>
        <time>2017-01-26T09:01:26Z</time>
      </trkpt>
      <trkpt lat="48.01857" lon="7.5292">
        <ele>197.69</ele>
        <time>2017-01-26T09:02:23Z</time>
      </trkpt>
      <trkpt lat="48.01859" lon="7.52927">
        <ele>198.17</ele>
        <time>2017-01-26T09:03:51Z</time>
      </trkpt>
      <trkpt lat="48.01863" lon="7.52936">
        <ele>197.69</ele>
        <time>2017-01-26T09:03:58Z</time>
      </trkpt>
      <trkpt lat="48.01873" lon="7.52948">
        <ele>198.17</ele>
        <time>2017-01-26T09:04:07Z</time>
      </trkpt>
      <trkpt lat="48.01884" lon="7.52961">
        <ele>198.17</ele>
        <time>2017-01-26T09:04:15Z</time>
      </trkpt>
      <trkpt lat="48.01894" lon="7.52975">
        <ele>197.21</ele>
        <time>2017-01-26T09:04:22Z</time>
      </trkpt>
      <trkpt lat="48.01903" lon="7.52986">
        <ele>196.25</ele>
        <time>2017-01-26T09:04:28Z</time>
      </trkpt>
      <trkpt lat="48.01915" lon="7.52996">
        <ele>196.73</ele>
        <time>2017-01-26T09:04:35Z</time>
      </trkpt>
      <trkpt lat="48.01923" lon="7.53009">
        <ele>199.61</ele>
        <time>2017-01-26T09:04:43Z</time>
      </trkpt>
      <trkpt lat="48.01931" lon="7.53022">
        <ele>199.61</ele>
        <time>2017-01-26T09:04:51Z</time>
      </trkpt>
      <trkpt lat="48.01941" lon="7.53029">
        <ele>198.17</ele>
        <time>2017-01-26T09:04:56Z</time>
      </trkpt>
      <trkpt lat="48.01947" lon="7.5304">
        <ele>198.65</ele>
        <time>2017-01-26T09:05:02Z</time>
      </trkpt>
      <trkpt lat="48.01955" lon="7.53049">
        <ele>197.69</ele>
        <time>2017-01-26T09:05:08Z</time>
      </trkpt>
      <trkpt lat="48.01965" lon="7.53055">
        <ele>197.69</ele>
        <time>2017-01-26T09:05:16Z</time>
      </trkpt>
      <trkpt lat="48.01974" lon="7.53063">
        <ele>197.69</ele>
        <time>2017-01-26T09:05:23Z</time>
      </trkpt>
      <trkpt lat="48.01983" lon="7.53072">
        <ele>196.73</ele>
        <time>2017-01-26T09:05:29Z</time>
      </trkpt>
      <trkpt lat="48.01989" lon="7.53081">
        <ele>197.69</ele>
        <time>2017-01-26T09:05:35Z</time>
      </trkpt>
      <trkpt lat="48.01997" lon="7.53089">
        <ele>199.13</ele>
        <time>2017-01-26T09:05:42Z</time>
      </trkpt>
      <trkpt lat="48.02006" lon="7.531">
        <ele>197.69</ele>
        <time>2017-01-26T09:05:49Z</time>
      </trkpt>
      <trkpt lat="48.02014" lon="7.53111">
        <ele>194.8</ele>
        <time>2017-01-26T09:05:57Z</time>
      </trkpt>
      <trkpt lat="48.02024" lon="7.53119">
        <ele>198.17</ele>
        <time>2017-01-26T09:06:04Z</time>
      </trkpt>
      <trkpt lat="48.0203" lon="7.53107">
        <ele>197.21</ele>
        <time>2017-01-26T09:06:11Z</time>
      </trkpt>
      <trkpt lat="48.02035" lon="7.53096">
        <ele>194.8</ele>
        <time>2017-01-26T09:06:18Z</time>
      </trkpt>
      <trkpt lat="48.02042" lon="7.53088">
        <ele>193.36</ele>
        <time>2017-01-26T09:06:25Z</time>
      </trkpt>
      <trkpt lat="48.02047" lon="7.53075">
        <ele>193.84</ele>
        <time>2017-01-26T09:06:33Z</time>
      </trkpt>
      <trkpt lat="48.02055" lon="7.53062">
        <ele>193.36</ele>
        <time>2017-01-26T09:06:42Z</time>
      </trkpt>
      <trkpt lat="48.02062" lon="7.53052">
        <ele>193.36</ele>
        <time>2017-01-26T09:06:49Z</time>
      </trkpt>
      <trkpt lat="48.02069" lon="7.53043">
        <ele>192.4</ele>
        <time>2017-01-26T09:06:56Z</time>
      </trkpt>
      <trkpt lat="48.02076" lon="7.53033">
        <ele>192.88</ele>
        <time>2017-01-26T09:07:03Z</time>
      </trkpt>
      <trkpt lat="48.02083" lon="7.53022">
        <ele>192.88</ele>
        <time>2017-01-26T09:07:10Z</time>
      </trkpt>
      <trkpt lat="48.02091" lon="7.53012">
        <ele>192.88</ele>
        <time>2017-01-26T09:07:18Z</time>
      </trkpt>
      <trkpt lat="48.02099" lon="7.53001">
        <ele>192.88</ele>
        <time>2017-01-26T09:07:26Z</time>
      </trkpt>
      <trkpt lat="48.02104" lon="7.52984">
        <ele>192.4</ele>
        <time>2017-01-26T09:07:33Z</time>
      </trkpt>
      <trkpt lat="48.02102" lon="7.5297">
        <ele>192.4</ele>
        <time>2017-01-26T09:07:39Z</time>
      </trkpt>
      <trkpt lat="48.021" lon="7.52954">
        <ele>192.88</ele>
        <time>2017-01-26T09:07:45Z</time>
      </trkpt>
      <trkpt lat="48.02098" lon="7.52936">
        <ele>192.4</ele>
        <time>2017-01-26T09:07:52Z</time>
      </trkpt>
      <trkpt lat="48.02095" lon="7.52924">
        <ele>192.4</ele>
        <time>2017-01-26T09:07:58Z</time>
      </trkpt>
      <trkpt lat="48.02094" lon="7.5291">
        <ele>192.88</ele>
        <time>2017-01-26T09:08:04Z</time>
      </trkpt>
      <trkpt lat="48.02092" lon="7.52896">
        <ele>191.92</ele>
        <time>2017-01-26T09:08:10Z</time>
      </trkpt>
      <trkpt lat="48.02089" lon="7.52884">
        <ele>192.4</ele>
        <time>2017-01-26T09:08:16Z</time>
      </trkpt>
      <trkpt lat="48.02086" lon="7.52869">
        <ele>192.88</ele>
        <time>2017-01-26T09:08:23Z</time>
      </trkpt>
      <trkpt lat="48.02085" lon="7.52855">
        <ele>191.92</ele>
        <time>2017-01-26T09:08:29Z</time>
      </trkpt>
      <trkpt lat="48.02083" lon="7.5284">
        <ele>192.4</ele>
        <time>2017-01-26T09:08:34Z</time>
      </trkpt>
      <trkpt lat="48.02081" lon="7.52825">
        <ele>191.92</ele>
        <time>2017-01-26T09:08:40Z</time>
      </trkpt>
      <trkpt lat="48.02079" lon="7.5281">
        <ele>192.4</ele>
        <time>2017-01-26T09:08:46Z</time>
      </trkpt>
      <trkpt lat="48.02078" lon="7.52798">
        <ele>191.92</ele>
        <time>2017-01-26T09:08:53Z</time>
      </trkpt>
      <trkpt lat="48.02077" lon="7.52783">
        <ele>192.4</ele>
        <time>2017-01-26T09:09:00Z</time>
      </trkpt>
      <trkpt lat="48.02076" lon="7.52767">
        <ele>192.4</ele>
        <time>2017-01-26T09:09:09Z</time>
      </trkpt>
      <trkpt lat="48.02076" lon="7.52754">
        <ele>192.4</ele>
        <time>2017-01-26T09:09:17Z</time>
      </trkpt>
      <trkpt lat="48.02077" lon="7.5274">
        <ele>191.92</ele>
        <time>2017-01-26T09:09:47Z</time>
      </trkpt>
      <trkpt lat="48.02077" lon="7.52724">
        <ele>192.88</ele>
        <time>2017-01-26T09:09:55Z</time>
      </trkpt>
      <trkpt lat="48.02077" lon="7.5271">
        <ele>192.4</ele>
        <time>2017-01-26T09:10:02Z</time>
      </trkpt>
      <trkpt lat="48.02079" lon="7.52694">
        <ele>191.92</ele>
        <time>2017-01-26T09:10:10Z</time>
      </trkpt>
      <trkpt lat="48.02077" lon="7.52681">
        <ele>190.48</ele>
        <time>2017-01-26T09:10:17Z</time>
      </trkpt>
      <trkpt lat="48.02078" lon="7.52666">
        <ele>192.88</ele>
        <time>2017-01-26T09:10:24Z</time>
      </trkpt>
      <trkpt lat="48.0208" lon="7.52649">
        <ele>192.88</ele>
        <time>2017-01-26T09:10:31Z</time>
      </trkpt>
      <trkpt lat="48.02082" lon="7.52634">
        <ele>192.4</ele>
        <time>2017-01-26T09:10:37Z</time>
      </trkpt>
      <trkpt lat="48.02083" lon="7.52619">
        <ele>192.4</ele>
        <time>2017-01-26T09:10:44Z</time>
      </trkpt>
      <trkpt lat="48.02082" lon="7.52604">
        <ele>192.4</ele>
        <time>2017-01-26T09:10:51Z</time>
      </trkpt>
      <trkpt lat="48.02078" lon="7.5259">
        <ele>192.88</ele>
        <time>2017-01-26T09:10:58Z</time>
      </trkpt>
      <trkpt lat="48.0207" lon="7.52581">
        <ele>193.36</ele>
        <time>2017-01-26T09:11:06Z</time>
      </trkpt>
      <trkpt lat="48.0206" lon="7.52573">
        <ele>193.36</ele>
        <time>2017-01-26T09:11:13Z</time>
      </trkpt>
      <trkpt lat="48.02052" lon="7.52566">
        <ele>192.4</ele>
        <time>2017-01-26T09:11:19Z</time>
      </trkpt>
      <trkpt lat="48.02043" lon="7.5256">
        <ele>192.88</ele>
        <time>2017-01-26T09:11:26Z</time>
      </trkpt>
      <trkpt lat="48.02035" lon="7.52552">
        <ele>192.88</ele>
        <time>2017-01-26T09:11:32Z</time>
      </trkpt>
      <trkpt lat="48.02025" lon="7.52546">
        <ele>193.36</ele>
        <time>2017-01-26T09:11:38Z</time>
      </trkpt>
      <trkpt lat="48.02017" lon="7.5254">
        <ele>192.88</ele>
        <time>2017-01-26T09:11:45Z</time>
      </trkpt>
      <trkpt lat="48.02008" lon="7.52534">
        <ele>192.4</ele>
        <time>2017-01-26T09:11:52Z</time>
      </trkpt>
      <trkpt lat="48.02001" lon="7.52525">
        <ele>192.88</ele>
        <time>2017-01-26T09:11:59Z</time>
      </trkpt>
      <trkpt lat="48.01993" lon="7.52514">
        <ele>192.4</ele>
        <time>2017-01-26T09:12:08Z</time>
      </trkpt>
      <trkpt lat="48.01986" lon="7.52502">
        <ele>192.4</ele>
        <time>2017-01-26T09:12:16Z</time>
      </trkpt>
      <trkpt lat="48.01978" lon="7.52491">
        <ele>192.88</ele>
        <time>2017-01-26T09:12:23Z</time>
      </trkpt>
      <trkpt lat="48.01971" lon="7.52482">
        <ele>192.88</ele>
        <time>2017-01-26T09:12:31Z</time>
      </trkpt>
      <trkpt lat="48.01962" lon="7.52474">
        <ele>192.88</ele>
        <time>2017-01-26T09:12:37Z</time>
      </trkpt>
      <trkpt lat="48.01955" lon="7.52463">
        <ele>192.88</ele>
        <time>2017-01-26T09:12:44Z</time>
      </trkpt>
      <trkpt lat="48.0195" lon="7.52452">
        <ele>192.88</ele>
        <time>2017-01-26T09:12:52Z</time>
      </trkpt>
      <trkpt lat="48.01943" lon="7.52442">
        <ele>193.84</ele>
        <time>2017-01-26T09:13:00Z</time>
      </trkpt>
      <trkpt lat="48.01934" lon="7.52433">
        <ele>194.32</ele>
        <time>2017-01-26T09:13:07Z</time>
      </trkpt>
      <trkpt lat="48.01925" lon="7.52426">
        <ele>194.8</ele>
        <time>2017-01-26T09:13:16Z</time>
      </trkpt>
      <trkpt lat="48.01918" lon="7.52414">
        <ele>193.36</ele>
        <time>2017-01-26T09:13:23Z</time>
      </trkpt>
      <trkpt lat="48.01913" lon="7.52402">
        <ele>192.88</ele>
        <time>2017-01-26T09:13:30Z</time>
      </trkpt>
      <trkpt lat="48.01906" lon="7.52391">
        <ele>192.88</ele>
        <time>2017-01-26T09:13:37Z</time>
      </trkpt>
      <trkpt lat="48.019" lon="7.5238">
        <ele>192.88</ele>
        <time>2017-01-26T09:13:44Z</time>
      </trkpt>
      <trkpt lat="48.01893" lon="7.52369">
        <ele>192.88</ele>
        <time>2017-01-26T09:13:51Z</time>
      </trkpt>
      <trkpt lat="48.01888" lon="7.52357">
        <ele>192.88</ele>
        <time>2017-01-26T09:13:58Z</time>
      </trkpt>
      <trkpt lat="48.01878" lon="7.52349">
        <ele>192.88</ele>
        <time>2017-01-26T09:14:06Z</time>
      </trkpt>
      <trkpt lat="48.0187" lon="7.52344">
        <ele>192.4</ele>
        <time>2017-01-26T09:14:14Z</time>
      </trkpt>
      <trkpt lat="48.01862" lon="7.52347">
        <ele>192.4</ele>
        <time>2017-01-26T09:14:21Z</time>
      </trkpt>
      <trkpt lat="48.01859" lon="7.52342">
        <ele>191.92</ele>
        <time>2017-01-26T09:14:29Z</time>
      </trkpt>
      <trkpt lat="48.01867" lon="7.52333">
        <ele>195.77</ele>
        <time>2017-01-26T09:14:40Z</time>
      </trkpt>
      <trkpt lat="48.01866" lon="7.52325">
        <ele>197.21</ele>
        <time>2017-01-26T09:14:52Z</time>
      </trkpt>
      <trkpt lat="48.01856" lon="7.52323">
        <ele>198.17</ele>
        <time>2017-01-26T09:15:01Z</time>
      </trkpt>
      <trkpt lat="48.01847" lon="7.52322">
        <ele>200.57</ele>
        <time>2017-01-26T09:15:10Z</time>
      </trkpt>
      <trkpt lat="48.01838" lon="7.52322">
        <ele>201.53</ele>
        <time>2017-01-26T09:15:19Z</time>
      </trkpt>
      <trkpt lat="48.01829" lon="7.52325">
        <ele>202.01</ele>
        <time>2017-01-26T09:15:29Z</time>
      </trkpt>
      <trkpt lat="48.01819" lon="7.52323">
        <ele>201.05</ele>
        <time>2017-01-26T09:15:37Z</time>
      </trkpt>
      <trkpt lat="48.01811" lon="7.52319">
        <ele>200.57</ele>
        <time>2017-01-26T09:15:46Z</time>
      </trkpt>
      <trkpt lat="48.01817" lon="7.52324">
        <ele>201.53</ele>
        <time>2017-01-26T09:15:58Z</time>
      </trkpt>
      <trkpt lat="48.01826" lon="7.52322">
        <ele>201.53</ele>
        <time>2017-01-26T09:16:05Z</time>
      </trkpt>
      <trkpt lat="48.01836" lon="7.52322">
        <ele>202.01</ele>
        <time>2017-01-26T09:16:13Z</time>
      </trkpt>
      <trkpt lat="48.01845" lon="7.52322">
        <ele>200.57</ele>
        <time>2017-01-26T09:16:21Z</time>
      </trkpt>
      <trkpt lat="48.01855" lon="7.52322">
        <ele>198.65</ele>
        <time>2017-01-26T09:16:31Z</time>
      </trkpt>
      <trkpt lat="48.01866" lon="7.52325">
        <ele>197.21</ele>
        <time>2017-01-26T09:16:41Z</time>
      </trkpt>
      <trkpt lat="48.01863" lon="7.52334">
        <ele>195.77</ele>
        <time>2017-01-26T09:16:49Z</time>
      </trkpt>
      <trkpt lat="48.01855" lon="7.52343">
        <ele>193.36</ele>
        <time>2017-01-26T09:16:57Z</time>
      </trkpt>
      <trkpt lat="48.01847" lon="7.52351">
        <ele>192.88</ele>
        <time>2017-01-26T09:17:04Z</time>
      </trkpt>
      <trkpt lat="48.01838" lon="7.52357">
        <ele>192.4</ele>
        <time>2017-01-26T09:17:12Z</time>
      </trkpt>
      <trkpt lat="48.01828" lon="7.52359">
        <ele>192.4</ele>
        <time>2017-01-26T09:17:20Z</time>
      </trkpt>
      <trkpt lat="48.01817" lon="7.52366">
        <ele>191.92</ele>
        <time>2017-01-26T09:17:28Z</time>
      </trkpt>
      <trkpt lat="48.01805" lon="7.52367">
        <ele>191.44</ele>
        <time>2017-01-26T09:17:36Z</time>
      </trkpt>
      <trkpt lat="48.01798" lon="7.52365">
        <ele>192.88</ele>
        <time>2017-01-26T09:17:50Z</time>
      </trkpt>
      <trkpt lat="48.018" lon="7.52352">
        <ele>192.88</ele>
        <time>2017-01-26T09:17:57Z</time>
      </trkpt>
      <trkpt lat="48.018" lon="7.52337">
        <ele>192.88</ele>
        <time>2017-01-26T09:18:04Z</time>
      </trkpt>
      <trkpt lat="48.01799" lon="7.52322">
        <ele>192.88</ele>
        <time>2017-01-26T09:18:12Z</time>
      </trkpt>
      <trkpt lat="48.01799" lon="7.52306">
        <ele>192.88</ele>
        <time>2017-01-26T09:18:19Z</time>
      </trkpt>
      <trkpt lat="48.01804" lon="7.52291">
        <ele>192.4</ele>
        <time>2017-01-26T09:18:27Z</time>
      </trkpt>
      <trkpt lat="48.01809" lon="7.52273">
        <ele>192.88</ele>
        <time>2017-01-26T09:18:38Z</time>
      </trkpt>
      <trkpt lat="48.01815" lon="7.52259">
        <ele>192.88</ele>
        <time>2017-01-26T09:18:45Z</time>
      </trkpt>
      <trkpt lat="48.0182" lon="7.52243">
        <ele>193.36</ele>
        <time>2017-01-26T09:18:53Z</time>
      </trkpt>
      <trkpt lat="48.01824" lon="7.52229">
        <ele>195.77</ele>
        <time>2017-01-26T09:19:02Z</time>
      </trkpt>
      <trkpt lat="48.01826" lon="7.52214">
        <ele>196.73</ele>
        <time>2017-01-26T09:19:11Z</time>
      </trkpt>
      <trkpt lat="48.01825" lon="7.52199">
        <ele>197.69</ele>
        <time>2017-01-26T09:19:19Z</time>
      </trkpt>
      <trkpt lat="48.01824" lon="7.52182">
        <ele>198.65</ele>
        <time>2017-01-26T09:19:28Z</time>
      </trkpt>
      <trkpt lat="48.01825" lon="7.52167">
        <ele>198.65</ele>
        <time>2017-01-26T09:19:36Z</time>
      </trkpt>
      <trkpt lat="48.01828" lon="7.52152">
        <ele>198.17</ele>
        <time>2017-01-26T09:19:44Z</time>
      </trkpt>
      <trkpt lat="48.01833" lon="7.52137">
        <ele>198.17</ele>
        <time>2017-01-26T09:19:53Z</time>
      </trkpt>
      <trkpt lat="48.01839" lon="7.52124">
        <ele>197.69</ele>
        <time>2017-01-26T09:20:01Z</time>
      </trkpt>
      <trkpt lat="48.01841" lon="7.52109">
        <ele>197.21</ele>
        <time>2017-01-26T09:20:09Z</time>
      </trkpt>
      <trkpt lat="48.01846" lon="7.52094">
        <ele>196.73</ele>
        <time>2017-01-26T09:20:18Z</time>
      </trkpt>
      <trkpt lat="48.01853" lon="7.5209">
        <ele>196.25</ele>
        <time>2017-01-26T09:20:27Z</time>
      </trkpt>
      <trkpt lat="48.01862" lon="7.52084">
        <ele>196.73</ele>
        <time>2017-01-26T09:20:57Z</time>
      </trkpt>
      <trkpt lat="48.01875" lon="7.52081">
        <ele>195.77</ele>
        <time>2017-01-26T09:21:08Z</time>
      </trkpt>
      <trkpt lat="48.0189" lon="7.52078">
        <ele>196.73</ele>
        <time>2017-01-26T09:21:19Z</time>
      </trkpt>
      <trkpt lat="48.01885" lon="7.52075">
        <ele>196.73</ele>
        <time>2017-01-26T09:21:31Z</time>
      </trkpt>
      <trkpt lat="48.01875" lon="7.52077">
        <ele>196.25</ele>
        <time>2017-01-26T09:21:41Z</time>
      </trkpt>
      <trkpt lat="48.01866" lon="7.52068">
        <ele>196.73</ele>
        <time>2017-01-26T09:22:03Z</time>
      </trkpt>
      <trkpt lat="48.01866" lon="7.52049">
        <ele>196.73</ele>
        <time>2017-01-26T09:22:23Z</time>
      </trkpt>
      <trkpt lat="48.01878" lon="7.52041">
        <ele>196.73</ele>
        <time>2017-01-26T09:22:37Z</time>
      </trkpt>
      <trkpt lat="48.01891" lon="7.52039">
        <ele>196.73</ele>
        <time>2017-01-26T09:22:49Z</time>
      </trkpt>
      <trkpt lat="48.01905" lon="7.52035">
        <ele>196.73</ele>
        <time>2017-01-26T09:23:01Z</time>
      </trkpt>
      <trkpt lat="48.01914" lon="7.52026">
        <ele>196.73</ele>
        <time>2017-01-26T09:23:10Z</time>
      </trkpt>
      <trkpt lat="48.01924" lon="7.52023">
        <ele>197.69</ele>
        <time>2017-01-26T09:23:21Z</time>
      </trkpt>
      <trkpt lat="48.01935" lon="7.5203">
        <ele>197.69</ele>
        <time>2017-01-26T09:23:31Z</time>
      </trkpt>
      <trkpt lat="48.01946" lon="7.52036">
        <ele>197.69</ele>
        <time>2017-01-26T09:23:42Z</time>
      </trkpt>
      <trkpt lat="48.01955" lon="7.52043">
        <ele>197.69</ele>
        <time>2017-01-26T09:23:50Z</time>
      </trkpt>
      <trkpt lat="48.01964" lon="7.5205">
        <ele>197.21</ele>
        <time>2017-01-26T09:23:58Z</time>
      </trkpt>
      <trkpt lat="48.01972" lon="7.52061">
        <ele>197.21</ele>
        <time>2017-01-26T09:24:06Z</time>
      </trkpt>
      <trkpt lat="48.01982" lon="7.52072">
        <ele>197.21</ele>
        <time>2017-01-26T09:24:15Z</time>
      </trkpt>
      <trkpt lat="48.01991" lon="7.5208">
        <ele>196.73</ele>
        <time>2017-01-26T09:24:23Z</time>
      </trkpt>
      <trkpt lat="48.02002" lon="7.52087">
        <ele>196.73</ele>
        <time>2017-01-26T09:24:33Z</time>
      </trkpt>
      <trkpt lat="48.02014" lon="7.52087">
        <ele>196.73</ele>
        <time>2017-01-26T09:24:44Z</time>
      </trkpt>
      <trkpt lat="48.02023" lon="7.52079">
        <ele>197.21</ele>
        <time>2017-01-26T09:24:53Z</time>
      </trkpt>
      <trkpt lat="48.02031" lon="7.52084">
        <ele>197.69</ele>
        <time>2017-01-26T09:25:06Z</time>
      </trkpt>
      <trkpt lat="48.0203" lon="7.52097">
        <ele>197.21</ele>
        <time>2017-01-26T09:25:14Z</time>
      </trkpt>
      <trkpt lat="48.02031" lon="7.52111">
        <ele>197.69</ele>
        <time>2017-01-26T09:25:23Z</time>
      </trkpt>
      <trkpt lat="48.02041" lon="7.52113">
        <ele>196.25</ele>
        <time>2017-01-26T09:25:31Z</time>
      </trkpt>
      <trkpt lat="48.02052" lon="7.52113">
        <ele>196.73</ele>
        <time>2017-01-26T09:25:40Z</time>
      </trkpt>
      <trkpt lat="48.02063" lon="7.5211">
        <ele>196.73</ele>
        <time>2017-01-26T09:25:48Z</time>
      </trkpt>
      <trkpt lat="48.02076" lon="7.52104">
        <ele>196.25</ele>
        <time>2017-01-26T09:25:57Z</time>
      </trkpt>
      <trkpt lat="48.02085" lon="7.52097">
        <ele>196.73</ele>
        <time>2017-01-26T09:26:06Z</time>
      </trkpt>
      <trkpt lat="48.02095" lon="7.52088">
        <ele>196.25</ele>
        <time>2017-01-26T09:26:13Z</time>
      </trkpt>
      <trkpt lat="48.02105" lon="7.5208">
        <ele>197.21</ele>
        <time>2017-01-26T09:26:20Z</time>
      </trkpt>
      <trkpt lat="48.02114" lon="7.52075">
        <ele>197.21</ele>
        <time>2017-01-26T09:26:28Z</time>
      </trkpt>
      <trkpt lat="48.02124" lon="7.5207">
        <ele>196.73</ele>
        <time>2017-01-26T09:26:36Z</time>
      </trkpt>
      <trkpt lat="48.02134" lon="7.5206">
        <ele>196.73</ele>
        <time>2017-01-26T09:26:45Z</time>
      </trkpt>
      <trkpt lat="48.02143" lon="7.52052">
        <ele>197.21</ele>
        <time>2017-01-26T09:26:54Z</time>
      </trkpt>
      <trkpt lat="48.02153" lon="7.52045">
        <ele>197.21</ele>
        <time>2017-01-26T09:27:02Z</time>
      </trkpt>
      <trkpt lat="48.02163" lon="7.52034">
        <ele>196.73</ele>
        <time>2017-01-26T09:27:10Z</time>
      </trkpt>
      <trkpt lat="48.02174" lon="7.52022">
        <ele>196.73</ele>
        <time>2017-01-26T09:27:19Z</time>
      </trkpt>
      <trkpt lat="48.02185" lon="7.52011">
        <ele>196.73</ele>
        <time>2017-01-26T09:27:28Z</time>
      </trkpt>
      <trkpt lat="48.02198" lon="7.52002">
        <ele>197.21</ele>
        <time>2017-01-26T09:27:40Z</time>
      </trkpt>
      <trkpt lat="48.0221" lon="7.51985">
        <ele>196.73</ele>
        <time>2017-01-26T09:27:49Z</time>
      </trkpt>
      <trkpt lat="48.02221" lon="7.51973">
        <ele>196.73</ele>
        <time>2017-01-26T09:27:58Z</time>
      </trkpt>
      <trkpt lat="48.02231" lon="7.51963">
        <ele>196.25</ele>
        <time>2017-01-26T09:28:08Z</time>
      </trkpt>
      <trkpt lat="48.02241" lon="7.51953">
        <ele>195.77</ele>
        <time>2017-01-26T09:28:17Z</time>
      </trkpt>
      <trkpt lat="48.02251" lon="7.51942">
        <ele>195.77</ele>
        <time>2017-01-26T09:28:26Z</time>
      </trkpt>
      <trkpt lat="48.02262" lon="7.51931">
        <ele>194.8</ele>
        <time>2017-01-26T09:28:35Z</time>
      </trkpt>
      <trkpt lat="48.02271" lon="7.51914">
        <ele>194.32</ele>
        <time>2017-01-26T09:28:43Z</time>
      </trkpt>
      <trkpt lat="48.02277" lon="7.51896">
        <ele>194.8</ele>
        <time>2017-01-26T09:28:50Z</time>
      </trkpt>
      <trkpt lat="48.02282" lon="7.51879">
        <ele>194.8</ele>
        <time>2017-01-26T09:28:57Z</time>
      </trkpt>
      <trkpt lat="48.02287" lon="7.51866">
        <ele>195.28</ele>
        <time>2017-01-26T09:29:04Z</time>
      </trkpt>
      <trkpt lat="48.02294" lon="7.51854">
        <ele>195.28</ele>
        <time>2017-01-26T09:29:11Z</time>
      </trkpt>
      <trkpt lat="48.02304" lon="7.51847">
        <ele>195.28</ele>
        <time>2017-01-26T09:29:19Z</time>
      </trkpt>
      <trkpt lat="48.02313" lon="7.51839">
        <ele>195.77</ele>
        <time>2017-01-26T09:29:27Z</time>
      </trkpt>
      <trkpt lat="48.0232" lon="7.51826">
        <ele>195.28</ele>
        <time>2017-01-26T09:29:35Z</time>
      </trkpt>
      <trkpt lat="48.02326" lon="7.51814">
        <ele>194.32</ele>
        <time>2017-01-26T09:29:42Z</time>
      </trkpt>
      <trkpt lat="48.02332" lon="7.51801">
        <ele>196.25</ele>
        <time>2017-01-26T09:29:49Z</time>
      </trkpt>
      <trkpt lat="48.02337" lon="7.51787">
        <ele>195.77</ele>
        <time>2017-01-26T09:29:56Z</time>
      </trkpt>
      <trkpt lat="48.02341" lon="7.51774">
        <ele>196.25</ele>
        <time>2017-01-26T09:30:03Z</time>
      </trkpt>
      <trkpt lat="48.02345" lon="7.5176">
        <ele>196.25</ele>
        <time>2017-01-26T09:30:10Z</time>
      </trkpt>
      <trkpt lat="48.02349" lon="7.51747">
        <ele>195.77</ele>
        <time>2017-01-26T09:30:17Z</time>
      </trkpt>
      <trkpt lat="48.02355" lon="7.51735">
        <ele>195.77</ele>
        <time>2017-01-26T09:30:24Z</time>
      </trkpt>
      <trkpt lat="48.02361" lon="7.51723">
        <ele>188.56</ele>
        <time>2017-01-26T09:30:31Z</time>
      </trkpt>
      <trkpt lat="48.02367" lon="7.51711">
        <ele>195.28</ele>
        <time>2017-01-26T09:30:39Z</time>
      </trkpt>
      <trkpt lat="48.02374" lon="7.51698">
        <ele>195.28</ele>
        <time>2017-01-26T09:30:47Z</time>
      </trkpt>
      <trkpt lat="48.02381" lon="7.51686">
        <ele>195.28</ele>
        <time>2017-01-26T09:30:55Z</time>
      </trkpt>
      <trkpt lat="48.02386" lon="7.51671">
        <ele>195.28</ele>
        <time>2017-01-26T09:31:03Z</time>
      </trkpt>
      <trkpt lat="48.02393" lon="7.51661">
        <ele>195.28</ele>
        <time>2017-01-26T09:31:10Z</time>
      </trkpt>
      <trkpt lat="48.02398" lon="7.51648">
        <ele>195.77</ele>
        <time>2017-01-26T09:31:19Z</time>
      </trkpt>
      <trkpt lat="48.02416" lon="7.51641">
        <ele>195.28</ele>
        <time>2017-01-26T09:31:30Z</time>
      </trkpt>
      <trkpt lat="48.02417" lon="7.51616">
        <ele>195.28</ele>
        <time>2017-01-26T09:31:38Z</time>
      </trkpt>
      <trkpt lat="48.02418" lon="7.51597">
        <ele>195.28</ele>
        <time>2017-01-26T09:31:46Z</time>
      </trkpt>
      <trkpt lat="48.02423" lon="7.51583">
        <ele>195.28</ele>
        <time>2017-01-26T09:31:55Z</time>
      </trkpt>
      <trkpt lat="48.0243" lon="7.51569">
        <ele>195.28</ele>
        <time>2017-01-26T09:32:02Z</time>
      </trkpt>
      <trkpt lat="48.02436" lon="7.51555">
        <ele>195.28</ele>
        <time>2017-01-26T09:32:10Z</time>
      </trkpt>
      <trkpt lat="48.02442" lon="7.51542">
        <ele>195.28</ele>
        <time>2017-01-26T09:32:17Z</time>
      </trkpt>
      <trkpt lat="48.02449" lon="7.51527">
        <ele>195.28</ele>
        <time>2017-01-26T09:32:24Z</time>
      </trkpt>
      <trkpt lat="48.02453" lon="7.51515">
        <ele>195.77</ele>
        <time>2017-01-26T09:32:30Z</time>
      </trkpt>
      <trkpt lat="48.02458" lon="7.51502">
        <ele>195.28</ele>
        <time>2017-01-26T09:32:36Z</time>
      </trkpt>
      <trkpt lat="48.02463" lon="7.51491">
        <ele>196.25</ele>
        <time>2017-01-26T09:32:42Z</time>
      </trkpt>
      <trkpt lat="48.02468" lon="7.51478">
        <ele>195.28</ele>
        <time>2017-01-26T09:32:48Z</time>
      </trkpt>
      <trkpt lat="48.02474" lon="7.51465">
        <ele>195.28</ele>
        <time>2017-01-26T09:32:55Z</time>
      </trkpt>
      <trkpt lat="48.0248" lon="7.51452">
        <ele>195.28</ele>
        <time>2017-01-26T09:33:02Z</time>
      </trkpt>
      <trkpt lat="48.02486" lon="7.51441">
        <ele>195.28</ele>
        <time>2017-01-26T09:33:08Z</time>
      </trkpt>
      <trkpt lat="48.02491" lon="7.5143">
        <ele>195.77</ele>
        <time>2017-01-26T09:33:14Z</time>
      </trkpt>
      <trkpt lat="48.02496" lon="7.51417">
        <ele>195.28</ele>
        <time>2017-01-26T09:33:21Z</time>
      </trkpt>
      <trkpt lat="48.02501" lon="7.51405">
        <ele>194.8</ele>
        <time>2017-01-26T09:33:27Z</time>
      </trkpt>
      <trkpt lat="48.02506" lon="7.51393">
        <ele>195.77</ele>
        <time>2017-01-26T09:33:33Z</time>
      </trkpt>
      <trkpt lat="48.02512" lon="7.5138">
        <ele>195.28</ele>
        <time>2017-01-26T09:33:40Z</time>
      </trkpt>
      <trkpt lat="48.02518" lon="7.51368">
        <ele>195.28</ele>
        <time>2017-01-26T09:33:47Z</time>
      </trkpt>
      <trkpt lat="48.02523" lon="7.51355">
        <ele>193.84</ele>
        <time>2017-01-26T09:33:53Z</time>
      </trkpt>
      <trkpt lat="48.0253" lon="7.51343">
        <ele>195.77</ele>
        <time>2017-01-26T09:34:00Z</time>
      </trkpt>
      <trkpt lat="48.02535" lon="7.51331">
        <ele>195.77</ele>
        <time>2017-01-26T09:34:07Z</time>
      </trkpt>
      <trkpt lat="48.02541" lon="7.51317">
        <ele>196.25</ele>
        <time>2017-01-26T09:34:14Z</time>
      </trkpt>
      <trkpt lat="48.02547" lon="7.51304">
        <ele>195.77</ele>
        <time>2017-01-26T09:34:21Z</time>
      </trkpt>
      <trkpt lat="48.02552" lon="7.51292">
        <ele>195.28</ele>
        <time>2017-01-26T09:34:27Z</time>
      </trkpt>
      <trkpt lat="48.02558" lon="7.51279">
        <ele>195.77</ele>
        <time>2017-01-26T09:34:34Z</time>
      </trkpt>
      <trkpt lat="48.02563" lon="7.51268">
        <ele>195.77</ele>
        <time>2017-01-26T09:34:40Z</time>
      </trkpt>
      <trkpt lat="48.02569" lon="7.51255">
        <ele>195.28</ele>
        <time>2017-01-26T09:34:47Z</time>
      </trkpt>
      <trkpt lat="48.02576" lon="7.51242">
        <ele>195.28</ele>
        <time>2017-01-26T09:34:54Z</time>
      </trkpt>
      <trkpt lat="48.02581" lon="7.51228">
        <ele>194.8</ele>
        <time>2017-01-26T09:35:00Z</time>
      </trkpt>
      <trkpt lat="48.02587" lon="7.51216">
        <ele>195.28</ele>
        <time>2017-01-26T09:35:06Z</time>
      </trkpt>
      <trkpt lat="48.02591" lon="7.51203">
        <ele>194.8</ele>
        <time>2017-01-26T09:35:12Z</time>
      </trkpt>
      <trkpt lat="48.02596" lon="7.51191">
        <ele>194.8</ele>
        <time>2017-01-26T09:35:18Z</time>
      </trkpt>
      <trkpt lat="48.02602" lon="7.51179">
        <ele>195.28</ele>
        <time>2017-01-26T09:35:25Z</time>
      </trkpt>
      <trkpt lat="48.02609" lon="7.51164">
        <ele>194.8</ele>
        <time>2017-01-26T09:35:32Z</time>
      </trkpt>
      <trkpt lat="48.02616" lon="7.51149">
        <ele>194.32</ele>
        <time>2017-01-26T09:35:40Z</time>
      </trkpt>
      <trkpt lat="48.02623" lon="7.51134">
        <ele>194.8</ele>
        <time>2017-01-26T09:35:47Z</time>
      </trkpt>
      <trkpt lat="48.0263" lon="7.5112">
        <ele>194.8</ele>
        <time>2017-01-26T09:35:55Z</time>
      </trkpt>
      <trkpt lat="48.02638" lon="7.51106">
        <ele>194.32</ele>
        <time>2017-01-26T09:36:04Z</time>
      </trkpt>
      <trkpt lat="48.02646" lon="7.5109">
        <ele>194.8</ele>
        <time>2017-01-26T09:36:12Z</time>
      </trkpt>
      <trkpt lat="48.02653" lon="7.51077">
        <ele>194.32</ele>
        <time>2017-01-26T09:36:20Z</time>
      </trkpt>
      <trkpt lat="48.02659" lon="7.51063">
        <ele>194.8</ele>
        <time>2017-01-26T09:36:28Z</time>
      </trkpt>
      <trkpt lat="48.02663" lon="7.51045">
        <ele>194.8</ele>
        <time>2017-01-26T09:36:56Z</time>
      </trkpt>
      <trkpt lat="48.02669" lon="7.51028">
        <ele>194.8</ele>
        <time>2017-01-26T09:37:06Z</time>
      </trkpt>
      <trkpt lat="48.02677" lon="7.5101">
        <ele>194.8</ele>
        <time>2017-01-26T09:37:14Z</time>
      </trkpt>
      <trkpt lat="48.02686" lon="7.50994">
        <ele>195.28</ele>
        <time>2017-01-26T09:37:23Z</time>
      </trkpt>
      <trkpt lat="48.02693" lon="7.50977">
        <ele>195.28</ele>
        <time>2017-01-26T09:37:32Z</time>
      </trkpt>
      <trkpt lat="48.027" lon="7.50962">
        <ele>195.28</ele>
        <time>2017-01-26T09:37:39Z</time>
      </trkpt>
      <trkpt lat="48.02706" lon="7.50949">
        <ele>195.28</ele>
        <time>2017-01-26T09:37:46Z</time>
      </trkpt>
      <trkpt lat="48.02713" lon="7.50934">
        <ele>195.28</ele>
        <time>2017-01-26T09:37:54Z</time>
      </trkpt>
      <trkpt lat="48.02719" lon="7.50918">
        <ele>195.28</ele>
        <time>2017-01-26T09:38:01Z</time>
      </trkpt>
      <trkpt lat="48.02726" lon="7.50906">
        <ele>195.28</ele>
        <time>2017-01-26T09:38:09Z</time>
      </trkpt>
      <trkpt lat="48.02733" lon="7.5089">
        <ele>194.8</ele>
        <time>2017-01-26T09:38:17Z</time>
      </trkpt>
      <trkpt lat="48.02741" lon="7.50877">
        <ele>194.8</ele>
        <time>2017-01-26T09:38:25Z</time>
      </trkpt>
      <trkpt lat="48.02746" lon="7.5086">
        <ele>194.8</ele>
        <time>2017-01-26T09:38:34Z</time>
      </trkpt>
      <trkpt lat="48.02752" lon="7.50847">
        <ele>194.8</ele>
        <time>2017-01-26T09:38:42Z</time>
      </trkpt>
      <trkpt lat="48.02759" lon="7.50835">
        <ele>194.32</ele>
        <time>2017-01-26T09:38:50Z</time>
      </trkpt>
      <trkpt lat="48.02766" lon="7.50823">
        <ele>194.32</ele>
        <time>2017-01-26T09:38:58Z</time>
      </trkpt>
      <trkpt lat="48.02773" lon="7.50804">
        <ele>194.32</ele>
        <time>2017-01-26T09:39:07Z</time>
      </trkpt>
      <trkpt lat="48.0278" lon="7.50789">
        <ele>194.8</ele>
        <time>2017-01-26T09:39:14Z</time>
      </trkpt>
      <trkpt lat="48.02787" lon="7.50772">
        <ele>194.32</ele>
        <time>2017-01-26T09:39:23Z</time>
      </trkpt>
      <trkpt lat="48.02794" lon="7.50758">
        <ele>194.32</ele>
        <time>2017-01-26T09:39:31Z</time>
      </trkpt>
      <trkpt lat="48.02803" lon="7.50743">
        <ele>194.32</ele>
        <time>2017-01-26T09:39:39Z</time>
      </trkpt>
      <trkpt lat="48.02808" lon="7.50729">
        <ele>194.32</ele>
        <time>2017-01-26T09:39:46Z</time>
      </trkpt>
      <trkpt lat="48.02814" lon="7.50717">
        <ele>194.32</ele>
        <time>2017-01-26T09:39:54Z</time>
      </trkpt>
      <trkpt lat="48.02822" lon="7.50703">
        <ele>194.32</ele>
        <time>2017-01-26T09:40:02Z</time>
      </trkpt>
      <trkpt lat="48.02828" lon="7.50687">
        <ele>194.32</ele>
        <time>2017-01-26T09:40:10Z</time>
      </trkpt>
      <trkpt lat="48.02833" lon="7.50672">
        <ele>194.32</ele>
        <time>2017-01-26T09:40:17Z</time>
      </trkpt>
      <trkpt lat="48.02839" lon="7.50658">
        <ele>194.32</ele>
        <time>2017-01-26T09:40:24Z</time>
      </trkpt>
      <trkpt lat="48.02844" lon="7.50642">
        <ele>194.8</ele>
        <time>2017-01-26T09:40:33Z</time>
      </trkpt>
      <trkpt lat="48.02851" lon="7.50629">
        <ele>194.32</ele>
        <time>2017-01-26T09:40:40Z</time>
      </trkpt>
      <trkpt lat="48.02857" lon="7.50616">
        <ele>190</ele>
        <time>2017-01-26T09:40:48Z</time>
      </trkpt>
      <trkpt lat="48.02863" lon="7.50601">
        <ele>194.32</ele>
        <time>2017-01-26T09:40:55Z</time>
      </trkpt>
      <trkpt lat="48.02869" lon="7.5059">
        <ele>194.8</ele>
        <time>2017-01-26T09:41:01Z</time>
      </trkpt>
      <trkpt lat="48.02876" lon="7.50578">
        <ele>194.8</ele>
        <time>2017-01-26T09:41:09Z</time>
      </trkpt>
      <trkpt lat="48.02882" lon="7.50566">
        <ele>194.8</ele>
        <time>2017-01-26T09:41:16Z</time>
      </trkpt>
      <trkpt lat="48.02887" lon="7.50553">
        <ele>194.32</ele>
        <time>2017-01-26T09:41:23Z</time>
      </trkpt>
      <trkpt lat="48.02892" lon="7.50542">
        <ele>194.8</ele>
        <time>2017-01-26T09:41:29Z</time>
      </trkpt>
      <trkpt lat="48.02896" lon="7.50527">
        <ele>194.8</ele>
        <time>2017-01-26T09:41:36Z</time>
      </trkpt>
      <trkpt lat="48.02897" lon="7.50514">
        <ele>194.32</ele>
        <time>2017-01-26T09:41:42Z</time>
      </trkpt>
      <trkpt lat="48.02898" lon="7.505">
        <ele>194.32</ele>
        <time>2017-01-26T09:41:49Z</time>
      </trkpt>
      <trkpt lat="48.029" lon="7.50486">
        <ele>194.32</ele>
        <time>2017-01-26T09:41:58Z</time>
      </trkpt>
      <trkpt lat="48.02901" lon="7.50473">
        <ele>194.32</ele>
        <time>2017-01-26T09:42:06Z</time>
      </trkpt>
      <trkpt lat="48.02904" lon="7.50457">
        <ele>194.32</ele>
        <time>2017-01-26T09:42:13Z</time>
      </trkpt>
      <trkpt lat="48.02904" lon="7.50442">
        <ele>194.8</ele>
        <time>2017-01-26T09:42:20Z</time>
      </trkpt>
      <trkpt lat="48.02905" lon="7.50426">
        <ele>194.8</ele>
        <time>2017-01-26T09:42:28Z</time>
      </trkpt>
      <trkpt lat="48.02905" lon="7.50411">
        <ele>194.32</ele>
        <time>2017-01-26T09:42:34Z</time>
      </trkpt>
      <trkpt lat="48.02905" lon="7.50396">
        <ele>194.32</ele>
        <time>2017-01-26T09:42:40Z</time>
      </trkpt>
      <trkpt lat="48.02905" lon="7.50382">
        <ele>193.84</ele>
        <time>2017-01-26T09:42:46Z</time>
      </trkpt>
      <trkpt lat="48.02904" lon="7.50366">
        <ele>193.36</ele>
        <time>2017-01-26T09:42:52Z</time>
      </trkpt>
      <trkpt lat="48.02904" lon="7.50352">
        <ele>193.84</ele>
        <time>2017-01-26T09:42:59Z</time>
      </trkpt>
      <trkpt lat="48.02904" lon="7.50337">
        <ele>193.84</ele>
        <time>2017-01-26T09:43:05Z</time>
      </trkpt>
      <trkpt lat="48.02904" lon="7.50322">
        <ele>193.84</ele>
        <time>2017-01-26T09:43:12Z</time>
      </trkpt>
      <trkpt lat="48.02903" lon="7.50306">
        <ele>193.84</ele>
        <time>2017-01-26T09:43:19Z</time>
      </trkpt>
      <trkpt lat="48.02902" lon="7.50292">
        <ele>193.84</ele>
        <time>2017-01-26T09:43:26Z</time>
      </trkpt>
      <trkpt lat="48.02901" lon="7.50278">
        <ele>194.32</ele>
        <time>2017-01-26T09:43:33Z</time>
      </trkpt>
      <trkpt lat="48.02899" lon="7.50263">
        <ele>194.32</ele>
        <time>2017-01-26T09:43:40Z</time>
      </trkpt>
      <trkpt lat="48.02895" lon="7.50248">
        <ele>194.8</ele>
        <time>2017-01-26T09:43:47Z</time>
      </trkpt>
      <trkpt lat="48.02886" lon="7.50242">
        <ele>194.8</ele>
        <time>2017-01-26T09:43:55Z</time>
      </trkpt>
      <trkpt lat="48.02876" lon="7.50237">
        <ele>194.8</ele>
        <time>2017-01-26T09:44:02Z</time>
      </trkpt>
      <trkpt lat="48.02865" lon="7.50233">
        <ele>194.8</ele>
        <time>2017-01-26T09:44:10Z</time>
      </trkpt>
      <trkpt lat="48.02855" lon="7.50228">
        <ele>195.28</ele>
        <time>2017-01-26T09:44:16Z</time>
      </trkpt>
      <trkpt lat="48.02844" lon="7.50226">
        <ele>195.28</ele>
        <time>2017-01-26T09:44:23Z</time>
      </trkpt>
      <trkpt lat="48.02832" lon="7.50221">
        <ele>195.77</ele>
        <time>2017-01-26T09:44:31Z</time>
      </trkpt>
      <trkpt lat="48.02822" lon="7.50217">
        <ele>195.28</ele>
        <time>2017-01-26T09:44:38Z</time>
      </trkpt>
      <trkpt lat="48.02812" lon="7.50213">
        <ele>195.28</ele>
        <time>2017-01-26T09:44:45Z</time>
      </trkpt>
      <trkpt lat="48.02802" lon="7.5021">
        <ele>195.28</ele>
        <time>2017-01-26T09:44:52Z</time>
      </trkpt>
      <trkpt lat="48.02792" lon="7.50207">
        <ele>195.28</ele>
        <time>2017-01-26T09:44:59Z</time>
      </trkpt>
      <trkpt lat="48.02782" lon="7.50198">
        <ele>195.28</ele>
        <time>2017-01-26T09:45:07Z</time>
      </trkpt>
      <trkpt lat="48.02779" lon="7.50184">
        <ele>195.28</ele>
        <time>2017-01-26T09:45:13Z</time>
      </trkpt>
      <trkpt lat="48.02777" lon="7.50168">
        <ele>196.25</ele>
        <time>2017-01-26T09:46:09Z</time>
      </trkpt>
      <trkpt lat="48.02778" lon="7.50153">
        <ele>195.28</ele>
        <time>2017-01-26T09:46:16Z</time>
      </trkpt>
      <trkpt lat="48.0278" lon="7.50137">
        <ele>194.8</ele>
        <time>2017-01-26T09:46:24Z</time>
      </trkpt>
      <trkpt lat="48.02779" lon="7.50124">
        <ele>195.28</ele>
        <time>2017-01-26T09:46:31Z</time>
      </trkpt>
      <trkpt lat="48.02769" lon="7.5012">
        <ele>195.28</ele>
        <time>2017-01-26T09:46:39Z</time>
      </trkpt>
      <trkpt lat="48.02758" lon="7.50113">
        <ele>195.28</ele>
        <time>2017-01-26T09:46:46Z</time>
      </trkpt>
      <trkpt lat="48.02749" lon="7.50103">
        <ele>194.8</ele>
        <time>2017-01-26T09:46:54Z</time>
      </trkpt>
      <trkpt lat="48.02741" lon="7.50093">
        <ele>194.8</ele>
        <time>2017-01-26T09:47:02Z</time>
      </trkpt>
      <trkpt lat="48.02733" lon="7.50084">
        <ele>194.32</ele>
        <time>2017-01-26T09:47:08Z</time>
      </trkpt>
      <trkpt lat="48.02727" lon="7.50072">
        <ele>194.8</ele>
        <time>2017-01-26T09:47:15Z</time>
      </trkpt>
      <trkpt lat="48.02718" lon="7.50063">
        <ele>194.8</ele>
        <time>2017-01-26T09:47:22Z</time>
      </trkpt>
      <trkpt lat="48.02711" lon="7.50054">
        <ele>194.32</ele>
        <time>2017-01-26T09:47:29Z</time>
      </trkpt>
      <trkpt lat="48.02704" lon="7.50042">
        <ele>194.8</ele>
        <time>2017-01-26T09:47:37Z</time>
      </trkpt>
      <trkpt lat="48.02696" lon="7.50031">
        <ele>194.8</ele>
        <time>2017-01-26T09:47:44Z</time>
      </trkpt>
      <trkpt lat="48.02688" lon="7.50022">
        <ele>195.28</ele>
        <time>2017-01-26T09:47:51Z</time>
      </trkpt>
      <trkpt lat="48.02678" lon="7.50014">
        <ele>195.28</ele>
        <time>2017-01-26T09:47:58Z</time>
      </trkpt>
      <trkpt lat="48.0267" lon="7.50008">
        <ele>195.28</ele>
        <time>2017-01-26T09:48:04Z</time>
      </trkpt>
      <trkpt lat="48.02661" lon="7.50001">
        <ele>194.8</ele>
        <time>2017-01-26T09:48:11Z</time>
      </trkpt>
      <trkpt lat="48.02653" lon="7.49993">
        <ele>195.28</ele>
        <time>2017-01-26T09:48:18Z</time>
      </trkpt>
      <trkpt lat="48.02644" lon="7.49985">
        <ele>194.8</ele>
        <time>2017-01-26T09:48:25Z</time>
      </trkpt>
      <trkpt lat="48.02636" lon="7.49972">
        <ele>194.8</ele>
        <time>2017-01-26T09:48:33Z</time>
      </trkpt>
      <trkpt lat="48.02629" lon="7.49959">
        <ele>195.77</ele>
        <time>2017-01-26T09:48:40Z</time>
      </trkpt>
      <trkpt lat="48.02623" lon="7.49945">
        <ele>195.77</ele>
        <time>2017-01-26T09:48:47Z</time>
      </trkpt>
      <trkpt lat="48.02618" lon="7.49933">
        <ele>195.77</ele>
        <time>2017-01-26T09:48:54Z</time>
      </trkpt>
      <trkpt lat="48.02612" lon="7.49919">
        <ele>195.77</ele>
        <time>2017-01-26T09:49:02Z</time>
      </trkpt>
      <trkpt lat="48.02606" lon="7.49907">
        <ele>195.28</ele>
        <time>2017-01-26T09:49:09Z</time>
      </trkpt>
      <trkpt lat="48.026" lon="7.49894">
        <ele>195.77</ele>
        <time>2017-01-26T09:49:15Z</time>
      </trkpt>
      <trkpt lat="48.02595" lon="7.49881">
        <ele>196.25</ele>
        <time>2017-01-26T09:49:22Z</time>
      </trkpt>
      <trkpt lat="48.02589" lon="7.49867">
        <ele>196.25</ele>
        <time>2017-01-26T09:49:29Z</time>
      </trkpt>
      <trkpt lat="48.02584" lon="7.49856">
        <ele>196.25</ele>
        <time>2017-01-26T09:49:35Z</time>
      </trkpt>
      <trkpt lat="48.02578" lon="7.49842">
        <ele>196.73</ele>
        <time>2017-01-26T09:49:43Z</time>
      </trkpt>
      <trkpt lat="48.02572" lon="7.49829">
        <ele>197.21</ele>
        <time>2017-01-26T09:49:50Z</time>
      </trkpt>
      <trkpt lat="48.02567" lon="7.49816">
        <ele>196.73</ele>
        <time>2017-01-26T09:49:59Z</time>
      </trkpt>
      <trkpt lat="48.02562" lon="7.49803">
        <ele>196.25</ele>
        <time>2017-01-26T09:50:06Z</time>
      </trkpt>
      <trkpt lat="48.02556" lon="7.49789">
        <ele>197.21</ele>
        <time>2017-01-26T09:54:23Z</time>
      </trkpt>
      <trkpt lat="48.02553" lon="7.49775">
        <ele>196.73</ele>
        <time>2017-01-26T09:54:31Z</time>
      </trkpt>
      <trkpt lat="48.02548" lon="7.49762">
        <ele>196.25</ele>
        <time>2017-01-26T09:54:38Z</time>
      </trkpt>
      <trkpt lat="48.02541" lon="7.49748">
        <ele>197.21</ele>
        <time>2017-01-26T09:54:46Z</time>
      </trkpt>
      <trkpt lat="48.02533" lon="7.49734">
        <ele>196.73</ele>
        <time>2017-01-26T09:54:53Z</time>
      </trkpt>
      <trkpt lat="48.02528" lon="7.49721">
        <ele>196.73</ele>
        <time>2017-01-26T09:54:59Z</time>
      </trkpt>
      <trkpt lat="48.02523" lon="7.49708">
        <ele>197.21</ele>
        <time>2017-01-26T09:55:06Z</time>
      </trkpt>
      <trkpt lat="48.02518" lon="7.49695">
        <ele>196.25</ele>
        <time>2017-01-26T09:55:12Z</time>
      </trkpt>
      <trkpt lat="48.02512" lon="7.49682">
        <ele>196.25</ele>
        <time>2017-01-26T09:55:19Z</time>
      </trkpt>
      <trkpt lat="48.02507" lon="7.4967">
        <ele>196.25</ele>
        <time>2017-01-26T09:55:25Z</time>
      </trkpt>
      <trkpt lat="48.02502" lon="7.49658">
        <ele>197.21</ele>
        <time>2017-01-26T09:55:31Z</time>
      </trkpt>
      <trkpt lat="48.02497" lon="7.49643">
        <ele>196.73</ele>
        <time>2017-01-26T09:55:38Z</time>
      </trkpt>
      <trkpt lat="48.0249" lon="7.49632">
        <ele>197.21</ele>
        <time>2017-01-26T09:55:44Z</time>
      </trkpt>
      <trkpt lat="48.02484" lon="7.49619">
        <ele>197.21</ele>
        <time>2017-01-26T09:55:49Z</time>
      </trkpt>
      <trkpt lat="48.02477" lon="7.49607">
        <ele>197.21</ele>
        <time>2017-01-26T09:55:54Z</time>
      </trkpt>
      <trkpt lat="48.02472" lon="7.49597">
        <ele>197.21</ele>
        <time>2017-01-26T09:55:59Z</time>
      </trkpt>
      <trkpt lat="48.02468" lon="7.49587">
        <ele>196.73</ele>
        <time>2017-01-26T09:56:04Z</time>
      </trkpt>
      <trkpt lat="48.02464" lon="7.49577">
        <ele>197.21</ele>
        <time>2017-01-26T09:56:09Z</time>
      </trkpt>
      <trkpt lat="48.02459" lon="7.49565">
        <ele>197.21</ele>
        <time>2017-01-26T09:56:15Z</time>
      </trkpt>
      <trkpt lat="48.02454" lon="7.49553">
        <ele>197.69</ele>
        <time>2017-01-26T09:56:21Z</time>
      </trkpt>
      <trkpt lat="48.0245" lon="7.49543">
        <ele>197.69</ele>
        <time>2017-01-26T09:56:27Z</time>
      </trkpt>
      <trkpt lat="48.02446" lon="7.49531">
        <ele>198.17</ele>
        <time>2017-01-26T09:56:35Z</time>
      </trkpt>
      <trkpt lat="48.0244" lon="7.49518">
        <ele>198.17</ele>
        <time>2017-01-26T09:56:42Z</time>
      </trkpt>
      <trkpt lat="48.02435" lon="7.49506">
        <ele>198.17</ele>
        <time>2017-01-26T09:56:48Z</time>
      </trkpt>
      <trkpt lat="48.02429" lon="7.49494">
        <ele>198.17</ele>
        <time>2017-01-26T09:56:54Z</time>
      </trkpt>
      <trkpt lat="48.02423" lon="7.4948">
        <ele>198.17</ele>
        <time>2017-01-26T09:57:01Z</time>
      </trkpt>
      <trkpt lat="48.0242" lon="7.49467">
        <ele>198.17</ele>
        <time>2017-01-26T09:57:07Z</time>
      </trkpt>
      <trkpt lat="48.02415" lon="7.49453">
        <ele>198.17</ele>
        <time>2017-01-26T09:57:13Z</time>
      </trkpt>
      <trkpt lat="48.02413" lon="7.49439">
        <ele>198.17</ele>
        <time>2017-01-26T09:57:19Z</time>
      </trkpt>
      <trkpt lat="48.0241" lon="7.49426">
        <ele>198.17</ele>
        <time>2017-01-26T09:57:25Z</time>
      </trkpt>
      <trkpt lat="48.02405" lon="7.49411">
        <ele>198.17</ele>
        <time>2017-01-26T09:57:32Z</time>
      </trkpt>
      <trkpt lat="48.02402" lon="7.49396">
        <ele>198.17</ele>
        <time>2017-01-26T09:57:39Z</time>
      </trkpt>
      <trkpt lat="48.02399" lon="7.49383">
        <ele>198.17</ele>
        <time>2017-01-26T09:57:46Z</time>
      </trkpt>
      <trkpt lat="48.02397" lon="7.4937">
        <ele>198.17</ele>
        <time>2017-01-26T09:57:53Z</time>
      </trkpt>
      <trkpt lat="48.02393" lon="7.49357">
        <ele>198.17</ele>
        <time>2017-01-26T09:58:00Z</time>
      </trkpt>
      <trkpt lat="48.0239" lon="7.49343">
        <ele>198.17</ele>
        <time>2017-01-26T09:58:08Z</time>
      </trkpt>
      <trkpt lat="48.02388" lon="7.4933">
        <ele>198.17</ele>
        <time>2017-01-26T09:58:15Z</time>
      </trkpt>
      <trkpt lat="48.02385" lon="7.49316">
        <ele>198.17</ele>
        <time>2017-01-26T09:58:22Z</time>
      </trkpt>
      <trkpt lat="48.02382" lon="7.49303">
        <ele>198.17</ele>
        <time>2017-01-26T09:58:30Z</time>
      </trkpt>
      <trkpt lat="48.02379" lon="7.4929">
        <ele>198.17</ele>
        <time>2017-01-26T09:58:37Z</time>
      </trkpt>
      <trkpt lat="48.02376" lon="7.49276">
        <ele>198.65</ele>
        <time>2017-01-26T09:58:45Z</time>
      </trkpt>
      <trkpt lat="48.02373" lon="7.49262">
        <ele>198.17</ele>
        <time>2017-01-26T09:58:54Z</time>
      </trkpt>
      <trkpt lat="48.02371" lon="7.49248">
        <ele>198.65</ele>
        <time>2017-01-26T09:59:03Z</time>
      </trkpt>
      <trkpt lat="48.02368" lon="7.49236">
        <ele>197.21</ele>
        <time>2017-01-26T10:00:03Z</time>
      </trkpt>
      <trkpt lat="48.02364" lon="7.49223">
        <ele>198.17</ele>
        <time>2017-01-26T10:00:08Z</time>
      </trkpt>
      <trkpt lat="48.02363" lon="7.49211">
        <ele>198.17</ele>
        <time>2017-01-26T10:00:14Z</time>
      </trkpt>
      <trkpt lat="48.02362" lon="7.49198">
        <ele>198.65</ele>
        <time>2017-01-26T10:00:21Z</time>
      </trkpt>
      <trkpt lat="48.0236" lon="7.49182">
        <ele>198.65</ele>
        <time>2017-01-26T10:00:29Z</time>
      </trkpt>
      <trkpt lat="48.02358" lon="7.49166">
        <ele>200.09</ele>
        <time>2017-01-26T10:00:36Z</time>
      </trkpt>
      <trkpt lat="48.02355" lon="7.49153">
        <ele>195.28</ele>
        <time>2017-01-26T10:00:42Z</time>
      </trkpt>
      <trkpt lat="48.02353" lon="7.49133">
        <ele>200.57</ele>
        <time>2017-01-26T10:00:49Z</time>
      </trkpt>
      <trkpt lat="48.02352" lon="7.49116">
        <ele>198.17</ele>
        <time>2017-01-26T10:00:56Z</time>
      </trkpt>
      <trkpt lat="48.02351" lon="7.49098">
        <ele>197.21</ele>
        <time>2017-01-26T10:01:04Z</time>
      </trkpt>
      <trkpt lat="48.02348" lon="7.4908">
        <ele>195.77</ele>
        <time>2017-01-26T10:01:12Z</time>
      </trkpt>
      <trkpt lat="48.02347" lon="7.49062">
        <ele>201.53</ele>
        <time>2017-01-26T10:01:19Z</time>
      </trkpt>
      <trkpt lat="48.02344" lon="7.49044">
        <ele>195.28</ele>
        <time>2017-01-26T10:01:26Z</time>
      </trkpt>
      <trkpt lat="48.02339" lon="7.49027">
        <ele>200.57</ele>
        <time>2017-01-26T10:01:32Z</time>
      </trkpt>
      <trkpt lat="48.02337" lon="7.49014">
        <ele>199.61</ele>
        <time>2017-01-26T10:01:38Z</time>
      </trkpt>
      <trkpt lat="48.02337" lon="7.48998">
        <ele>195.77</ele>
        <time>2017-01-26T10:01:45Z</time>
      </trkpt>
      <trkpt lat="48.02334" lon="7.48982">
        <ele>199.61</ele>
        <time>2017-01-26T10:01:52Z</time>
      </trkpt>
      <trkpt lat="48.02332" lon="7.48964">
        <ele>196.73</ele>
        <time>2017-01-26T10:02:00Z</time>
      </trkpt>
      <trkpt lat="48.02329" lon="7.48947">
        <ele>196.73</ele>
        <time>2017-01-26T10:02:07Z</time>
      </trkpt>
      <trkpt lat="48.02329" lon="7.48932">
        <ele>199.61</ele>
        <time>2017-01-26T10:02:13Z</time>
      </trkpt>
      <trkpt lat="48.02327" lon="7.48916">
        <ele>198.17</ele>
        <time>2017-01-26T10:02:19Z</time>
      </trkpt>
      <trkpt lat="48.02324" lon="7.48901">
        <ele>195.28</ele>
        <time>2017-01-26T10:02:25Z</time>
      </trkpt>
      <trkpt lat="48.0232" lon="7.48887">
        <ele>200.57</ele>
        <time>2017-01-26T10:02:31Z</time>
      </trkpt>
      <trkpt lat="48.02318" lon="7.48869">
        <ele>199.13</ele>
        <time>2017-01-26T10:02:39Z</time>
      </trkpt>
      <trkpt lat="48.02316" lon="7.48852">
        <ele>199.61</ele>
        <time>2017-01-26T10:02:46Z</time>
      </trkpt>
      <trkpt lat="48.02314" lon="7.48836">
        <ele>197.69</ele>
        <time>2017-01-26T10:02:52Z</time>
      </trkpt>
      <trkpt lat="48.0231" lon="7.48824">
        <ele>193.84</ele>
        <time>2017-01-26T10:02:58Z</time>
      </trkpt>
      <trkpt lat="48.0231" lon="7.48805">
        <ele>201.05</ele>
        <time>2017-01-26T10:03:05Z</time>
      </trkpt>
      <trkpt lat="48.02309" lon="7.4879">
        <ele>196.73</ele>
        <time>2017-01-26T10:03:11Z</time>
      </trkpt>
      <trkpt lat="48.02303" lon="7.48775">
        <ele>197.21</ele>
        <time>2017-01-26T10:03:18Z</time>
      </trkpt>
      <trkpt lat="48.02301" lon="7.48758">
        <ele>200.57</ele>
        <time>2017-01-26T10:03:24Z</time>
      </trkpt>
      <trkpt lat="48.02299" lon="7.48741">
        <ele>195.28</ele>
        <time>2017-01-26T10:03:30Z</time>
      </trkpt>
      <trkpt lat="48.02298" lon="7.48724">
        <ele>196.25</ele>
        <time>2017-01-26T10:03:37Z</time>
      </trkpt>
      <trkpt lat="48.02294" lon="7.48709">
        <ele>198.65</ele>
        <time>2017-01-26T10:03:44Z</time>
      </trkpt>
      <trkpt lat="48.02293" lon="7.48693">
        <ele>197.69</ele>
        <time>2017-01-26T10:03:50Z</time>
      </trkpt>
      <trkpt lat="48.02291" lon="7.48678">
        <ele>201.53</ele>
        <time>2017-01-26T10:03:56Z</time>
      </trkpt>
      <trkpt lat="48.02287" lon="7.48664">
        <ele>197.21</ele>
        <time>2017-01-26T10:04:03Z</time>
      </trkpt>
      <trkpt lat="48.02285" lon="7.48647">
        <ele>195.77</ele>
        <time>2017-01-26T10:04:10Z</time>
      </trkpt>
      <trkpt lat="48.02281" lon="7.4863">
        <ele>200.09</ele>
        <time>2017-01-26T10:04:17Z</time>
      </trkpt>
      <trkpt lat="48.02278" lon="7.48613">
        <ele>200.57</ele>
        <time>2017-01-26T10:04:24Z</time>
      </trkpt>
      <trkpt lat="48.02276" lon="7.48596">
        <ele>200.09</ele>
        <time>2017-01-26T10:04:30Z</time>
      </trkpt>
      <trkpt lat="48.02274" lon="7.48582">
        <ele>195.77</ele>
        <time>2017-01-26T10:04:36Z</time>
      </trkpt>
      <trkpt lat="48.02271" lon="7.48567">
        <ele>199.13</ele>
        <time>2017-01-26T10:04:43Z</time>
      </trkpt>
      <trkpt lat="48.02269" lon="7.48549">
        <ele>197.69</ele>
        <time>2017-01-26T10:04:51Z</time>
      </trkpt>
      <trkpt lat="48.02266" lon="7.4853">
        <ele>199.13</ele>
        <time>2017-01-26T10:04:59Z</time>
      </trkpt>
      <trkpt lat="48.02263" lon="7.48513">
        <ele>198.65</ele>
        <time>2017-01-26T10:05:06Z</time>
      </trkpt>
      <trkpt lat="48.02261" lon="7.48495">
        <ele>201.05</ele>
        <time>2017-01-26T10:05:14Z</time>
      </trkpt>
      <trkpt lat="48.02259" lon="7.4848">
        <ele>199.13</ele>
        <time>2017-01-26T10:05:20Z</time>
      </trkpt>
      <trkpt lat="48.02256" lon="7.48463">
        <ele>199.61</ele>
        <time>2017-01-26T10:05:28Z</time>
      </trkpt>
      <trkpt lat="48.02256" lon="7.48445">
        <ele>194.8</ele>
        <time>2017-01-26T10:05:35Z</time>
      </trkpt>
      <trkpt lat="48.02254" lon="7.48427">
        <ele>200.09</ele>
        <time>2017-01-26T10:05:45Z</time>
      </trkpt>
      <trkpt lat="48.02251" lon="7.4841">
        <ele>199.13</ele>
        <time>2017-01-26T10:05:52Z</time>
      </trkpt>
      <trkpt lat="48.02249" lon="7.48394">
        <ele>197.21</ele>
        <time>2017-01-26T10:05:59Z</time>
      </trkpt>
      <trkpt lat="48.02245" lon="7.48377">
        <ele>196.25</ele>
        <time>2017-01-26T10:06:05Z</time>
      </trkpt>
      <trkpt lat="48.02243" lon="7.4836">
        <ele>196.73</ele>
        <time>2017-01-26T10:06:12Z</time>
      </trkpt>
      <trkpt lat="48.0224" lon="7.48339">
        <ele>196.73</ele>
        <time>2017-01-26T10:06:21Z</time>
      </trkpt>
      <trkpt lat="48.02237" lon="7.48319">
        <ele>198.65</ele>
        <time>2017-01-26T10:06:29Z</time>
      </trkpt>
      <trkpt lat="48.02236" lon="7.48302">
        <ele>198.17</ele>
        <time>2017-01-26T10:06:35Z</time>
      </trkpt>
      <trkpt lat="48.02233" lon="7.48285">
        <ele>199.61</ele>
        <time>2017-01-26T10:06:41Z</time>
      </trkpt>
      <trkpt lat="48.02229" lon="7.4827">
        <ele>196.73</ele>
        <time>2017-01-26T10:06:48Z</time>
      </trkpt>
      <trkpt lat="48.02228" lon="7.48249">
        <ele>199.13</ele>
        <time>2017-01-26T10:06:58Z</time>
      </trkpt>
      <trkpt lat="48.02225" lon="7.48234">
        <ele>201.05</ele>
        <time>2017-01-26T10:07:05Z</time>
      </trkpt>
      <trkpt lat="48.02224" lon="7.48218">
        <ele>197.21</ele>
        <time>2017-01-26T10:07:11Z</time>
      </trkpt>
      <trkpt lat="48.02219" lon="7.48204">
        <ele>196.73</ele>
        <time>2017-01-26T10:07:17Z</time>
      </trkpt>
      <trkpt lat="48.02215" lon="7.48189">
        <ele>196.73</ele>
        <time>2017-01-26T10:07:24Z</time>
      </trkpt>
      <trkpt lat="48.02217" lon="7.48167">
        <ele>197.21</ele>
        <time>2017-01-26T10:07:33Z</time>
      </trkpt>
      <trkpt lat="48.02215" lon="7.48147">
        <ele>197.69</ele>
        <time>2017-01-26T10:07:42Z</time>
      </trkpt>
      <trkpt lat="48.02211" lon="7.48123">
        <ele>194.32</ele>
        <time>2017-01-26T10:07:51Z</time>
      </trkpt>
      <trkpt lat="48.02208" lon="7.48106">
        <ele>200.57</ele>
        <time>2017-01-26T10:07:57Z</time>
      </trkpt>
      <trkpt lat="48.02204" lon="7.48091">
        <ele>196.25</ele>
        <time>2017-01-26T10:08:03Z</time>
      </trkpt>
      <trkpt lat="48.02202" lon="7.48074">
        <ele>196.73</ele>
        <time>2017-01-26T10:08:12Z</time>
      </trkpt>
      <trkpt lat="48.02197" lon="7.48051">
        <ele>198.17</ele>
        <time>2017-01-26T10:08:21Z</time>
      </trkpt>
      <trkpt lat="48.02192" lon="7.48034">
        <ele>197.69</ele>
        <time>2017-01-26T10:08:26Z</time>
      </trkpt>
      <trkpt lat="48.02188" lon="7.48015">
        <ele>198.65</ele>
        <time>2017-01-26T10:08:33Z</time>
      </trkpt>
      <trkpt lat="48.02184" lon="7.47998">
        <ele>198.17</ele>
        <time>2017-01-26T10:08:39Z</time>
      </trkpt>
      <trkpt lat="48.02182" lon="7.47981">
        <ele>198.17</ele>
        <time>2017-01-26T10:08:46Z</time>
      </trkpt>
      <trkpt lat="48.0218" lon="7.47964">
        <ele>198.17</ele>
        <time>2017-01-26T10:08:53Z</time>
      </trkpt>
      <trkpt lat="48.02179" lon="7.47946">
        <ele>198.17</ele>
        <time>2017-01-26T10:09:01Z</time>
      </trkpt>
      <trkpt lat="48.02178" lon="7.4793">
        <ele>197.21</ele>
        <time>2017-01-26T10:09:08Z</time>
      </trkpt>
      <trkpt lat="48.02181" lon="7.47915">
        <ele>199.13</ele>
        <time>2017-01-26T10:09:15Z</time>
      </trkpt>
      <trkpt lat="48.02181" lon="7.479">
        <ele>198.17</ele>
        <time>2017-01-26T10:09:21Z</time>
      </trkpt>
      <trkpt lat="48.02177" lon="7.47884">
        <ele>197.21</ele>
        <time>2017-01-26T10:09:28Z</time>
      </trkpt>
      <trkpt lat="48.02175" lon="7.47867">
        <ele>199.61</ele>
        <time>2017-01-26T10:09:35Z</time>
      </trkpt>
      <trkpt lat="48.0217" lon="7.47842">
        <ele>199.13</ele>
        <time>2017-01-26T10:09:48Z</time>
      </trkpt>
      <trkpt lat="48.02166" lon="7.47824">
        <ele>197.69</ele>
        <time>2017-01-26T10:09:55Z</time>
      </trkpt>
      <trkpt lat="48.02164" lon="7.47806">
        <ele>195.28</ele>
        <time>2017-01-26T10:10:03Z</time>
      </trkpt>
      <trkpt lat="48.02162" lon="7.47789">
        <ele>197.21</ele>
        <time>2017-01-26T10:10:11Z</time>
      </trkpt>
      <trkpt lat="48.0216" lon="7.47773">
        <ele>201.05</ele>
        <time>2017-01-26T10:10:18Z</time>
      </trkpt>
      <trkpt lat="48.02153" lon="7.4775">
        <ele>199.13</ele>
        <time>2017-01-26T10:10:26Z</time>
      </trkpt>
      <trkpt lat="48.02148" lon="7.47732">
        <ele>197.21</ele>
        <time>2017-01-26T10:10:33Z</time>
      </trkpt>
      <trkpt lat="48.0215" lon="7.47714">
        <ele>197.21</ele>
        <time>2017-01-26T10:10:40Z</time>
      </trkpt>
      <trkpt lat="48.02158" lon="7.47707">
        <ele>201.05</ele>
        <time>2017-01-26T10:10:47Z</time>
      </trkpt>
      <trkpt lat="48.02167" lon="7.47703">
        <ele>201.05</ele>
        <time>2017-01-26T10:10:54Z</time>
      </trkpt>
      <trkpt lat="48.02176" lon="7.47699">
        <ele>198.17</ele>
        <time>2017-01-26T10:11:02Z</time>
      </trkpt>
      <trkpt lat="48.02187" lon="7.47695">
        <ele>200.09</ele>
        <time>2017-01-26T10:11:10Z</time>
      </trkpt>
      <trkpt lat="48.022" lon="7.47688">
        <ele>200.57</ele>
        <time>2017-01-26T10:11:18Z</time>
      </trkpt>
      <trkpt lat="48.02211" lon="7.47683">
        <ele>198.17</ele>
        <time>2017-01-26T10:11:25Z</time>
      </trkpt>
      <trkpt lat="48.02222" lon="7.47678">
        <ele>201.53</ele>
        <time>2017-01-26T10:11:32Z</time>
      </trkpt>
      <trkpt lat="48.02234" lon="7.47671">
        <ele>198.17</ele>
        <time>2017-01-26T10:11:39Z</time>
      </trkpt>
      <trkpt lat="48.02245" lon="7.47665">
        <ele>199.13</ele>
        <time>2017-01-26T10:11:46Z</time>
      </trkpt>
      <trkpt lat="48.02256" lon="7.47659">
        <ele>199.61</ele>
        <time>2017-01-26T10:11:53Z</time>
      </trkpt>
      <trkpt lat="48.02267" lon="7.47653">
        <ele>199.61</ele>
        <time>2017-01-26T10:12:00Z</time>
      </trkpt>
      <trkpt lat="48.02279" lon="7.47647">
        <ele>197.21</ele>
        <time>2017-01-26T10:12:07Z</time>
      </trkpt>
      <trkpt lat="48.0229" lon="7.47642">
        <ele>197.21</ele>
        <time>2017-01-26T10:12:14Z</time>
      </trkpt>
      <trkpt lat="48.023" lon="7.47638">
        <ele>200.09</ele>
        <time>2017-01-26T10:12:21Z</time>
      </trkpt>
      <trkpt lat="48.02312" lon="7.4763">
        <ele>201.05</ele>
        <time>2017-01-26T10:12:29Z</time>
      </trkpt>
      <trkpt lat="48.02323" lon="7.47626">
        <ele>198.65</ele>
        <time>2017-01-26T10:12:35Z</time>
      </trkpt>
      <trkpt lat="48.02333" lon="7.4762">
        <ele>198.65</ele>
        <time>2017-01-26T10:12:41Z</time>
      </trkpt>
      <trkpt lat="48.02343" lon="7.47615">
        <ele>198.65</ele>
        <time>2017-01-26T10:12:48Z</time>
      </trkpt>
      <trkpt lat="48.02353" lon="7.47609">
        <ele>199.13</ele>
        <time>2017-01-26T10:12:55Z</time>
      </trkpt>
      <trkpt lat="48.02365" lon="7.47603">
        <ele>201.53</ele>
        <time>2017-01-26T10:13:03Z</time>
      </trkpt>
      <trkpt lat="48.02376" lon="7.47599">
        <ele>198.17</ele>
        <time>2017-01-26T10:13:09Z</time>
      </trkpt>
      <trkpt lat="48.02385" lon="7.47595">
        <ele>198.17</ele>
        <time>2017-01-26T10:13:14Z</time>
      </trkpt>
      <trkpt lat="48.02395" lon="7.4759">
        <ele>200.09</ele>
        <time>2017-01-26T10:13:20Z</time>
      </trkpt>
      <trkpt lat="48.02404" lon="7.47585">
        <ele>197.21</ele>
        <time>2017-01-26T10:13:26Z</time>
      </trkpt>
      <trkpt lat="48.02414" lon="7.47579">
        <ele>198.65</ele>
        <time>2017-01-26T10:13:33Z</time>
      </trkpt>
      <trkpt lat="48.02425" lon="7.47575">
        <ele>200.57</ele>
        <time>2017-01-26T10:13:39Z</time>
      </trkpt>
      <trkpt lat="48.02434" lon="7.47571">
        <ele>195.28</ele>
        <time>2017-01-26T10:13:45Z</time>
      </trkpt>
      <trkpt lat="48.02445" lon="7.47567">
        <ele>198.65</ele>
        <time>2017-01-26T10:13:52Z</time>
      </trkpt>
      <trkpt lat="48.02455" lon="7.47561">
        <ele>198.17</ele>
        <time>2017-01-26T10:13:59Z</time>
      </trkpt>
      <trkpt lat="48.02466" lon="7.47556">
        <ele>197.69</ele>
        <time>2017-01-26T10:14:06Z</time>
      </trkpt>
      <trkpt lat="48.02477" lon="7.4755">
        <ele>202.01</ele>
        <time>2017-01-26T10:14:12Z</time>
      </trkpt>
      <trkpt lat="48.02486" lon="7.47547">
        <ele>197.69</ele>
        <time>2017-01-26T10:14:18Z</time>
      </trkpt>
      <trkpt lat="48.02494" lon="7.47542">
        <ele>197.69</ele>
        <time>2017-01-26T10:14:24Z</time>
      </trkpt>
      <trkpt lat="48.02508" lon="7.47534">
        <ele>198.65</ele>
        <time>2017-01-26T10:14:33Z</time>
      </trkpt>
      <trkpt lat="48.02519" lon="7.47528">
        <ele>198.17</ele>
        <time>2017-01-26T10:14:40Z</time>
      </trkpt>
      <trkpt lat="48.0253" lon="7.47522">
        <ele>199.13</ele>
        <time>2017-01-26T10:14:46Z</time>
      </trkpt>
      <trkpt lat="48.02541" lon="7.47518">
        <ele>198.65</ele>
        <time>2017-01-26T10:14:53Z</time>
      </trkpt>
      <trkpt lat="48.02552" lon="7.47511">
        <ele>198.65</ele>
        <time>2017-01-26T10:15:00Z</time>
      </trkpt>
      <trkpt lat="48.02563" lon="7.47507">
        <ele>198.65</ele>
        <time>2017-01-26T10:15:07Z</time>
      </trkpt>
      <trkpt lat="48.02574" lon="7.47501">
        <ele>198.17</ele>
        <time>2017-01-26T10:15:15Z</time>
      </trkpt>
      <trkpt lat="48.02586" lon="7.47496">
        <ele>198.65</ele>
        <time>2017-01-26T10:15:23Z</time>
      </trkpt>
      <trkpt lat="48.02596" lon="7.47491">
        <ele>198.65</ele>
        <time>2017-01-26T10:15:29Z</time>
      </trkpt>
      <trkpt lat="48.02606" lon="7.47487">
        <ele>198.65</ele>
        <time>2017-01-26T10:15:35Z</time>
      </trkpt>
      <trkpt lat="48.02615" lon="7.47482">
        <ele>198.65</ele>
        <time>2017-01-26T10:15:41Z</time>
      </trkpt>
      <trkpt lat="48.02625" lon="7.47477">
        <ele>199.13</ele>
        <time>2017-01-26T10:15:48Z</time>
      </trkpt>
      <trkpt lat="48.02634" lon="7.47472">
        <ele>199.13</ele>
        <time>2017-01-26T10:15:55Z</time>
      </trkpt>
      <trkpt lat="48.02645" lon="7.47466">
        <ele>198.65</ele>
        <time>2017-01-26T10:16:02Z</time>
      </trkpt>
      <trkpt lat="48.02656" lon="7.47461">
        <ele>198.65</ele>
        <time>2017-01-26T10:16:09Z</time>
      </trkpt>
      <trkpt lat="48.02667" lon="7.47457">
        <ele>198.65</ele>
        <time>2017-01-26T10:16:16Z</time>
      </trkpt>
      <trkpt lat="48.02678" lon="7.47453">
        <ele>198.65</ele>
        <time>2017-01-26T10:16:22Z</time>
      </trkpt>
      <trkpt lat="48.02687" lon="7.47447">
        <ele>198.65</ele>
        <time>2017-01-26T10:16:28Z</time>
      </trkpt>
      <trkpt lat="48.02697" lon="7.47442">
        <ele>198.65</ele>
        <time>2017-01-26T10:16:35Z</time>
      </trkpt>
      <trkpt lat="48.02707" lon="7.47435">
        <ele>198.65</ele>
        <time>2017-01-26T10:16:42Z</time>
      </trkpt>
      <trkpt lat="48.02718" lon="7.47429">
        <ele>198.65</ele>
        <time>2017-01-26T10:16:50Z</time>
      </trkpt>
      <trkpt lat="48.0273" lon="7.47425">
        <ele>199.13</ele>
        <time>2017-01-26T10:16:57Z</time>
      </trkpt>
      <trkpt lat="48.0274" lon="7.4742">
        <ele>199.13</ele>
        <time>2017-01-26T10:17:03Z</time>
      </trkpt>
      <trkpt lat="48.0275" lon="7.47416">
        <ele>198.65</ele>
        <time>2017-01-26T10:17:09Z</time>
      </trkpt>
      <trkpt lat="48.02759" lon="7.4741">
        <ele>199.13</ele>
        <time>2017-01-26T10:17:16Z</time>
      </trkpt>
      <trkpt lat="48.02769" lon="7.47407">
        <ele>199.13</ele>
        <time>2017-01-26T10:17:27Z</time>
      </trkpt>
      <trkpt lat="48.02779" lon="7.47406">
        <ele>199.13</ele>
        <time>2017-01-26T10:17:33Z</time>
      </trkpt>
      <trkpt lat="48.02788" lon="7.4741">
        <ele>198.65</ele>
        <time>2017-01-26T10:17:40Z</time>
      </trkpt>
      <trkpt lat="48.02799" lon="7.47414">
        <ele>198.65</ele>
        <time>2017-01-26T10:17:47Z</time>
      </trkpt>
      <trkpt lat="48.02811" lon="7.4742">
        <ele>198.65</ele>
        <time>2017-01-26T10:17:54Z</time>
      </trkpt>
      <trkpt lat="48.02821" lon="7.47424">
        <ele>198.65</ele>
        <time>2017-01-26T10:18:00Z</time>
      </trkpt>
      <trkpt lat="48.02832" lon="7.47428">
        <ele>198.65</ele>
        <time>2017-01-26T10:18:07Z</time>
      </trkpt>
      <trkpt lat="48.02844" lon="7.47432">
        <ele>198.65</ele>
        <time>2017-01-26T10:18:14Z</time>
      </trkpt>
      <trkpt lat="48.02855" lon="7.47436">
        <ele>196.73</ele>
        <time>2017-01-26T10:18:21Z</time>
      </trkpt>
      <trkpt lat="48.02863" lon="7.47444">
        <ele>198.65</ele>
        <time>2017-01-26T10:18:28Z</time>
      </trkpt>
      <trkpt lat="48.02873" lon="7.4745">
        <ele>199.61</ele>
        <time>2017-01-26T10:18:35Z</time>
      </trkpt>
      <trkpt lat="48.02882" lon="7.47456">
        <ele>195.28</ele>
        <time>2017-01-26T10:18:41Z</time>
      </trkpt>
      <trkpt lat="48.02892" lon="7.47461">
        <ele>200.09</ele>
        <time>2017-01-26T10:18:48Z</time>
      </trkpt>
      <trkpt lat="48.02903" lon="7.47466">
        <ele>194.32</ele>
        <time>2017-01-26T10:18:55Z</time>
      </trkpt>
      <trkpt lat="48.02914" lon="7.47468">
        <ele>197.69</ele>
        <time>2017-01-26T10:19:03Z</time>
      </trkpt>
      <trkpt lat="48.02923" lon="7.4747">
        <ele>197.69</ele>
        <time>2017-01-26T10:19:09Z</time>
      </trkpt>
      <trkpt lat="48.02935" lon="7.47475">
        <ele>196.73</ele>
        <time>2017-01-26T10:19:16Z</time>
      </trkpt>
      <trkpt lat="48.02945" lon="7.4748">
        <ele>199.13</ele>
        <time>2017-01-26T10:19:23Z</time>
      </trkpt>
      <trkpt lat="48.02955" lon="7.47482">
        <ele>197.69</ele>
        <time>2017-01-26T10:19:29Z</time>
      </trkpt>
      <trkpt lat="48.02965" lon="7.47489">
        <ele>199.13</ele>
        <time>2017-01-26T10:19:36Z</time>
      </trkpt>
      <trkpt lat="48.02979" lon="7.47487">
        <ele>197.69</ele>
        <time>2017-01-26T10:19:43Z</time>
      </trkpt>
      <trkpt lat="48.02991" lon="7.4749">
        <ele>198.17</ele>
        <time>2017-01-26T10:19:50Z</time>
      </trkpt>
      <trkpt lat="48.03002" lon="7.47493">
        <ele>197.69</ele>
        <time>2017-01-26T10:19:58Z</time>
      </trkpt>
      <trkpt lat="48.03013" lon="7.47499">
        <ele>197.69</ele>
        <time>2017-01-26T10:20:05Z</time>
      </trkpt>
      <trkpt lat="48.03024" lon="7.47506">
        <ele>197.21</ele>
        <time>2017-01-26T10:20:13Z</time>
      </trkpt>
      <trkpt lat="48.03036" lon="7.4751">
        <ele>197.21</ele>
        <time>2017-01-26T10:20:21Z</time>
      </trkpt>
      <trkpt lat="48.03049" lon="7.47515">
        <ele>197.69</ele>
        <time>2017-01-26T10:20:30Z</time>
      </trkpt>
      <trkpt lat="48.03061" lon="7.47521">
        <ele>198.65</ele>
        <time>2017-01-26T10:20:37Z</time>
      </trkpt>
      <trkpt lat="48.03072" lon="7.47526">
        <ele>197.21</ele>
        <time>2017-01-26T10:20:44Z</time>
      </trkpt>
      <trkpt lat="48.03082" lon="7.47529">
        <ele>196.73</ele>
        <time>2017-01-26T10:20:50Z</time>
      </trkpt>
      <trkpt lat="48.03091" lon="7.47535">
        <ele>199.61</ele>
        <time>2017-01-26T10:20:57Z</time>
      </trkpt>
      <trkpt lat="48.03101" lon="7.47539">
        <ele>198.17</ele>
        <time>2017-01-26T10:21:06Z</time>
      </trkpt>
      <trkpt lat="48.03114" lon="7.47547">
        <ele>198.17</ele>
        <time>2017-01-26T10:21:15Z</time>
      </trkpt>
      <trkpt lat="48.03126" lon="7.47553">
        <ele>198.17</ele>
        <time>2017-01-26T10:21:22Z</time>
      </trkpt>
      <trkpt lat="48.03136" lon="7.47557">
        <ele>199.13</ele>
        <time>2017-01-26T10:21:28Z</time>
      </trkpt>
      <trkpt lat="48.03147" lon="7.47564">
        <ele>195.77</ele>
        <time>2017-01-26T10:21:35Z</time>
      </trkpt>
      <trkpt lat="48.03157" lon="7.47568">
        <ele>199.61</ele>
        <time>2017-01-26T10:21:41Z</time>
      </trkpt>
      <trkpt lat="48.03167" lon="7.47569">
        <ele>196.25</ele>
        <time>2017-01-26T10:21:47Z</time>
      </trkpt>
      <trkpt lat="48.03177" lon="7.47574">
        <ele>198.65</ele>
        <time>2017-01-26T10:21:54Z</time>
      </trkpt>
      <trkpt lat="48.03189" lon="7.47579">
        <ele>196.25</ele>
        <time>2017-01-26T10:22:02Z</time>
      </trkpt>
      <trkpt lat="48.032" lon="7.47585">
        <ele>196.25</ele>
        <time>2017-01-26T10:22:11Z</time>
      </trkpt>
      <trkpt lat="48.03212" lon="7.47579">
        <ele>199.13</ele>
        <time>2017-01-26T10:22:18Z</time>
      </trkpt>
      <trkpt lat="48.03222" lon="7.47559">
        <ele>197.21</ele>
        <time>2017-01-26T10:22:25Z</time>
      </trkpt>
      <trkpt lat="48.03229" lon="7.47545">
        <ele>199.61</ele>
        <time>2017-01-26T10:22:31Z</time>
      </trkpt>
      <trkpt lat="48.03233" lon="7.47532">
        <ele>196.25</ele>
        <time>2017-01-26T10:22:37Z</time>
      </trkpt>
      <trkpt lat="48.03238" lon="7.47518">
        <ele>196.25</ele>
        <time>2017-01-26T10:22:43Z</time>
      </trkpt>
      <trkpt lat="48.03244" lon="7.47504">
        <ele>198.65</ele>
        <time>2017-01-26T10:22:49Z</time>
      </trkpt>
      <trkpt lat="48.03248" lon="7.4749">
        <ele>196.73</ele>
        <time>2017-01-26T10:22:55Z</time>
      </trkpt>
      <trkpt lat="48.03252" lon="7.47475">
        <ele>195.28</ele>
        <time>2017-01-26T10:23:02Z</time>
      </trkpt>
      <trkpt lat="48.03258" lon="7.47463">
        <ele>198.17</ele>
        <time>2017-01-26T10:23:08Z</time>
      </trkpt>
      <trkpt lat="48.03263" lon="7.47452">
        <ele>196.73</ele>
        <time>2017-01-26T10:23:13Z</time>
      </trkpt>
      <trkpt lat="48.03267" lon="7.47437">
        <ele>196.73</ele>
        <time>2017-01-26T10:23:19Z</time>
      </trkpt>
      <trkpt lat="48.03269" lon="7.47422">
        <ele>197.69</ele>
        <time>2017-01-26T10:23:25Z</time>
      </trkpt>
      <trkpt lat="48.03272" lon="7.47409">
        <ele>198.17</ele>
        <time>2017-01-26T10:23:32Z</time>
      </trkpt>
      <trkpt lat="48.03278" lon="7.47394">
        <ele>197.21</ele>
        <time>2017-01-26T10:23:39Z</time>
      </trkpt>
      <trkpt lat="48.03282" lon="7.4738">
        <ele>197.21</ele>
        <time>2017-01-26T10:23:45Z</time>
      </trkpt>
      <trkpt lat="48.03286" lon="7.47366">
        <ele>196.73</ele>
        <time>2017-01-26T10:23:51Z</time>
      </trkpt>
      <trkpt lat="48.03289" lon="7.47352">
        <ele>199.61</ele>
        <time>2017-01-26T10:23:57Z</time>
      </trkpt>
      <trkpt lat="48.03295" lon="7.47336">
        <ele>198.65</ele>
        <time>2017-01-26T10:24:05Z</time>
      </trkpt>
      <trkpt lat="48.03301" lon="7.47321">
        <ele>197.69</ele>
        <time>2017-01-26T10:24:12Z</time>
      </trkpt>
      <trkpt lat="48.03307" lon="7.47311">
        <ele>199.13</ele>
        <time>2017-01-26T10:24:17Z</time>
      </trkpt>
      <trkpt lat="48.03311" lon="7.47296">
        <ele>196.73</ele>
        <time>2017-01-26T10:24:23Z</time>
      </trkpt>
      <trkpt lat="48.03314" lon="7.4728">
        <ele>196.25</ele>
        <time>2017-01-26T10:24:29Z</time>
      </trkpt>
      <trkpt lat="48.03317" lon="7.47267">
        <ele>198.17</ele>
        <time>2017-01-26T10:24:35Z</time>
      </trkpt>
      <trkpt lat="48.03322" lon="7.47253">
        <ele>195.77</ele>
        <time>2017-01-26T10:24:42Z</time>
      </trkpt>
      <trkpt lat="48.03326" lon="7.47238">
        <ele>198.65</ele>
        <time>2017-01-26T10:24:49Z</time>
      </trkpt>
      <trkpt lat="48.03332" lon="7.47227">
        <ele>198.17</ele>
        <time>2017-01-26T10:24:56Z</time>
      </trkpt>
      <trkpt lat="48.03337" lon="7.4721">
        <ele>198.65</ele>
        <time>2017-01-26T10:25:04Z</time>
      </trkpt>
      <trkpt lat="48.03342" lon="7.47193">
        <ele>198.65</ele>
        <time>2017-01-26T10:25:11Z</time>
      </trkpt>
      <trkpt lat="48.03346" lon="7.47175">
        <ele>195.28</ele>
        <time>2017-01-26T10:25:18Z</time>
      </trkpt>
      <trkpt lat="48.03348" lon="7.4716">
        <ele>197.21</ele>
        <time>2017-01-26T10:25:25Z</time>
      </trkpt>
      <trkpt lat="48.03354" lon="7.47145">
        <ele>196.73</ele>
        <time>2017-01-26T10:25:33Z</time>
      </trkpt>
      <trkpt lat="48.0336" lon="7.47129">
        <ele>195.77</ele>
        <time>2017-01-26T10:25:40Z</time>
      </trkpt>
      <trkpt lat="48.03365" lon="7.47113">
        <ele>198.17</ele>
        <time>2017-01-26T10:25:47Z</time>
      </trkpt>
      <trkpt lat="48.0337" lon="7.47098">
        <ele>194.8</ele>
        <time>2017-01-26T10:25:54Z</time>
      </trkpt>
      <trkpt lat="48.03374" lon="7.47081">
        <ele>197.21</ele>
        <time>2017-01-26T10:26:01Z</time>
      </trkpt>
      <trkpt lat="48.03377" lon="7.47062">
        <ele>197.21</ele>
        <time>2017-01-26T10:26:08Z</time>
      </trkpt>
      <trkpt lat="48.03381" lon="7.47046">
        <ele>196.73</ele>
        <time>2017-01-26T10:26:15Z</time>
      </trkpt>
      <trkpt lat="48.03385" lon="7.47031">
        <ele>196.73</ele>
        <time>2017-01-26T10:26:22Z</time>
      </trkpt>
      <trkpt lat="48.0339" lon="7.47015">
        <ele>197.21</ele>
        <time>2017-01-26T10:26:29Z</time>
      </trkpt>
      <trkpt lat="48.03394" lon="7.47001">
        <ele>197.21</ele>
        <time>2017-01-26T10:26:35Z</time>
      </trkpt>
      <trkpt lat="48.03399" lon="7.46986">
        <ele>197.21</ele>
        <time>2017-01-26T10:26:41Z</time>
      </trkpt>
      <trkpt lat="48.03402" lon="7.46971">
        <ele>197.21</ele>
        <time>2017-01-26T10:26:48Z</time>
      </trkpt>
      <trkpt lat="48.03407" lon="7.46955">
        <ele>197.21</ele>
        <time>2017-01-26T10:26:55Z</time>
      </trkpt>
      <trkpt lat="48.03412" lon="7.46939">
        <ele>197.69</ele>
        <time>2017-01-26T10:27:03Z</time>
      </trkpt>
      <trkpt lat="48.03417" lon="7.46923">
        <ele>197.69</ele>
        <time>2017-01-26T10:27:10Z</time>
      </trkpt>
      <trkpt lat="48.03422" lon="7.4691">
        <ele>197.21</ele>
        <time>2017-01-26T10:27:16Z</time>
      </trkpt>
      <trkpt lat="48.0343" lon="7.46895">
        <ele>197.69</ele>
        <time>2017-01-26T10:27:22Z</time>
      </trkpt>
      <trkpt lat="48.03433" lon="7.4688">
        <ele>196.25</ele>
        <time>2017-01-26T10:27:28Z</time>
      </trkpt>
      <trkpt lat="48.03439" lon="7.46864">
        <ele>195.77</ele>
        <time>2017-01-26T10:27:35Z</time>
      </trkpt>
      <trkpt lat="48.03444" lon="7.46849">
        <ele>200.09</ele>
        <time>2017-01-26T10:27:41Z</time>
      </trkpt>
      <trkpt lat="48.03448" lon="7.46835">
        <ele>195.28</ele>
        <time>2017-01-26T10:27:47Z</time>
      </trkpt>
      <trkpt lat="48.03453" lon="7.46822">
        <ele>197.69</ele>
        <time>2017-01-26T10:27:53Z</time>
      </trkpt>
      <trkpt lat="48.03456" lon="7.46807">
        <ele>194.8</ele>
        <time>2017-01-26T10:27:59Z</time>
      </trkpt>
      <trkpt lat="48.0346" lon="7.46792">
        <ele>197.21</ele>
        <time>2017-01-26T10:28:05Z</time>
      </trkpt>
      <trkpt lat="48.03465" lon="7.46778">
        <ele>196.25</ele>
        <time>2017-01-26T10:28:11Z</time>
      </trkpt>
      <trkpt lat="48.0347" lon="7.46765">
        <ele>199.61</ele>
        <time>2017-01-26T10:28:16Z</time>
      </trkpt>
      <trkpt lat="48.03474" lon="7.46751">
        <ele>196.25</ele>
        <time>2017-01-26T10:28:22Z</time>
      </trkpt>
      <trkpt lat="48.03479" lon="7.46737">
        <ele>198.65</ele>
        <time>2017-01-26T10:28:28Z</time>
      </trkpt>
      <trkpt lat="48.03484" lon="7.46721">
        <ele>195.77</ele>
        <time>2017-01-26T10:28:35Z</time>
      </trkpt>
      <trkpt lat="48.03489" lon="7.46707">
        <ele>195.28</ele>
        <time>2017-01-26T10:28:41Z</time>
      </trkpt>
      <trkpt lat="48.03493" lon="7.46691">
        <ele>200.09</ele>
        <time>2017-01-26T10:28:48Z</time>
      </trkpt>
      <trkpt lat="48.03497" lon="7.46678">
        <ele>198.17</ele>
        <time>2017-01-26T10:28:54Z</time>
      </trkpt>
      <trkpt lat="48.035" lon="7.46663">
        <ele>197.21</ele>
        <time>2017-01-26T10:29:02Z</time>
      </trkpt>
      <trkpt lat="48.03508" lon="7.4665">
        <ele>194.8</ele>
        <time>2017-01-26T10:29:09Z</time>
      </trkpt>
      <trkpt lat="48.03514" lon="7.46634">
        <ele>196.25</ele>
        <time>2017-01-26T10:29:16Z</time>
      </trkpt>
      <trkpt lat="48.03519" lon="7.46617">
        <ele>195.28</ele>
        <time>2017-01-26T10:29:23Z</time>
      </trkpt>
      <trkpt lat="48.03526" lon="7.46601">
        <ele>195.77</ele>
        <time>2017-01-26T10:29:30Z</time>
      </trkpt>
      <trkpt lat="48.03531" lon="7.46583">
        <ele>195.77</ele>
        <time>2017-01-26T10:29:37Z</time>
      </trkpt>
      <trkpt lat="48.03535" lon="7.46567">
        <ele>195.77</ele>
        <time>2017-01-26T10:29:44Z</time>
      </trkpt>
      <trkpt lat="48.0354" lon="7.46553">
        <ele>198.65</ele>
        <time>2017-01-26T10:29:50Z</time>
      </trkpt>
      <trkpt lat="48.03543" lon="7.46537">
        <ele>196.73</ele>
        <time>2017-01-26T10:29:57Z</time>
      </trkpt>
      <trkpt lat="48.03547" lon="7.46523">
        <ele>196.73</ele>
        <time>2017-01-26T10:30:03Z</time>
      </trkpt>
      <trkpt lat="48.03551" lon="7.46507">
        <ele>195.77</ele>
        <time>2017-01-26T10:30:10Z</time>
      </trkpt>
      <trkpt lat="48.03553" lon="7.46491">
        <ele>197.21</ele>
        <time>2017-01-26T10:30:16Z</time>
      </trkpt>
      <trkpt lat="48.03557" lon="7.46476">
        <ele>196.73</ele>
        <time>2017-01-26T10:30:22Z</time>
      </trkpt>
      <trkpt lat="48.03562" lon="7.4646">
        <ele>196.73</ele>
        <time>2017-01-26T10:30:29Z</time>
      </trkpt>
      <trkpt lat="48.03567" lon="7.46447">
        <ele>197.21</ele>
        <time>2017-01-26T10:30:35Z</time>
      </trkpt>
      <trkpt lat="48.03571" lon="7.46435">
        <ele>196.73</ele>
        <time>2017-01-26T10:30:40Z</time>
      </trkpt>
      <trkpt lat="48.03574" lon="7.46421">
        <ele>194.8</ele>
        <time>2017-01-26T10:30:45Z</time>
      </trkpt>
      <trkpt lat="48.03579" lon="7.46406">
        <ele>195.77</ele>
        <time>2017-01-26T10:30:52Z</time>
      </trkpt>
      <trkpt lat="48.03584" lon="7.46394">
        <ele>194.8</ele>
        <time>2017-01-26T10:30:59Z</time>
      </trkpt>
      <trkpt lat="48.03588" lon="7.46378">
        <ele>194.8</ele>
        <time>2017-01-26T10:31:06Z</time>
      </trkpt>
      <trkpt lat="48.03593" lon="7.46362">
        <ele>196.73</ele>
        <time>2017-01-26T10:31:13Z</time>
      </trkpt>
      <trkpt lat="48.036" lon="7.46346">
        <ele>199.13</ele>
        <time>2017-01-26T10:31:20Z</time>
      </trkpt>
      <trkpt lat="48.03604" lon="7.46331">
        <ele>194.8</ele>
        <time>2017-01-26T10:31:26Z</time>
      </trkpt>
      <trkpt lat="48.03607" lon="7.46316">
        <ele>198.17</ele>
        <time>2017-01-26T10:31:32Z</time>
      </trkpt>
      <trkpt lat="48.0361" lon="7.46301">
        <ele>193.36</ele>
        <time>2017-01-26T10:31:39Z</time>
      </trkpt>
      <trkpt lat="48.03616" lon="7.46288">
        <ele>198.17</ele>
        <time>2017-01-26T10:31:45Z</time>
      </trkpt>
      <trkpt lat="48.03621" lon="7.46275">
        <ele>197.21</ele>
        <time>2017-01-26T10:31:52Z</time>
      </trkpt>
      <trkpt lat="48.03631" lon="7.46261">
        <ele>193.84</ele>
        <time>2017-01-26T10:31:59Z</time>
      </trkpt>
      <trkpt lat="48.03635" lon="7.46245">
        <ele>197.21</ele>
        <time>2017-01-26T10:32:06Z</time>
      </trkpt>
      <trkpt lat="48.0364" lon="7.46229">
        <ele>197.69</ele>
        <time>2017-01-26T10:32:16Z</time>
      </trkpt>
      <trkpt lat="48.03644" lon="7.46209">
        <ele>195.77</ele>
        <time>2017-01-26T10:32:25Z</time>
      </trkpt>
      <trkpt lat="48.03648" lon="7.4619">
        <ele>195.77</ele>
        <time>2017-01-26T10:32:32Z</time>
      </trkpt>
      <trkpt lat="48.03651" lon="7.46174">
        <ele>197.69</ele>
        <time>2017-01-26T10:32:38Z</time>
      </trkpt>
      <trkpt lat="48.03655" lon="7.46153">
        <ele>198.17</ele>
        <time>2017-01-26T10:32:48Z</time>
      </trkpt>
      <trkpt lat="48.0366" lon="7.46134">
        <ele>194.32</ele>
        <time>2017-01-26T10:32:55Z</time>
      </trkpt>
      <trkpt lat="48.03662" lon="7.46119">
        <ele>198.65</ele>
        <time>2017-01-26T10:33:01Z</time>
      </trkpt>
      <trkpt lat="48.03659" lon="7.46101">
        <ele>196.73</ele>
        <time>2017-01-26T10:33:08Z</time>
      </trkpt>
      <trkpt lat="48.03662" lon="7.46083">
        <ele>196.73</ele>
        <time>2017-01-26T10:33:16Z</time>
      </trkpt>
      <trkpt lat="48.03664" lon="7.46064">
        <ele>196.25</ele>
        <time>2017-01-26T10:33:23Z</time>
      </trkpt>
      <trkpt lat="48.03667" lon="7.46048">
        <ele>196.25</ele>
        <time>2017-01-26T10:33:30Z</time>
      </trkpt>
      <trkpt lat="48.0367" lon="7.46031">
        <ele>196.25</ele>
        <time>2017-01-26T10:33:37Z</time>
      </trkpt>
      <trkpt lat="48.03672" lon="7.46015">
        <ele>195.77</ele>
        <time>2017-01-26T10:33:43Z</time>
      </trkpt>
      <trkpt lat="48.03675" lon="7.45999">
        <ele>196.25</ele>
        <time>2017-01-26T10:33:50Z</time>
      </trkpt>
      <trkpt lat="48.0368" lon="7.45984">
        <ele>195.77</ele>
        <time>2017-01-26T10:33:58Z</time>
      </trkpt>
      <trkpt lat="48.03685" lon="7.45967">
        <ele>196.73</ele>
        <time>2017-01-26T10:34:05Z</time>
      </trkpt>
      <trkpt lat="48.03688" lon="7.45951">
        <ele>196.73</ele>
        <time>2017-01-26T10:34:12Z</time>
      </trkpt>
      <trkpt lat="48.03694" lon="7.45934">
        <ele>195.77</ele>
        <time>2017-01-26T10:34:19Z</time>
      </trkpt>
      <trkpt lat="48.03698" lon="7.45918">
        <ele>196.73</ele>
        <time>2017-01-26T10:34:26Z</time>
      </trkpt>
      <trkpt lat="48.03704" lon="7.459">
        <ele>194.32</ele>
        <time>2017-01-26T10:34:34Z</time>
      </trkpt>
      <trkpt lat="48.03708" lon="7.45883">
        <ele>194.8</ele>
        <time>2017-01-26T10:34:41Z</time>
      </trkpt>
      <trkpt lat="48.03715" lon="7.45866">
        <ele>198.65</ele>
        <time>2017-01-26T10:34:48Z</time>
      </trkpt>
      <trkpt lat="48.03719" lon="7.45851">
        <ele>195.77</ele>
        <time>2017-01-26T10:34:54Z</time>
      </trkpt>
      <trkpt lat="48.03723" lon="7.45832">
        <ele>193.84</ele>
        <time>2017-01-26T10:35:02Z</time>
      </trkpt>
      <trkpt lat="48.03727" lon="7.45815">
        <ele>193.36</ele>
        <time>2017-01-26T10:35:09Z</time>
      </trkpt>
      <trkpt lat="48.03733" lon="7.45798">
        <ele>196.73</ele>
        <time>2017-01-26T10:35:17Z</time>
      </trkpt>
      <trkpt lat="48.03737" lon="7.45782">
        <ele>196.25</ele>
        <time>2017-01-26T10:35:24Z</time>
      </trkpt>
      <trkpt lat="48.03742" lon="7.45765">
        <ele>195.77</ele>
        <time>2017-01-26T10:35:31Z</time>
      </trkpt>
      <trkpt lat="48.03745" lon="7.45749">
        <ele>195.77</ele>
        <time>2017-01-26T10:35:38Z</time>
      </trkpt>
      <trkpt lat="48.03751" lon="7.45729">
        <ele>195.77</ele>
        <time>2017-01-26T10:35:48Z</time>
      </trkpt>
      <trkpt lat="48.03757" lon="7.45709">
        <ele>195.77</ele>
        <time>2017-01-26T10:35:56Z</time>
      </trkpt>
      <trkpt lat="48.03758" lon="7.45692">
        <ele>196.25</ele>
        <time>2017-01-26T10:36:02Z</time>
      </trkpt>
      <trkpt lat="48.03761" lon="7.45677">
        <ele>196.73</ele>
        <time>2017-01-26T10:36:08Z</time>
      </trkpt>
      <trkpt lat="48.03766" lon="7.45663">
        <ele>196.25</ele>
        <time>2017-01-26T10:36:14Z</time>
      </trkpt>
      <trkpt lat="48.03768" lon="7.45646">
        <ele>196.25</ele>
        <time>2017-01-26T10:36:21Z</time>
      </trkpt>
      <trkpt lat="48.03773" lon="7.45632">
        <ele>195.28</ele>
        <time>2017-01-26T10:36:27Z</time>
      </trkpt>
      <trkpt lat="48.03779" lon="7.45619">
        <ele>196.25</ele>
        <time>2017-01-26T10:36:33Z</time>
      </trkpt>
      <trkpt lat="48.03783" lon="7.45603">
        <ele>195.28</ele>
        <time>2017-01-26T10:36:39Z</time>
      </trkpt>
      <trkpt lat="48.03788" lon="7.4559">
        <ele>195.28</ele>
        <time>2017-01-26T10:36:45Z</time>
      </trkpt>
      <trkpt lat="48.03791" lon="7.45577">
        <ele>196.73</ele>
        <time>2017-01-26T10:36:52Z</time>
      </trkpt>
      <trkpt lat="48.03798" lon="7.4556">
        <ele>197.21</ele>
        <time>2017-01-26T10:37:01Z</time>
      </trkpt>
      <trkpt lat="48.03805" lon="7.45542">
        <ele>195.77</ele>
        <time>2017-01-26T10:37:08Z</time>
      </trkpt>
      <trkpt lat="48.0381" lon="7.45526">
        <ele>194.32</ele>
        <time>2017-01-26T10:37:15Z</time>
      </trkpt>
      <trkpt lat="48.03813" lon="7.45508">
        <ele>193.36</ele>
        <time>2017-01-26T10:37:23Z</time>
      </trkpt>
      <trkpt lat="48.0382" lon="7.45491">
        <ele>194.8</ele>
        <time>2017-01-26T10:37:31Z</time>
      </trkpt>
      <trkpt lat="48.03826" lon="7.45473">
        <ele>197.21</ele>
        <time>2017-01-26T10:37:38Z</time>
      </trkpt>
      <trkpt lat="48.03831" lon="7.45457">
        <ele>195.28</ele>
        <time>2017-01-26T10:37:45Z</time>
      </trkpt>
      <trkpt lat="48.03836" lon="7.4544">
        <ele>196.25</ele>
        <time>2017-01-26T10:37:53Z</time>
      </trkpt>
      <trkpt lat="48.03842" lon="7.45425">
        <ele>195.77</ele>
        <time>2017-01-26T10:38:00Z</time>
      </trkpt>
      <trkpt lat="48.03849" lon="7.4541">
        <ele>197.69</ele>
        <time>2017-01-26T10:38:08Z</time>
      </trkpt>
      <trkpt lat="48.03856" lon="7.45396">
        <ele>196.25</ele>
        <time>2017-01-26T10:38:15Z</time>
      </trkpt>
      <trkpt lat="48.03862" lon="7.45381">
        <ele>194.8</ele>
        <time>2017-01-26T10:38:21Z</time>
      </trkpt>
      <trkpt lat="48.03868" lon="7.45366">
        <ele>198.17</ele>
        <time>2017-01-26T10:38:29Z</time>
      </trkpt>
      <trkpt lat="48.03877" lon="7.45348">
        <ele>195.77</ele>
        <time>2017-01-26T10:38:37Z</time>
      </trkpt>
      <trkpt lat="48.03881" lon="7.45329">
        <ele>198.17</ele>
        <time>2017-01-26T10:38:46Z</time>
      </trkpt>
      <trkpt lat="48.03888" lon="7.45306">
        <ele>194.8</ele>
        <time>2017-01-26T10:38:56Z</time>
      </trkpt>
      <trkpt lat="48.03891" lon="7.45282">
        <ele>195.28</ele>
        <time>2017-01-26T10:39:06Z</time>
      </trkpt>
      <trkpt lat="48.03894" lon="7.45263">
        <ele>193.84</ele>
        <time>2017-01-26T10:39:13Z</time>
      </trkpt>
      <trkpt lat="48.039" lon="7.45246">
        <ele>198.17</ele>
        <time>2017-01-26T10:39:19Z</time>
      </trkpt>
      <trkpt lat="48.03903" lon="7.4523">
        <ele>196.73</ele>
        <time>2017-01-26T10:39:26Z</time>
      </trkpt>
      <trkpt lat="48.03908" lon="7.45212">
        <ele>198.17</ele>
        <time>2017-01-26T10:39:33Z</time>
      </trkpt>
      <trkpt lat="48.03913" lon="7.45195">
        <ele>195.28</ele>
        <time>2017-01-26T10:39:40Z</time>
      </trkpt>
      <trkpt lat="48.03919" lon="7.45179">
        <ele>195.77</ele>
        <time>2017-01-26T10:39:48Z</time>
      </trkpt>
      <trkpt lat="48.03923" lon="7.4516">
        <ele>196.25</ele>
        <time>2017-01-26T10:39:56Z</time>
      </trkpt>
      <trkpt lat="48.03926" lon="7.45143">
        <ele>194.8</ele>
        <time>2017-01-26T10:40:03Z</time>
      </trkpt>
      <trkpt lat="48.03932" lon="7.45127">
        <ele>196.73</ele>
        <time>2017-01-26T10:40:10Z</time>
      </trkpt>
      <trkpt lat="48.03938" lon="7.45112">
        <ele>197.21</ele>
        <time>2017-01-26T10:40:18Z</time>
      </trkpt>
      <trkpt lat="48.03943" lon="7.45094">
        <ele>196.73</ele>
        <time>2017-01-26T10:40:26Z</time>
      </trkpt>
      <trkpt lat="48.03948" lon="7.45077">
        <ele>194.32</ele>
        <time>2017-01-26T10:40:34Z</time>
      </trkpt>
      <trkpt lat="48.03954" lon="7.45062">
        <ele>195.28</ele>
        <time>2017-01-26T10:40:42Z</time>
      </trkpt>
      <trkpt lat="48.0396" lon="7.45045">
        <ele>193.36</ele>
        <time>2017-01-26T10:40:50Z</time>
      </trkpt>
      <trkpt lat="48.03966" lon="7.45028">
        <ele>195.77</ele>
        <time>2017-01-26T10:40:59Z</time>
      </trkpt>
      <trkpt lat="48.03974" lon="7.45008">
        <ele>194.8</ele>
        <time>2017-01-26T10:41:07Z</time>
      </trkpt>
      <trkpt lat="48.03981" lon="7.44993">
        <ele>197.69</ele>
        <time>2017-01-26T10:41:15Z</time>
      </trkpt>
      <trkpt lat="48.03988" lon="7.44975">
        <ele>198.65</ele>
        <time>2017-01-26T10:41:23Z</time>
      </trkpt>
      <trkpt lat="48.03994" lon="7.44959">
        <ele>195.77</ele>
        <time>2017-01-26T10:41:30Z</time>
      </trkpt>
      <trkpt lat="48.03995" lon="7.44938">
        <ele>195.77</ele>
        <time>2017-01-26T10:41:38Z</time>
      </trkpt>
      <trkpt lat="48.03998" lon="7.44921">
        <ele>195.77</ele>
        <time>2017-01-26T10:41:45Z</time>
      </trkpt>
      <trkpt lat="48.03998" lon="7.44905">
        <ele>195.77</ele>
        <time>2017-01-26T10:41:51Z</time>
      </trkpt>
      <trkpt lat="48.03999" lon="7.44885">
        <ele>197.21</ele>
        <time>2017-01-26T10:42:00Z</time>
      </trkpt>
      <trkpt lat="48.04002" lon="7.44865">
        <ele>195.77</ele>
        <time>2017-01-26T10:42:07Z</time>
      </trkpt>
      <trkpt lat="48.04005" lon="7.44848">
        <ele>195.77</ele>
        <time>2017-01-26T10:42:14Z</time>
      </trkpt>
      <trkpt lat="48.04011" lon="7.44829">
        <ele>194.32</ele>
        <time>2017-01-26T10:42:21Z</time>
      </trkpt>
      <trkpt lat="48.04016" lon="7.44812">
        <ele>194.8</ele>
        <time>2017-01-26T10:42:29Z</time>
      </trkpt>
      <trkpt lat="48.04022" lon="7.44792">
        <ele>196.25</ele>
        <time>2017-01-26T10:42:38Z</time>
      </trkpt>
      <trkpt lat="48.04027" lon="7.44773">
        <ele>193.36</ele>
        <time>2017-01-26T10:42:45Z</time>
      </trkpt>
      <trkpt lat="48.04032" lon="7.44756">
        <ele>195.28</ele>
        <time>2017-01-26T10:42:53Z</time>
      </trkpt>
      <trkpt lat="48.04036" lon="7.44733">
        <ele>194.8</ele>
        <time>2017-01-26T10:43:02Z</time>
      </trkpt>
      <trkpt lat="48.0403" lon="7.44712">
        <ele>195.77</ele>
        <time>2017-01-26T10:43:10Z</time>
      </trkpt>
      <trkpt lat="48.0403" lon="7.44692">
        <ele>195.77</ele>
        <time>2017-01-26T10:43:18Z</time>
      </trkpt>
      <trkpt lat="48.04031" lon="7.44676">
        <ele>195.77</ele>
        <time>2017-01-26T10:43:24Z</time>
      </trkpt>
      <trkpt lat="48.04031" lon="7.4466">
        <ele>195.77</ele>
        <time>2017-01-26T10:43:30Z</time>
      </trkpt>
      <trkpt lat="48.04031" lon="7.44644">
        <ele>195.77</ele>
        <time>2017-01-26T10:43:36Z</time>
      </trkpt>
      <trkpt lat="48.04032" lon="7.44629">
        <ele>196.25</ele>
        <time>2017-01-26T10:43:42Z</time>
      </trkpt>
      <trkpt lat="48.04034" lon="7.44613">
        <ele>196.25</ele>
        <time>2017-01-26T10:43:48Z</time>
      </trkpt>
      <trkpt lat="48.04035" lon="7.44597">
        <ele>195.77</ele>
        <time>2017-01-26T10:43:54Z</time>
      </trkpt>
      <trkpt lat="48.04036" lon="7.44582">
        <ele>196.25</ele>
        <time>2017-01-26T10:44:00Z</time>
      </trkpt>
      <trkpt lat="48.04038" lon="7.44567">
        <ele>195.77</ele>
        <time>2017-01-26T10:44:06Z</time>
      </trkpt>
      <trkpt lat="48.04038" lon="7.44552">
        <ele>195.77</ele>
        <time>2017-01-26T10:44:12Z</time>
      </trkpt>
      <trkpt lat="48.0404" lon="7.44539">
        <ele>195.28</ele>
        <time>2017-01-26T10:44:17Z</time>
      </trkpt>
      <trkpt lat="48.04041" lon="7.44523">
        <ele>196.25</ele>
        <time>2017-01-26T10:44:23Z</time>
      </trkpt>
      <trkpt lat="48.04043" lon="7.44509">
        <ele>196.25</ele>
        <time>2017-01-26T10:44:29Z</time>
      </trkpt>
      <trkpt lat="48.04044" lon="7.44494">
        <ele>195.77</ele>
        <time>2017-01-26T10:44:35Z</time>
      </trkpt>
      <trkpt lat="48.04045" lon="7.4448">
        <ele>196.25</ele>
        <time>2017-01-26T10:44:41Z</time>
      </trkpt>
      <trkpt lat="48.04047" lon="7.44464">
        <ele>195.28</ele>
        <time>2017-01-26T10:44:47Z</time>
      </trkpt>
      <trkpt lat="48.04048" lon="7.44449">
        <ele>195.77</ele>
        <time>2017-01-26T10:44:53Z</time>
      </trkpt>
      <trkpt lat="48.04048" lon="7.44433">
        <ele>195.28</ele>
        <time>2017-01-26T10:44:59Z</time>
      </trkpt>
      <trkpt lat="48.04049" lon="7.4442">
        <ele>195.77</ele>
        <time>2017-01-26T10:45:04Z</time>
      </trkpt>
      <trkpt lat="48.0405" lon="7.44408">
        <ele>196.25</ele>
        <time>2017-01-26T10:45:08Z</time>
      </trkpt>
      <trkpt lat="48.04051" lon="7.44395">
        <ele>196.25</ele>
        <time>2017-01-26T10:45:16Z</time>
      </trkpt>
      <trkpt lat="48.04053" lon="7.44377">
        <ele>196.25</ele>
        <time>2017-01-26T10:45:23Z</time>
      </trkpt>
      <trkpt lat="48.04053" lon="7.44364">
        <ele>196.73</ele>
        <time>2017-01-26T10:45:27Z</time>
      </trkpt>
      <trkpt lat="48.04054" lon="7.44352">
        <ele>196.25</ele>
        <time>2017-01-26T10:45:31Z</time>
      </trkpt>
      <trkpt lat="48.04056" lon="7.44341">
        <ele>196.25</ele>
        <time>2017-01-26T10:45:37Z</time>
      </trkpt>
      <trkpt lat="48.04055" lon="7.44326">
        <ele>196.25</ele>
        <time>2017-01-26T10:45:44Z</time>
      </trkpt>
      <trkpt lat="48.04057" lon="7.4431">
        <ele>196.25</ele>
        <time>2017-01-26T10:45:50Z</time>
      </trkpt>
      <trkpt lat="48.04058" lon="7.44296">
        <ele>196.73</ele>
        <time>2017-01-26T10:45:54Z</time>
      </trkpt>
      <trkpt lat="48.04059" lon="7.44285">
        <ele>196.25</ele>
        <time>2017-01-26T10:45:59Z</time>
      </trkpt>
      <trkpt lat="48.04059" lon="7.4427">
        <ele>196.25</ele>
        <time>2017-01-26T10:46:06Z</time>
      </trkpt>
      <trkpt lat="48.0406" lon="7.44255">
        <ele>196.25</ele>
        <time>2017-01-26T10:46:12Z</time>
      </trkpt>
      <trkpt lat="48.0406" lon="7.44242">
        <ele>196.25</ele>
        <time>2017-01-26T10:46:17Z</time>
      </trkpt>
      <trkpt lat="48.04061" lon="7.44228">
        <ele>196.73</ele>
        <time>2017-01-26T10:46:24Z</time>
      </trkpt>
      <trkpt lat="48.04063" lon="7.44209">
        <ele>196.73</ele>
        <time>2017-01-26T10:46:33Z</time>
      </trkpt>
      <trkpt lat="48.04062" lon="7.44193">
        <ele>196.73</ele>
        <time>2017-01-26T10:46:38Z</time>
      </trkpt>
      <trkpt lat="48.04063" lon="7.44177">
        <ele>196.73</ele>
        <time>2017-01-26T10:46:44Z</time>
      </trkpt>
      <trkpt lat="48.04064" lon="7.44162">
        <ele>196.73</ele>
        <time>2017-01-26T10:46:51Z</time>
      </trkpt>
      <trkpt lat="48.04066" lon="7.44148">
        <ele>196.73</ele>
        <time>2017-01-26T10:46:57Z</time>
      </trkpt>
      <trkpt lat="48.04068" lon="7.44133">
        <ele>196.73</ele>
        <time>2017-01-26T10:47:03Z</time>
      </trkpt>
      <trkpt lat="48.04069" lon="7.44119">
        <ele>197.69</ele>
        <time>2017-01-26T10:47:33Z</time>
      </trkpt>
      <trkpt lat="48.04072" lon="7.44104">
        <ele>198.65</ele>
        <time>2017-01-26T10:47:39Z</time>
      </trkpt>
      <trkpt lat="48.04075" lon="7.44089">
        <ele>197.69</ele>
        <time>2017-01-26T10:47:45Z</time>
      </trkpt>
      <trkpt lat="48.04076" lon="7.44075">
        <ele>199.13</ele>
        <time>2017-01-26T10:47:51Z</time>
      </trkpt>
      <trkpt lat="48.04078" lon="7.4406">
        <ele>198.17</ele>
        <time>2017-01-26T10:47:57Z</time>
      </trkpt>
      <trkpt lat="48.0408" lon="7.44045">
        <ele>197.69</ele>
        <time>2017-01-26T10:48:03Z</time>
      </trkpt>
      <trkpt lat="48.04084" lon="7.44029">
        <ele>197.69</ele>
        <time>2017-01-26T10:48:09Z</time>
      </trkpt>
      <trkpt lat="48.04086" lon="7.44016">
        <ele>197.21</ele>
        <time>2017-01-26T10:48:14Z</time>
      </trkpt>
      <trkpt lat="48.0409" lon="7.44002">
        <ele>195.28</ele>
        <time>2017-01-26T10:48:20Z</time>
      </trkpt>
      <trkpt lat="48.04093" lon="7.43987">
        <ele>197.69</ele>
        <time>2017-01-26T10:48:26Z</time>
      </trkpt>
      <trkpt lat="48.04096" lon="7.43972">
        <ele>195.28</ele>
        <time>2017-01-26T10:48:32Z</time>
      </trkpt>
      <trkpt lat="48.04099" lon="7.43959">
        <ele>196.73</ele>
        <time>2017-01-26T10:48:38Z</time>
      </trkpt>
      <trkpt lat="48.04102" lon="7.43945">
        <ele>197.21</ele>
        <time>2017-01-26T10:48:43Z</time>
      </trkpt>
      <trkpt lat="48.04104" lon="7.43931">
        <ele>196.73</ele>
        <time>2017-01-26T10:48:49Z</time>
      </trkpt>
      <trkpt lat="48.04108" lon="7.43916">
        <ele>197.21</ele>
        <time>2017-01-26T10:48:55Z</time>
      </trkpt>
      <trkpt lat="48.04111" lon="7.43903">
        <ele>197.21</ele>
        <time>2017-01-26T10:49:01Z</time>
      </trkpt>
      <trkpt lat="48.04114" lon="7.43889">
        <ele>197.69</ele>
        <time>2017-01-26T10:49:07Z</time>
      </trkpt>
      <trkpt lat="48.04116" lon="7.43874">
        <ele>198.17</ele>
        <time>2017-01-26T10:49:13Z</time>
      </trkpt>
      <trkpt lat="48.04117" lon="7.43858">
        <ele>197.21</ele>
        <time>2017-01-26T10:49:19Z</time>
      </trkpt>
      <trkpt lat="48.04119" lon="7.43844">
        <ele>197.21</ele>
        <time>2017-01-26T10:49:25Z</time>
      </trkpt>
      <trkpt lat="48.0412" lon="7.43829">
        <ele>197.21</ele>
        <time>2017-01-26T10:49:31Z</time>
      </trkpt>
      <trkpt lat="48.04121" lon="7.43814">
        <ele>196.73</ele>
        <time>2017-01-26T10:49:37Z</time>
      </trkpt>
      <trkpt lat="48.04122" lon="7.43799">
        <ele>196.73</ele>
        <time>2017-01-26T10:49:43Z</time>
      </trkpt>
      <trkpt lat="48.04122" lon="7.43784">
        <ele>197.21</ele>
        <time>2017-01-26T10:49:49Z</time>
      </trkpt>
      <trkpt lat="48.04123" lon="7.4377">
        <ele>197.21</ele>
        <time>2017-01-26T10:49:55Z</time>
      </trkpt>
      <trkpt lat="48.04124" lon="7.43755">
        <ele>197.21</ele>
        <time>2017-01-26T10:50:01Z</time>
      </trkpt>
      <trkpt lat="48.04125" lon="7.43741">
        <ele>197.21</ele>
        <time>2017-01-26T10:50:07Z</time>
      </trkpt>
      <trkpt lat="48.04127" lon="7.43726">
        <ele>197.69</ele>
        <time>2017-01-26T10:50:13Z</time>
      </trkpt>
      <trkpt lat="48.04129" lon="7.43711">
        <ele>197.21</ele>
        <time>2017-01-26T10:50:19Z</time>
      </trkpt>
      <trkpt lat="48.0413" lon="7.43697">
        <ele>196.73</ele>
        <time>2017-01-26T10:50:25Z</time>
      </trkpt>
      <trkpt lat="48.04133" lon="7.43682">
        <ele>197.21</ele>
        <time>2017-01-26T10:50:31Z</time>
      </trkpt>
      <trkpt lat="48.04136" lon="7.43669">
        <ele>197.21</ele>
        <time>2017-01-26T10:50:37Z</time>
      </trkpt>
      <trkpt lat="48.04138" lon="7.43655">
        <ele>197.69</ele>
        <time>2017-01-26T10:50:43Z</time>
      </trkpt>
      <trkpt lat="48.04141" lon="7.4364">
        <ele>198.17</ele>
        <time>2017-01-26T10:50:49Z</time>
      </trkpt>
      <trkpt lat="48.04144" lon="7.43626">
        <ele>197.69</ele>
        <time>2017-01-26T10:50:55Z</time>
      </trkpt>
      <trkpt lat="48.04147" lon="7.43611">
        <ele>197.21</ele>
        <time>2017-01-26T10:51:01Z</time>
      </trkpt>
      <trkpt lat="48.0415" lon="7.43597">
        <ele>197.21</ele>
        <time>2017-01-26T10:51:07Z</time>
      </trkpt>
      <trkpt lat="48.04154" lon="7.43582">
        <ele>197.21</ele>
        <time>2017-01-26T10:51:14Z</time>
      </trkpt>
      <trkpt lat="48.04157" lon="7.43568">
        <ele>197.21</ele>
        <time>2017-01-26T10:51:20Z</time>
      </trkpt>
      <trkpt lat="48.04161" lon="7.43553">
        <ele>197.21</ele>
        <time>2017-01-26T10:51:26Z</time>
      </trkpt>
      <trkpt lat="48.04163" lon="7.4354">
        <ele>197.21</ele>
        <time>2017-01-26T10:51:32Z</time>
      </trkpt>
      <trkpt lat="48.04167" lon="7.43527">
        <ele>195.28</ele>
        <time>2017-01-26T10:51:38Z</time>
      </trkpt>
      <trkpt lat="48.0417" lon="7.43511">
        <ele>197.21</ele>
        <time>2017-01-26T10:51:44Z</time>
      </trkpt>
      <trkpt lat="48.04173" lon="7.43499">
        <ele>197.21</ele>
        <time>2017-01-26T10:51:49Z</time>
      </trkpt>
      <trkpt lat="48.04177" lon="7.43483">
        <ele>197.21</ele>
        <time>2017-01-26T10:51:55Z</time>
      </trkpt>
      <trkpt lat="48.0418" lon="7.43469">
        <ele>198.17</ele>
        <time>2017-01-26T10:52:01Z</time>
      </trkpt>
      <trkpt lat="48.04185" lon="7.43457">
        <ele>195.28</ele>
        <time>2017-01-26T10:52:06Z</time>
      </trkpt>
      <trkpt lat="48.04191" lon="7.43444">
        <ele>197.21</ele>
        <time>2017-01-26T10:52:12Z</time>
      </trkpt>
      <trkpt lat="48.04195" lon="7.43429">
        <ele>193.84</ele>
        <time>2017-01-26T10:52:18Z</time>
      </trkpt>
      <trkpt lat="48.04197" lon="7.43415">
        <ele>197.69</ele>
        <time>2017-01-26T10:52:24Z</time>
      </trkpt>
      <trkpt lat="48.04198" lon="7.434">
        <ele>195.77</ele>
        <time>2017-01-26T10:52:30Z</time>
      </trkpt>
      <trkpt lat="48.04198" lon="7.43386">
        <ele>197.69</ele>
        <time>2017-01-26T10:52:36Z</time>
      </trkpt>
      <trkpt lat="48.04198" lon="7.43371">
        <ele>197.69</ele>
        <time>2017-01-26T10:52:42Z</time>
      </trkpt>
      <trkpt lat="48.04196" lon="7.43358">
        <ele>196.25</ele>
        <time>2017-01-26T10:52:47Z</time>
      </trkpt>
      <trkpt lat="48.04198" lon="7.43344">
        <ele>199.13</ele>
        <time>2017-01-26T10:52:53Z</time>
      </trkpt>
      <trkpt lat="48.04197" lon="7.43328">
        <ele>195.77</ele>
        <time>2017-01-26T10:52:59Z</time>
      </trkpt>
      <trkpt lat="48.04196" lon="7.43314">
        <ele>199.61</ele>
        <time>2017-01-26T10:53:05Z</time>
      </trkpt>
      <trkpt lat="48.04195" lon="7.433">
        <ele>197.69</ele>
        <time>2017-01-26T10:53:11Z</time>
      </trkpt>
      <trkpt lat="48.04196" lon="7.43286">
        <ele>197.69</ele>
        <time>2017-01-26T10:53:17Z</time>
      </trkpt>
      <trkpt lat="48.04195" lon="7.43271">
        <ele>197.69</ele>
        <time>2017-01-26T10:53:23Z</time>
      </trkpt>
      <trkpt lat="48.04194" lon="7.43257">
        <ele>198.17</ele>
        <time>2017-01-26T10:53:29Z</time>
      </trkpt>
      <trkpt lat="48.04193" lon="7.43242">
        <ele>198.65</ele>
        <time>2017-01-26T10:53:35Z</time>
      </trkpt>
      <trkpt lat="48.04192" lon="7.43226">
        <ele>196.73</ele>
        <time>2017-01-26T10:53:41Z</time>
      </trkpt>
      <trkpt lat="48.04191" lon="7.43212">
        <ele>198.65</ele>
        <time>2017-01-26T10:53:47Z</time>
      </trkpt>
      <trkpt lat="48.04189" lon="7.43197">
        <ele>196.73</ele>
        <time>2017-01-26T10:53:53Z</time>
      </trkpt>
      <trkpt lat="48.04188" lon="7.43183">
        <ele>195.77</ele>
        <time>2017-01-26T10:53:59Z</time>
      </trkpt>
      <trkpt lat="48.04187" lon="7.43168">
        <ele>195.77</ele>
        <time>2017-01-26T10:54:05Z</time>
      </trkpt>
      <trkpt lat="48.04186" lon="7.43152">
        <ele>196.73</ele>
        <time>2017-01-26T10:54:11Z</time>
      </trkpt>
      <trkpt lat="48.04185" lon="7.43135">
        <ele>197.69</ele>
        <time>2017-01-26T10:54:18Z</time>
      </trkpt>
      <trkpt lat="48.04184" lon="7.4312">
        <ele>197.69</ele>
        <time>2017-01-26T10:54:24Z</time>
      </trkpt>
      <trkpt lat="48.04184" lon="7.43105">
        <ele>197.21</ele>
        <time>2017-01-26T10:54:30Z</time>
      </trkpt>
      <trkpt lat="48.04183" lon="7.4309">
        <ele>197.21</ele>
        <time>2017-01-26T10:54:36Z</time>
      </trkpt>
      <trkpt lat="48.04182" lon="7.43074">
        <ele>197.69</ele>
        <time>2017-01-26T10:54:42Z</time>
      </trkpt>
      <trkpt lat="48.04181" lon="7.43059">
        <ele>198.17</ele>
        <time>2017-01-26T10:54:48Z</time>
      </trkpt>
      <trkpt lat="48.04181" lon="7.43043">
        <ele>197.69</ele>
        <time>2017-01-26T10:54:54Z</time>
      </trkpt>
      <trkpt lat="48.0418" lon="7.43027">
        <ele>197.69</ele>
        <time>2017-01-26T10:55:00Z</time>
      </trkpt>
      <trkpt lat="48.0418" lon="7.43012">
        <ele>197.69</ele>
        <time>2017-01-26T10:55:06Z</time>
      </trkpt>
      <trkpt lat="48.0418" lon="7.42997">
        <ele>198.17</ele>
        <time>2017-01-26T10:55:12Z</time>
      </trkpt>
      <trkpt lat="48.0418" lon="7.42981">
        <ele>198.65</ele>
        <time>2017-01-26T10:55:18Z</time>
      </trkpt>
      <trkpt lat="48.04181" lon="7.42966">
        <ele>200.09</ele>
        <time>2017-01-26T10:55:24Z</time>
      </trkpt>
      <trkpt lat="48.04182" lon="7.42952">
        <ele>200.57</ele>
        <time>2017-01-26T10:55:29Z</time>
      </trkpt>
      <trkpt lat="48.04183" lon="7.42939">
        <ele>196.73</ele>
        <time>2017-01-26T10:55:34Z</time>
      </trkpt>
      <trkpt lat="48.04184" lon="7.42925">
        <ele>197.21</ele>
        <time>2017-01-26T10:55:40Z</time>
      </trkpt>
      <trkpt lat="48.04184" lon="7.42909">
        <ele>197.69</ele>
        <time>2017-01-26T10:55:46Z</time>
      </trkpt>
      <trkpt lat="48.04186" lon="7.42894">
        <ele>198.17</ele>
        <time>2017-01-26T10:55:52Z</time>
      </trkpt>
      <trkpt lat="48.04187" lon="7.42881">
        <ele>199.61</ele>
        <time>2017-01-26T10:55:57Z</time>
      </trkpt>
      <trkpt lat="48.04189" lon="7.42866">
        <ele>195.28</ele>
        <time>2017-01-26T10:56:03Z</time>
      </trkpt>
      <trkpt lat="48.04191" lon="7.42852">
        <ele>196.25</ele>
        <time>2017-01-26T10:56:09Z</time>
      </trkpt>
      <trkpt lat="48.04192" lon="7.42837">
        <ele>200.09</ele>
        <time>2017-01-26T10:56:15Z</time>
      </trkpt>
      <trkpt lat="48.04192" lon="7.42822">
        <ele>198.65</ele>
        <time>2017-01-26T10:56:21Z</time>
      </trkpt>
      <trkpt lat="48.04193" lon="7.42808">
        <ele>198.17</ele>
        <time>2017-01-26T10:56:27Z</time>
      </trkpt>
      <trkpt lat="48.04193" lon="7.42795">
        <ele>198.17</ele>
        <time>2017-01-26T10:56:32Z</time>
      </trkpt>
      <trkpt lat="48.04193" lon="7.42779">
        <ele>197.21</ele>
        <time>2017-01-26T10:56:38Z</time>
      </trkpt>
      <trkpt lat="48.04194" lon="7.42764">
        <ele>198.17</ele>
        <time>2017-01-26T10:56:44Z</time>
      </trkpt>
      <trkpt lat="48.04195" lon="7.4275">
        <ele>198.65</ele>
        <time>2017-01-26T10:56:50Z</time>
      </trkpt>
      <trkpt lat="48.04196" lon="7.42736">
        <ele>199.13</ele>
        <time>2017-01-26T10:56:56Z</time>
      </trkpt>
      <trkpt lat="48.04195" lon="7.42721">
        <ele>198.17</ele>
        <time>2017-01-26T10:57:02Z</time>
      </trkpt>
      <trkpt lat="48.04196" lon="7.42704">
        <ele>197.69</ele>
        <time>2017-01-26T10:57:08Z</time>
      </trkpt>
      <trkpt lat="48.04196" lon="7.42691">
        <ele>197.69</ele>
        <time>2017-01-26T10:57:13Z</time>
      </trkpt>
      <trkpt lat="48.04197" lon="7.42676">
        <ele>197.69</ele>
        <time>2017-01-26T10:57:19Z</time>
      </trkpt>
      <trkpt lat="48.04197" lon="7.42661">
        <ele>198.17</ele>
        <time>2017-01-26T10:57:24Z</time>
      </trkpt>
      <trkpt lat="48.04199" lon="7.42649">
        <ele>197.69</ele>
        <time>2017-01-26T10:57:29Z</time>
      </trkpt>
      <trkpt lat="48.04199" lon="7.42634">
        <ele>197.21</ele>
        <time>2017-01-26T10:57:34Z</time>
      </trkpt>
      <trkpt lat="48.04199" lon="7.42619">
        <ele>197.21</ele>
        <time>2017-01-26T10:57:40Z</time>
      </trkpt>
      <trkpt lat="48.042" lon="7.42603">
        <ele>197.69</ele>
        <time>2017-01-26T10:57:46Z</time>
      </trkpt>
      <trkpt lat="48.04201" lon="7.42588">
        <ele>197.69</ele>
        <time>2017-01-26T10:57:51Z</time>
      </trkpt>
      <trkpt lat="48.04202" lon="7.42574">
        <ele>197.21</ele>
        <time>2017-01-26T10:57:56Z</time>
      </trkpt>
      <trkpt lat="48.04202" lon="7.42558">
        <ele>197.69</ele>
        <time>2017-01-26T10:58:02Z</time>
      </trkpt>
      <trkpt lat="48.04203" lon="7.42544">
        <ele>197.69</ele>
        <time>2017-01-26T10:58:07Z</time>
      </trkpt>
      <trkpt lat="48.04205" lon="7.42529">
        <ele>197.69</ele>
        <time>2017-01-26T10:58:12Z</time>
      </trkpt>
      <trkpt lat="48.04205" lon="7.42513">
        <ele>197.69</ele>
        <time>2017-01-26T10:58:18Z</time>
      </trkpt>
      <trkpt lat="48.04206" lon="7.42498">
        <ele>197.69</ele>
        <time>2017-01-26T10:58:23Z</time>
      </trkpt>
      <trkpt lat="48.04207" lon="7.42482">
        <ele>197.69</ele>
        <time>2017-01-26T10:58:29Z</time>
      </trkpt>
      <trkpt lat="48.04207" lon="7.42468">
        <ele>197.69</ele>
        <time>2017-01-26T10:58:34Z</time>
      </trkpt>
      <trkpt lat="48.04209" lon="7.42454">
        <ele>197.69</ele>
        <time>2017-01-26T10:58:39Z</time>
      </trkpt>
      <trkpt lat="48.0421" lon="7.42439">
        <ele>197.69</ele>
        <time>2017-01-26T10:58:44Z</time>
      </trkpt>
      <trkpt lat="48.04211" lon="7.42425">
        <ele>197.69</ele>
        <time>2017-01-26T10:58:49Z</time>
      </trkpt>
      <trkpt lat="48.04211" lon="7.42411">
        <ele>198.17</ele>
        <time>2017-01-26T10:58:54Z</time>
      </trkpt>
      <trkpt lat="48.04212" lon="7.42397">
        <ele>197.69</ele>
        <time>2017-01-26T10:58:59Z</time>
      </trkpt>
      <trkpt lat="48.04213" lon="7.42384">
        <ele>197.69</ele>
        <time>2017-01-26T10:59:04Z</time>
      </trkpt>
      <trkpt lat="48.04215" lon="7.42368">
        <ele>197.69</ele>
        <time>2017-01-26T10:59:10Z</time>
      </trkpt>
      <trkpt lat="48.04215" lon="7.42351">
        <ele>197.21</ele>
        <time>2017-01-26T10:59:16Z</time>
      </trkpt>
      <trkpt lat="48.04215" lon="7.42337">
        <ele>197.21</ele>
        <time>2017-01-26T10:59:21Z</time>
      </trkpt>
      <trkpt lat="48.04215" lon="7.4232">
        <ele>197.69</ele>
        <time>2017-01-26T10:59:27Z</time>
      </trkpt>
      <trkpt lat="48.04215" lon="7.42303">
        <ele>197.69</ele>
        <time>2017-01-26T10:59:33Z</time>
      </trkpt>
      <trkpt lat="48.04216" lon="7.42289">
        <ele>197.69</ele>
        <time>2017-01-26T10:59:38Z</time>
      </trkpt>
      <trkpt lat="48.04217" lon="7.42274">
        <ele>197.21</ele>
        <time>2017-01-26T10:59:43Z</time>
      </trkpt>
      <trkpt lat="48.04216" lon="7.4226">
        <ele>197.69</ele>
        <time>2017-01-26T10:59:48Z</time>
      </trkpt>
      <trkpt lat="48.04217" lon="7.42246">
        <ele>197.69</ele>
        <time>2017-01-26T10:59:53Z</time>
      </trkpt>
      <trkpt lat="48.04217" lon="7.42231">
        <ele>197.69</ele>
        <time>2017-01-26T10:59:58Z</time>
      </trkpt>
      <trkpt lat="48.04217" lon="7.42216">
        <ele>197.69</ele>
        <time>2017-01-26T11:00:03Z</time>
      </trkpt>
      <trkpt lat="48.04218" lon="7.42204">
        <ele>197.69</ele>
        <time>2017-01-26T11:00:09Z</time>
      </trkpt>
      <trkpt lat="48.0422" lon="7.4219">
        <ele>196.73</ele>
        <time>2017-01-26T11:00:17Z</time>
      </trkpt>
      <trkpt lat="48.04224" lon="7.42177">
        <ele>197.69</ele>
        <time>2017-01-26T11:00:24Z</time>
      </trkpt>
      <trkpt lat="48.04225" lon="7.42162">
        <ele>199.61</ele>
        <time>2017-01-26T11:00:32Z</time>
      </trkpt>
      <trkpt lat="48.04225" lon="7.42146">
        <ele>199.13</ele>
        <time>2017-01-26T11:00:40Z</time>
      </trkpt>
      <trkpt lat="48.04226" lon="7.42131">
        <ele>196.73</ele>
        <time>2017-01-26T11:00:47Z</time>
      </trkpt>
      <trkpt lat="48.04223" lon="7.42117">
        <ele>198.65</ele>
        <time>2017-01-26T11:00:54Z</time>
      </trkpt>
      <trkpt lat="48.04222" lon="7.42101">
        <ele>199.13</ele>
        <time>2017-01-26T11:01:01Z</time>
      </trkpt>
      <trkpt lat="48.04218" lon="7.42088">
        <ele>199.61</ele>
        <time>2017-01-26T11:01:10Z</time>
      </trkpt>
      <trkpt lat="48.0422" lon="7.42074">
        <ele>199.61</ele>
        <time>2017-01-26T11:01:18Z</time>
      </trkpt>
      <trkpt lat="48.04223" lon="7.42061">
        <ele>199.61</ele>
        <time>2017-01-26T11:01:27Z</time>
      </trkpt>
      <trkpt lat="48.04228" lon="7.42048">
        <ele>200.09</ele>
        <time>2017-01-26T11:01:35Z</time>
      </trkpt>
      <trkpt lat="48.04232" lon="7.42035">
        <ele>200.09</ele>
        <time>2017-01-26T11:01:43Z</time>
      </trkpt>
      <trkpt lat="48.04236" lon="7.4202">
        <ele>200.09</ele>
        <time>2017-01-26T11:01:51Z</time>
      </trkpt>
      <trkpt lat="48.0424" lon="7.42006">
        <ele>200.09</ele>
        <time>2017-01-26T11:02:01Z</time>
      </trkpt>
      <trkpt lat="48.04244" lon="7.41991">
        <ele>200.57</ele>
        <time>2017-01-26T11:02:09Z</time>
      </trkpt>
      <trkpt lat="48.04246" lon="7.41975">
        <ele>200.57</ele>
        <time>2017-01-26T11:02:17Z</time>
      </trkpt>
      <trkpt lat="48.04248" lon="7.4196">
        <ele>199.61</ele>
        <time>2017-01-26T11:02:26Z</time>
      </trkpt>
      <trkpt lat="48.04252" lon="7.41946">
        <ele>202.01</ele>
        <time>2017-01-26T11:02:35Z</time>
      </trkpt>
      <trkpt lat="48.04253" lon="7.41931">
        <ele>201.05</ele>
        <time>2017-01-26T11:02:44Z</time>
      </trkpt>
      <trkpt lat="48.0425" lon="7.41916">
        <ele>202.01</ele>
        <time>2017-01-26T11:02:52Z</time>
      </trkpt>
      <trkpt lat="48.04244" lon="7.41902">
        <ele>200.57</ele>
        <time>2017-01-26T11:03:01Z</time>
      </trkpt>
      <trkpt lat="48.04235" lon="7.41893">
        <ele>200.57</ele>
        <time>2017-01-26T11:04:38Z</time>
      </trkpt>
      <trkpt lat="48.04229" lon="7.41881">
        <ele>200.57</ele>
        <time>2017-01-26T11:04:48Z</time>
      </trkpt>
      <trkpt lat="48.04232" lon="7.41869">
        <ele>199.61</ele>
        <time>2017-01-26T11:04:57Z</time>
      </trkpt>
      <trkpt lat="48.04237" lon="7.41856">
        <ele>200.57</ele>
        <time>2017-01-26T11:05:07Z</time>
      </trkpt>
      <trkpt lat="48.04243" lon="7.41844">
        <ele>199.61</ele>
        <time>2017-01-26T11:05:17Z</time>
      </trkpt>
      <trkpt lat="48.04245" lon="7.4183">
        <ele>200.57</ele>
        <time>2017-01-26T11:05:27Z</time>
      </trkpt>
      <trkpt lat="48.04242" lon="7.41815">
        <ele>200.09</ele>
        <time>2017-01-26T11:05:44Z</time>
      </trkpt>
      <trkpt lat="48.0424" lon="7.41801">
        <ele>203.46</ele>
        <time>2017-01-26T11:05:56Z</time>
      </trkpt>
      <trkpt lat="48.0424" lon="7.41809">
        <ele>200.57</ele>
        <time>2017-01-26T11:06:18Z</time>
      </trkpt>
      <trkpt lat="48.04241" lon="7.41823">
        <ele>202.98</ele>
        <time>2017-01-26T11:06:26Z</time>
      </trkpt>
      <trkpt lat="48.04245" lon="7.4183">
        <ele>201.05</ele>
        <time>2017-01-26T11:06:35Z</time>
      </trkpt>
      <trkpt lat="48.04249" lon="7.41817">
        <ele>202.01</ele>
        <time>2017-01-26T11:06:45Z</time>
      </trkpt>
      <trkpt lat="48.04249" lon="7.41804">
        <ele>202.49</ele>
        <time>2017-01-26T11:07:02Z</time>
      </trkpt>
      <trkpt lat="48.04246" lon="7.41787">
        <ele>200.57</ele>
        <time>2017-01-26T11:07:27Z</time>
      </trkpt>
      <trkpt lat="48.04245" lon="7.41771">
        <ele>201.53</ele>
        <time>2017-01-26T11:07:49Z</time>
      </trkpt>
      <trkpt lat="48.04242" lon="7.41756">
        <ele>202.98</ele>
        <time>2017-01-26T11:07:59Z</time>
      </trkpt>
      <trkpt lat="48.0424" lon="7.41741">
        <ele>200.57</ele>
        <time>2017-01-26T11:08:08Z</time>
      </trkpt>
      <trkpt lat="48.04237" lon="7.41724">
        <ele>201.05</ele>
        <time>2017-01-26T11:08:21Z</time>
      </trkpt>
      <trkpt lat="48.04238" lon="7.41707">
        <ele>202.01</ele>
        <time>2017-01-26T11:08:31Z</time>
      </trkpt>
      <trkpt lat="48.04238" lon="7.41692">
        <ele>197.69</ele>
        <time>2017-01-26T11:08:40Z</time>
      </trkpt>
      <trkpt lat="48.04242" lon="7.41673">
        <ele>199.13</ele>
        <time>2017-01-26T11:08:48Z</time>
      </trkpt>
      <trkpt lat="48.04242" lon="7.41657">
        <ele>200.57</ele>
        <time>2017-01-26T11:08:57Z</time>
      </trkpt>
      <trkpt lat="48.04245" lon="7.41641">
        <ele>197.69</ele>
        <time>2017-01-26T11:09:11Z</time>
      </trkpt>
      <trkpt lat="48.04247" lon="7.41627">
        <ele>200.57</ele>
        <time>2017-01-26T11:09:19Z</time>
      </trkpt>
      <trkpt lat="48.04248" lon="7.41612">
        <ele>199.61</ele>
        <time>2017-01-26T11:09:27Z</time>
      </trkpt>
      <trkpt lat="48.04248" lon="7.41597">
        <ele>199.61</ele>
        <time>2017-01-26T11:09:35Z</time>
      </trkpt>
      <trkpt lat="48.0425" lon="7.41583">
        <ele>198.65</ele>
        <time>2017-01-26T11:09:44Z</time>
      </trkpt>
      <trkpt lat="48.04253" lon="7.41567">
        <ele>201.05</ele>
        <time>2017-01-26T11:09:56Z</time>
      </trkpt>
      <trkpt lat="48.04242" lon="7.41554">
        <ele>199.61</ele>
        <time>2017-01-26T11:10:07Z</time>
      </trkpt>
      <trkpt lat="48.04235" lon="7.41541">
        <ele>199.61</ele>
        <time>2017-01-26T11:10:19Z</time>
      </trkpt>
      <trkpt lat="48.04226" lon="7.41537">
        <ele>200.09</ele>
        <time>2017-01-26T11:10:28Z</time>
      </trkpt>
      <trkpt lat="48.04218" lon="7.41529">
        <ele>199.61</ele>
        <time>2017-01-26T11:10:38Z</time>
      </trkpt>
      <trkpt lat="48.04209" lon="7.41519">
        <ele>200.09</ele>
        <time>2017-01-26T11:10:47Z</time>
      </trkpt>
      <trkpt lat="48.04197" lon="7.41513">
        <ele>200.57</ele>
        <time>2017-01-26T11:10:56Z</time>
      </trkpt>
      <trkpt lat="48.04185" lon="7.41508">
        <ele>200.09</ele>
        <time>2017-01-26T11:11:05Z</time>
      </trkpt>
      <trkpt lat="48.04176" lon="7.41501">
        <ele>200.09</ele>
        <time>2017-01-26T11:11:13Z</time>
      </trkpt>
      <trkpt lat="48.04168" lon="7.41495">
        <ele>200.09</ele>
        <time>2017-01-26T11:11:21Z</time>
      </trkpt>
      <trkpt lat="48.04162" lon="7.41484">
        <ele>199.61</ele>
        <time>2017-01-26T11:11:29Z</time>
      </trkpt>
      <trkpt lat="48.04156" lon="7.41474">
        <ele>199.61</ele>
        <time>2017-01-26T11:11:37Z</time>
      </trkpt>
      <trkpt lat="48.04151" lon="7.41461">
        <ele>199.61</ele>
        <time>2017-01-26T11:11:47Z</time>
      </trkpt>
      <trkpt lat="48.04149" lon="7.41444">
        <ele>199.13</ele>
        <time>2017-01-26T11:11:56Z</time>
      </trkpt>
      <trkpt lat="48.04144" lon="7.41431">
        <ele>199.13</ele>
        <time>2017-01-26T11:12:06Z</time>
      </trkpt>
      <trkpt lat="48.04131" lon="7.41426">
        <ele>198.65</ele>
        <time>2017-01-26T11:12:15Z</time>
      </trkpt>
      <trkpt lat="48.04121" lon="7.41421">
        <ele>199.13</ele>
        <time>2017-01-26T11:12:22Z</time>
      </trkpt>
      <trkpt lat="48.04111" lon="7.4142">
        <ele>199.61</ele>
        <time>2017-01-26T11:12:30Z</time>
      </trkpt>
      <trkpt lat="48.04106" lon="7.41409">
        <ele>199.61</ele>
        <time>2017-01-26T11:12:38Z</time>
      </trkpt>
      <trkpt lat="48.04111" lon="7.41393">
        <ele>199.13</ele>
        <time>2017-01-26T11:12:47Z</time>
      </trkpt>
      <trkpt lat="48.04115" lon="7.41376">
        <ele>199.13</ele>
        <time>2017-01-26T11:12:57Z</time>
      </trkpt>
      <trkpt lat="48.0412" lon="7.41359">
        <ele>199.13</ele>
        <time>2017-01-26T11:13:05Z</time>
      </trkpt>
      <trkpt lat="48.04123" lon="7.41346">
        <ele>199.13</ele>
        <time>2017-01-26T11:13:13Z</time>
      </trkpt>
      <trkpt lat="48.04127" lon="7.4133">
        <ele>199.13</ele>
        <time>2017-01-26T11:13:21Z</time>
      </trkpt>
      <trkpt lat="48.04128" lon="7.41314">
        <ele>199.13</ele>
        <time>2017-01-26T11:13:31Z</time>
      </trkpt>
      <trkpt lat="48.04131" lon="7.41298">
        <ele>199.13</ele>
        <time>2017-01-26T11:13:39Z</time>
      </trkpt>
      <trkpt lat="48.04132" lon="7.41285">
        <ele>198.65</ele>
        <time>2017-01-26T11:13:47Z</time>
      </trkpt>
      <trkpt lat="48.04137" lon="7.4127">
        <ele>199.13</ele>
        <time>2017-01-26T11:13:57Z</time>
      </trkpt>
      <trkpt lat="48.0414" lon="7.41257">
        <ele>198.65</ele>
        <time>2017-01-26T11:14:08Z</time>
      </trkpt>
      <trkpt lat="48.04143" lon="7.41242">
        <ele>199.13</ele>
        <time>2017-01-26T11:14:32Z</time>
      </trkpt>
      <trkpt lat="48.04149" lon="7.4123">
        <ele>198.65</ele>
        <time>2017-01-26T11:14:40Z</time>
      </trkpt>
      <trkpt lat="48.04153" lon="7.41216">
        <ele>198.65</ele>
        <time>2017-01-26T11:14:50Z</time>
      </trkpt>
      <trkpt lat="48.04159" lon="7.41204">
        <ele>198.65</ele>
        <time>2017-01-26T11:14:57Z</time>
      </trkpt>
      <trkpt lat="48.04165" lon="7.41192">
        <ele>199.13</ele>
        <time>2017-01-26T11:15:05Z</time>
      </trkpt>
      <trkpt lat="48.04166" lon="7.4118">
        <ele>199.13</ele>
        <time>2017-01-26T11:15:22Z</time>
      </trkpt>
      <trkpt lat="48.04161" lon="7.41167">
        <ele>198.65</ele>
        <time>2017-01-26T11:15:59Z</time>
      </trkpt>
      <trkpt lat="48.04163" lon="7.41155">
        <ele>195.28</ele>
        <time>2017-01-26T11:16:11Z</time>
      </trkpt>
      <trkpt lat="48.04153" lon="7.41149">
        <ele>199.13</ele>
        <time>2017-01-26T11:16:20Z</time>
      </trkpt>
      <trkpt lat="48.04155" lon="7.41152">
        <ele>198.65</ele>
        <time>2017-01-26T11:16:30Z</time>
      </trkpt>
      <trkpt lat="48.04161" lon="7.41162">
        <ele>198.65</ele>
        <time>2017-01-26T11:16:40Z</time>
      </trkpt>
      <trkpt lat="48.04154" lon="7.41167">
        <ele>198.65</ele>
        <time>2017-01-26T11:16:52Z</time>
      </trkpt>
      <trkpt lat="48.0415" lon="7.41165">
        <ele>199.61</ele>
        <time>2017-01-26T11:17:26Z</time>
      </trkpt>
      <trkpt lat="48.04147" lon="7.41152">
        <ele>199.61</ele>
        <time>2017-01-26T11:17:54Z</time>
      </trkpt>
      <trkpt lat="48.04147" lon="7.41152">
        <ele>191.92</ele>
        <time>2017-01-26T12:04:57Z</time>
      </trkpt>
      <trkpt lat="48.04152" lon="7.41179">
        <ele>203.46</ele>
        <time>2017-01-26T12:05:33Z</time>
      </trkpt>
      <trkpt lat="48.04177" lon="7.41174">
        <ele>199.13</ele>
        <time>2017-01-26T12:06:16Z</time>
      </trkpt>
      <trkpt lat="48.04187" lon="7.41178">
        <ele>201.05</ele>
        <time>2017-01-26T12:06:24Z</time>
      </trkpt>
      <trkpt lat="48.04199" lon="7.41181">
        <ele>201.53</ele>
        <time>2017-01-26T12:06:32Z</time>
      </trkpt>
      <trkpt lat="48.0421" lon="7.41184">
        <ele>201.05</ele>
        <time>2017-01-26T12:06:40Z</time>
      </trkpt>
      <trkpt lat="48.04221" lon="7.41188">
        <ele>201.05</ele>
        <time>2017-01-26T12:06:49Z</time>
      </trkpt>
      <trkpt lat="48.04231" lon="7.41186">
        <ele>201.53</ele>
        <time>2017-01-26T12:06:58Z</time>
      </trkpt>
      <trkpt lat="48.04242" lon="7.41189">
        <ele>200.57</ele>
        <time>2017-01-26T12:07:05Z</time>
      </trkpt>
      <trkpt lat="48.04254" lon="7.41192">
        <ele>200.57</ele>
        <time>2017-01-26T12:07:15Z</time>
      </trkpt>
      <trkpt lat="48.04263" lon="7.41194">
        <ele>201.05</ele>
        <time>2017-01-26T12:07:22Z</time>
      </trkpt>
      <trkpt lat="48.0427" lon="7.41199">
        <ele>201.05</ele>
        <time>2017-01-26T12:07:28Z</time>
      </trkpt>
      <trkpt lat="48.0428" lon="7.41196">
        <ele>200.57</ele>
        <time>2017-01-26T12:07:38Z</time>
      </trkpt>
      <trkpt lat="48.04285" lon="7.41182">
        <ele>201.53</ele>
        <time>2017-01-26T12:07:46Z</time>
      </trkpt>
      <trkpt lat="48.04292" lon="7.41168">
        <ele>197.21</ele>
        <time>2017-01-26T12:07:53Z</time>
      </trkpt>
      <trkpt lat="48.04293" lon="7.41155">
        <ele>202.98</ele>
        <time>2017-01-26T12:08:01Z</time>
      </trkpt>
      <trkpt lat="48.04293" lon="7.41138">
        <ele>200.57</ele>
        <time>2017-01-26T12:08:09Z</time>
      </trkpt>
      <trkpt lat="48.04295" lon="7.41123">
        <ele>199.61</ele>
        <time>2017-01-26T12:08:16Z</time>
      </trkpt>
      <trkpt lat="48.04299" lon="7.41104">
        <ele>203.46</ele>
        <time>2017-01-26T12:08:27Z</time>
      </trkpt>
      <trkpt lat="48.04303" lon="7.41089">
        <ele>201.05</ele>
        <time>2017-01-26T12:08:34Z</time>
      </trkpt>
      <trkpt lat="48.04306" lon="7.41072">
        <ele>203.46</ele>
        <time>2017-01-26T12:08:42Z</time>
      </trkpt>
      <trkpt lat="48.04311" lon="7.41058">
        <ele>201.05</ele>
        <time>2017-01-26T12:08:49Z</time>
      </trkpt>
      <trkpt lat="48.04317" lon="7.41045">
        <ele>202.01</ele>
        <time>2017-01-26T12:08:56Z</time>
      </trkpt>
      <trkpt lat="48.04322" lon="7.41032">
        <ele>202.01</ele>
        <time>2017-01-26T12:09:03Z</time>
      </trkpt>
      <trkpt lat="48.04329" lon="7.41017">
        <ele>199.61</ele>
        <time>2017-01-26T12:09:11Z</time>
      </trkpt>
      <trkpt lat="48.04333" lon="7.41004">
        <ele>201.05</ele>
        <time>2017-01-26T12:09:19Z</time>
      </trkpt>
      <trkpt lat="48.04337" lon="7.40991">
        <ele>202.49</ele>
        <time>2017-01-26T12:09:26Z</time>
      </trkpt>
      <trkpt lat="48.04341" lon="7.40978">
        <ele>202.49</ele>
        <time>2017-01-26T12:09:33Z</time>
      </trkpt>
      <trkpt lat="48.04347" lon="7.40968">
        <ele>202.01</ele>
        <time>2017-01-26T12:09:40Z</time>
      </trkpt>
      <trkpt lat="48.04348" lon="7.4095">
        <ele>201.53</ele>
        <time>2017-01-26T12:09:48Z</time>
      </trkpt>
      <trkpt lat="48.04349" lon="7.40933">
        <ele>201.05</ele>
        <time>2017-01-26T12:09:55Z</time>
      </trkpt>
      <trkpt lat="48.04339" lon="7.40926">
        <ele>201.05</ele>
        <time>2017-01-26T12:10:03Z</time>
      </trkpt>
      <trkpt lat="48.0433" lon="7.40922">
        <ele>201.05</ele>
        <time>2017-01-26T12:10:10Z</time>
      </trkpt>
      <trkpt lat="48.0432" lon="7.40922">
        <ele>200.57</ele>
        <time>2017-01-26T12:10:18Z</time>
      </trkpt>
      <trkpt lat="48.0431" lon="7.40921">
        <ele>200.09</ele>
        <time>2017-01-26T12:10:26Z</time>
      </trkpt>
      <trkpt lat="48.043" lon="7.40921">
        <ele>201.05</ele>
        <time>2017-01-26T12:10:33Z</time>
      </trkpt>
      <trkpt lat="48.04289" lon="7.40921">
        <ele>198.65</ele>
        <time>2017-01-26T12:10:40Z</time>
      </trkpt>
      <trkpt lat="48.04279" lon="7.40923">
        <ele>202.98</ele>
        <time>2017-01-26T12:10:46Z</time>
      </trkpt>
      <trkpt lat="48.04269" lon="7.40924">
        <ele>198.65</ele>
        <time>2017-01-26T12:10:53Z</time>
      </trkpt>
      <trkpt lat="48.0426" lon="7.40923">
        <ele>202.01</ele>
        <time>2017-01-26T12:11:00Z</time>
      </trkpt>
      <trkpt lat="48.04249" lon="7.40923">
        <ele>197.69</ele>
        <time>2017-01-26T12:11:07Z</time>
      </trkpt>
      <trkpt lat="48.04239" lon="7.40923">
        <ele>198.65</ele>
        <time>2017-01-26T12:11:15Z</time>
      </trkpt>
      <trkpt lat="48.04229" lon="7.40924">
        <ele>201.53</ele>
        <time>2017-01-26T12:11:23Z</time>
      </trkpt>
      <trkpt lat="48.04218" lon="7.40923">
        <ele>197.69</ele>
        <time>2017-01-26T12:11:30Z</time>
      </trkpt>
      <trkpt lat="48.04208" lon="7.40924">
        <ele>202.01</ele>
        <time>2017-01-26T12:11:37Z</time>
      </trkpt>
      <trkpt lat="48.04198" lon="7.40928">
        <ele>197.69</ele>
        <time>2017-01-26T12:11:44Z</time>
      </trkpt>
      <trkpt lat="48.04187" lon="7.4093">
        <ele>202.49</ele>
        <time>2017-01-26T12:11:52Z</time>
      </trkpt>
      <trkpt lat="48.04177" lon="7.40924">
        <ele>198.65</ele>
        <time>2017-01-26T12:12:01Z</time>
      </trkpt>
      <trkpt lat="48.04166" lon="7.40923">
        <ele>200.57</ele>
        <time>2017-01-26T12:12:08Z</time>
      </trkpt>
      <trkpt lat="48.04153" lon="7.40922">
        <ele>199.61</ele>
        <time>2017-01-26T12:12:17Z</time>
      </trkpt>
      <trkpt lat="48.04141" lon="7.40922">
        <ele>199.13</ele>
        <time>2017-01-26T12:12:24Z</time>
      </trkpt>
      <trkpt lat="48.04149" lon="7.40924">
        <ele>199.13</ele>
        <time>2017-01-26T12:12:32Z</time>
      </trkpt>
      <trkpt lat="48.0416" lon="7.40926">
        <ele>198.65</ele>
        <time>2017-01-26T12:12:41Z</time>
      </trkpt>
      <trkpt lat="48.04169" lon="7.40926">
        <ele>198.65</ele>
        <time>2017-01-26T12:12:46Z</time>
      </trkpt>
      <trkpt lat="48.04179" lon="7.40928">
        <ele>198.65</ele>
        <time>2017-01-26T12:12:53Z</time>
      </trkpt>
      <trkpt lat="48.04189" lon="7.40931">
        <ele>198.65</ele>
        <time>2017-01-26T12:13:01Z</time>
      </trkpt>
      <trkpt lat="48.042" lon="7.40929">
        <ele>198.65</ele>
        <time>2017-01-26T12:13:08Z</time>
      </trkpt>
      <trkpt lat="48.0421" lon="7.40928">
        <ele>198.65</ele>
        <time>2017-01-26T12:13:15Z</time>
      </trkpt>
      <trkpt lat="48.0422" lon="7.40926">
        <ele>199.13</ele>
        <time>2017-01-26T12:13:21Z</time>
      </trkpt>
      <trkpt lat="48.0423" lon="7.40927">
        <ele>199.61</ele>
        <time>2017-01-26T12:13:29Z</time>
      </trkpt>
      <trkpt lat="48.0424" lon="7.40926">
        <ele>199.61</ele>
        <time>2017-01-26T12:13:36Z</time>
      </trkpt>
      <trkpt lat="48.0425" lon="7.40928">
        <ele>199.13</ele>
        <time>2017-01-26T12:13:43Z</time>
      </trkpt>
      <trkpt lat="48.0426" lon="7.40928">
        <ele>199.13</ele>
        <time>2017-01-26T12:13:51Z</time>
      </trkpt>
      <trkpt lat="48.04266" lon="7.40917">
        <ele>199.13</ele>
        <time>2017-01-26T12:13:58Z</time>
      </trkpt>
      <trkpt lat="48.04267" lon="7.40901">
        <ele>199.13</ele>
        <time>2017-01-26T12:14:06Z</time>
      </trkpt>
      <trkpt lat="48.04266" lon="7.40887">
        <ele>198.65</ele>
        <time>2017-01-26T12:14:11Z</time>
      </trkpt>
      <trkpt lat="48.04268" lon="7.40874">
        <ele>199.13</ele>
        <time>2017-01-26T12:14:17Z</time>
      </trkpt>
      <trkpt lat="48.04269" lon="7.40857">
        <ele>199.13</ele>
        <time>2017-01-26T12:14:27Z</time>
      </trkpt>
      <trkpt lat="48.0427" lon="7.40842">
        <ele>199.13</ele>
        <time>2017-01-26T12:14:32Z</time>
      </trkpt>
      <trkpt lat="48.04269" lon="7.40828">
        <ele>199.13</ele>
        <time>2017-01-26T12:14:38Z</time>
      </trkpt>
      <trkpt lat="48.04273" lon="7.40814">
        <ele>199.13</ele>
        <time>2017-01-26T12:14:45Z</time>
      </trkpt>
      <trkpt lat="48.04275" lon="7.40801">
        <ele>198.65</ele>
        <time>2017-01-26T12:14:52Z</time>
      </trkpt>
      <trkpt lat="48.04278" lon="7.40787">
        <ele>199.13</ele>
        <time>2017-01-26T12:14:59Z</time>
      </trkpt>
      <trkpt lat="48.0428" lon="7.40772">
        <ele>199.61</ele>
        <time>2017-01-26T12:15:06Z</time>
      </trkpt>
      <trkpt lat="48.04282" lon="7.40758">
        <ele>198.17</ele>
        <time>2017-01-26T12:15:13Z</time>
      </trkpt>
      <trkpt lat="48.04285" lon="7.40743">
        <ele>197.21</ele>
        <time>2017-01-26T12:15:21Z</time>
      </trkpt>
      <trkpt lat="48.04286" lon="7.40729">
        <ele>196.73</ele>
        <time>2017-01-26T12:15:28Z</time>
      </trkpt>
      <trkpt lat="48.04289" lon="7.40713">
        <ele>199.61</ele>
        <time>2017-01-26T12:15:35Z</time>
      </trkpt>
      <trkpt lat="48.04292" lon="7.40698">
        <ele>199.61</ele>
        <time>2017-01-26T12:15:42Z</time>
      </trkpt>
      <trkpt lat="48.04293" lon="7.40685">
        <ele>196.73</ele>
        <time>2017-01-26T12:15:49Z</time>
      </trkpt>
      <trkpt lat="48.04296" lon="7.4067">
        <ele>198.17</ele>
        <time>2017-01-26T12:15:56Z</time>
      </trkpt>
      <trkpt lat="48.04298" lon="7.40656">
        <ele>199.13</ele>
        <time>2017-01-26T12:16:03Z</time>
      </trkpt>
      <trkpt lat="48.04301" lon="7.40643">
        <ele>198.65</ele>
        <time>2017-01-26T12:16:10Z</time>
      </trkpt>
      <trkpt lat="48.04304" lon="7.40628">
        <ele>197.21</ele>
        <time>2017-01-26T12:16:17Z</time>
      </trkpt>
      <trkpt lat="48.04306" lon="7.40614">
        <ele>199.61</ele>
        <time>2017-01-26T12:16:24Z</time>
      </trkpt>
      <trkpt lat="48.04308" lon="7.40601">
        <ele>197.21</ele>
        <time>2017-01-26T12:16:31Z</time>
      </trkpt>
      <trkpt lat="48.0431" lon="7.40587">
        <ele>198.17</ele>
        <time>2017-01-26T12:16:37Z</time>
      </trkpt>
      <trkpt lat="48.04313" lon="7.40573">
        <ele>196.73</ele>
        <time>2017-01-26T12:16:44Z</time>
      </trkpt>
      <trkpt lat="48.04317" lon="7.40558">
        <ele>199.61</ele>
        <time>2017-01-26T12:16:51Z</time>
      </trkpt>
      <trkpt lat="48.04318" lon="7.40545">
        <ele>197.21</ele>
        <time>2017-01-26T12:16:58Z</time>
      </trkpt>
      <trkpt lat="48.0432" lon="7.4053">
        <ele>198.17</ele>
        <time>2017-01-26T12:17:06Z</time>
      </trkpt>
      <trkpt lat="48.04323" lon="7.40516">
        <ele>199.61</ele>
        <time>2017-01-26T12:17:13Z</time>
      </trkpt>
      <trkpt lat="48.04325" lon="7.40504">
        <ele>196.73</ele>
        <time>2017-01-26T12:17:19Z</time>
      </trkpt>
      <trkpt lat="48.04328" lon="7.40489">
        <ele>198.17</ele>
        <time>2017-01-26T12:17:26Z</time>
      </trkpt>
      <trkpt lat="48.04331" lon="7.40475">
        <ele>197.69</ele>
        <time>2017-01-26T12:17:33Z</time>
      </trkpt>
      <trkpt lat="48.04334" lon="7.4046">
        <ele>195.77</ele>
        <time>2017-01-26T12:17:40Z</time>
      </trkpt>
      <trkpt lat="48.04339" lon="7.40447">
        <ele>199.13</ele>
        <time>2017-01-26T12:17:47Z</time>
      </trkpt>
      <trkpt lat="48.04342" lon="7.40434">
        <ele>196.73</ele>
        <time>2017-01-26T12:17:53Z</time>
      </trkpt>
      <trkpt lat="48.04344" lon="7.40421">
        <ele>199.61</ele>
        <time>2017-01-26T12:18:00Z</time>
      </trkpt>
      <trkpt lat="48.04346" lon="7.40407">
        <ele>196.25</ele>
        <time>2017-01-26T12:18:07Z</time>
      </trkpt>
      <trkpt lat="48.04349" lon="7.40393">
        <ele>199.13</ele>
        <time>2017-01-26T12:18:14Z</time>
      </trkpt>
      <trkpt lat="48.04353" lon="7.40378">
        <ele>195.77</ele>
        <time>2017-01-26T12:18:21Z</time>
      </trkpt>
      <trkpt lat="48.04355" lon="7.40364">
        <ele>199.61</ele>
        <time>2017-01-26T12:18:28Z</time>
      </trkpt>
      <trkpt lat="48.04356" lon="7.4035">
        <ele>199.61</ele>
        <time>2017-01-26T12:18:36Z</time>
      </trkpt>
      <trkpt lat="48.0436" lon="7.40337">
        <ele>196.73</ele>
        <time>2017-01-26T12:18:43Z</time>
      </trkpt>
      <trkpt lat="48.04363" lon="7.40321">
        <ele>199.61</ele>
        <time>2017-01-26T12:18:51Z</time>
      </trkpt>
      <trkpt lat="48.04367" lon="7.40306">
        <ele>198.65</ele>
        <time>2017-01-26T12:18:59Z</time>
      </trkpt>
      <trkpt lat="48.0437" lon="7.40291">
        <ele>197.21</ele>
        <time>2017-01-26T12:19:07Z</time>
      </trkpt>
      <trkpt lat="48.04372" lon="7.40277">
        <ele>200.09</ele>
        <time>2017-01-26T12:19:14Z</time>
      </trkpt>
      <trkpt lat="48.04376" lon="7.40261">
        <ele>196.25</ele>
        <time>2017-01-26T12:19:22Z</time>
      </trkpt>
      <trkpt lat="48.04379" lon="7.40247">
        <ele>200.09</ele>
        <time>2017-01-26T12:19:29Z</time>
      </trkpt>
      <trkpt lat="48.04382" lon="7.40234">
        <ele>195.77</ele>
        <time>2017-01-26T12:19:36Z</time>
      </trkpt>
      <trkpt lat="48.04384" lon="7.4022">
        <ele>200.57</ele>
        <time>2017-01-26T12:19:43Z</time>
      </trkpt>
      <trkpt lat="48.04387" lon="7.40206">
        <ele>195.28</ele>
        <time>2017-01-26T12:19:50Z</time>
      </trkpt>
      <trkpt lat="48.04389" lon="7.40192">
        <ele>200.57</ele>
        <time>2017-01-26T12:19:57Z</time>
      </trkpt>
      <trkpt lat="48.04392" lon="7.40177">
        <ele>196.73</ele>
        <time>2017-01-26T12:20:04Z</time>
      </trkpt>
      <trkpt lat="48.04394" lon="7.40163">
        <ele>200.09</ele>
        <time>2017-01-26T12:20:11Z</time>
      </trkpt>
      <trkpt lat="48.04395" lon="7.40149">
        <ele>195.77</ele>
        <time>2017-01-26T12:20:18Z</time>
      </trkpt>
      <trkpt lat="48.04397" lon="7.40135">
        <ele>199.61</ele>
        <time>2017-01-26T12:20:25Z</time>
      </trkpt>
      <trkpt lat="48.044" lon="7.4012">
        <ele>194.32</ele>
        <time>2017-01-26T12:20:32Z</time>
      </trkpt>
      <trkpt lat="48.044" lon="7.40106">
        <ele>200.09</ele>
        <time>2017-01-26T12:20:39Z</time>
      </trkpt>
      <trkpt lat="48.04402" lon="7.40091">
        <ele>194.8</ele>
        <time>2017-01-26T12:20:46Z</time>
      </trkpt>
      <trkpt lat="48.04404" lon="7.40077">
        <ele>200.09</ele>
        <time>2017-01-26T12:20:53Z</time>
      </trkpt>
      <trkpt lat="48.04407" lon="7.40062">
        <ele>194.8</ele>
        <time>2017-01-26T12:21:00Z</time>
      </trkpt>
      <trkpt lat="48.04407" lon="7.40046">
        <ele>200.09</ele>
        <time>2017-01-26T12:21:08Z</time>
      </trkpt>
      <trkpt lat="48.04408" lon="7.40032">
        <ele>198.17</ele>
        <time>2017-01-26T12:21:15Z</time>
      </trkpt>
      <trkpt lat="48.04408" lon="7.40018">
        <ele>195.77</ele>
        <time>2017-01-26T12:21:22Z</time>
      </trkpt>
      <trkpt lat="48.04407" lon="7.40004">
        <ele>199.61</ele>
        <time>2017-01-26T12:21:29Z</time>
      </trkpt>
      <trkpt lat="48.04407" lon="7.39989">
        <ele>195.28</ele>
        <time>2017-01-26T12:21:36Z</time>
      </trkpt>
      <trkpt lat="48.04406" lon="7.39973">
        <ele>200.09</ele>
        <time>2017-01-26T12:21:44Z</time>
      </trkpt>
      <trkpt lat="48.04406" lon="7.39958">
        <ele>198.17</ele>
        <time>2017-01-26T12:21:51Z</time>
      </trkpt>
      <trkpt lat="48.04406" lon="7.39944">
        <ele>198.65</ele>
        <time>2017-01-26T12:21:58Z</time>
      </trkpt>
      <trkpt lat="48.04406" lon="7.39928">
        <ele>198.65</ele>
        <time>2017-01-26T12:22:05Z</time>
      </trkpt>
      <trkpt lat="48.04407" lon="7.39915">
        <ele>198.65</ele>
        <time>2017-01-26T12:22:11Z</time>
      </trkpt>
      <trkpt lat="48.04408" lon="7.39899">
        <ele>197.69</ele>
        <time>2017-01-26T12:22:18Z</time>
      </trkpt>
      <trkpt lat="48.0441" lon="7.39885">
        <ele>200.57</ele>
        <time>2017-01-26T12:22:25Z</time>
      </trkpt>
      <trkpt lat="48.04411" lon="7.39872">
        <ele>194.32</ele>
        <time>2017-01-26T12:22:32Z</time>
      </trkpt>
      <trkpt lat="48.04414" lon="7.39858">
        <ele>199.13</ele>
        <time>2017-01-26T12:22:39Z</time>
      </trkpt>
      <trkpt lat="48.04415" lon="7.39844">
        <ele>198.17</ele>
        <time>2017-01-26T12:22:46Z</time>
      </trkpt>
      <trkpt lat="48.04417" lon="7.39829">
        <ele>197.69</ele>
        <time>2017-01-26T12:22:54Z</time>
      </trkpt>
      <trkpt lat="48.04419" lon="7.39815">
        <ele>199.61</ele>
        <time>2017-01-26T12:23:01Z</time>
      </trkpt>
      <trkpt lat="48.0442" lon="7.398">
        <ele>195.77</ele>
        <time>2017-01-26T12:23:09Z</time>
      </trkpt>
      <trkpt lat="48.04422" lon="7.39785">
        <ele>197.21</ele>
        <time>2017-01-26T12:23:16Z</time>
      </trkpt>
      <trkpt lat="48.04424" lon="7.39771">
        <ele>199.61</ele>
        <time>2017-01-26T12:23:23Z</time>
      </trkpt>
      <trkpt lat="48.04425" lon="7.39757">
        <ele>198.65</ele>
        <time>2017-01-26T12:23:30Z</time>
      </trkpt>
      <trkpt lat="48.04428" lon="7.39742">
        <ele>197.69</ele>
        <time>2017-01-26T12:23:38Z</time>
      </trkpt>
      <trkpt lat="48.0443" lon="7.39728">
        <ele>197.69</ele>
        <time>2017-01-26T12:23:46Z</time>
      </trkpt>
      <trkpt lat="48.04432" lon="7.39714">
        <ele>195.77</ele>
        <time>2017-01-26T12:23:53Z</time>
      </trkpt>
      <trkpt lat="48.04436" lon="7.39699">
        <ele>198.65</ele>
        <time>2017-01-26T12:24:01Z</time>
      </trkpt>
      <trkpt lat="48.04439" lon="7.39685">
        <ele>199.61</ele>
        <time>2017-01-26T12:24:08Z</time>
      </trkpt>
      <trkpt lat="48.04442" lon="7.39671">
        <ele>196.25</ele>
        <time>2017-01-26T12:24:16Z</time>
      </trkpt>
      <trkpt lat="48.04445" lon="7.39655">
        <ele>195.28</ele>
        <time>2017-01-26T12:24:24Z</time>
      </trkpt>
      <trkpt lat="48.04448" lon="7.3964">
        <ele>198.65</ele>
        <time>2017-01-26T12:24:32Z</time>
      </trkpt>
      <trkpt lat="48.04452" lon="7.39628">
        <ele>197.69</ele>
        <time>2017-01-26T12:24:39Z</time>
      </trkpt>
      <trkpt lat="48.04455" lon="7.39613">
        <ele>196.25</ele>
        <time>2017-01-26T12:24:46Z</time>
      </trkpt>
      <trkpt lat="48.04458" lon="7.39598">
        <ele>198.17</ele>
        <time>2017-01-26T12:24:54Z</time>
      </trkpt>
      <trkpt lat="48.04461" lon="7.39584">
        <ele>199.13</ele>
        <time>2017-01-26T12:25:01Z</time>
      </trkpt>
      <trkpt lat="48.04466" lon="7.3957">
        <ele>195.28</ele>
        <time>2017-01-26T12:25:08Z</time>
      </trkpt>
      <trkpt lat="48.04469" lon="7.39557">
        <ele>200.09</ele>
        <time>2017-01-26T12:25:15Z</time>
      </trkpt>
      <trkpt lat="48.04472" lon="7.39544">
        <ele>197.69</ele>
        <time>2017-01-26T12:25:22Z</time>
      </trkpt>
      <trkpt lat="48.04475" lon="7.3953">
        <ele>199.13</ele>
        <time>2017-01-26T12:25:29Z</time>
      </trkpt>
      <trkpt lat="48.04479" lon="7.39516">
        <ele>198.17</ele>
        <time>2017-01-26T12:25:36Z</time>
      </trkpt>
      <trkpt lat="48.04482" lon="7.39502">
        <ele>195.28</ele>
        <time>2017-01-26T12:25:43Z</time>
      </trkpt>
      <trkpt lat="48.04485" lon="7.39489">
        <ele>200.09</ele>
        <time>2017-01-26T12:25:50Z</time>
      </trkpt>
      <trkpt lat="48.04487" lon="7.39474">
        <ele>196.25</ele>
        <time>2017-01-26T12:25:58Z</time>
      </trkpt>
      <trkpt lat="48.0449" lon="7.3946">
        <ele>197.69</ele>
        <time>2017-01-26T12:26:05Z</time>
      </trkpt>
      <trkpt lat="48.04493" lon="7.39445">
        <ele>199.61</ele>
        <time>2017-01-26T12:26:13Z</time>
      </trkpt>
      <trkpt lat="48.04496" lon="7.3943">
        <ele>196.73</ele>
        <time>2017-01-26T12:26:20Z</time>
      </trkpt>
      <trkpt lat="48.04497" lon="7.39416">
        <ele>197.69</ele>
        <time>2017-01-26T12:26:28Z</time>
      </trkpt>
      <trkpt lat="48.04502" lon="7.39402">
        <ele>200.09</ele>
        <time>2017-01-26T12:26:35Z</time>
      </trkpt>
      <trkpt lat="48.04502" lon="7.39387">
        <ele>196.25</ele>
        <time>2017-01-26T12:26:42Z</time>
      </trkpt>
      <trkpt lat="48.04504" lon="7.39373">
        <ele>199.13</ele>
        <time>2017-01-26T12:26:49Z</time>
      </trkpt>
      <trkpt lat="48.04504" lon="7.39359">
        <ele>198.65</ele>
        <time>2017-01-26T12:26:56Z</time>
      </trkpt>
      <trkpt lat="48.04506" lon="7.39346">
        <ele>196.73</ele>
        <time>2017-01-26T12:27:03Z</time>
      </trkpt>
      <trkpt lat="48.04506" lon="7.39331">
        <ele>196.73</ele>
        <time>2017-01-26T12:27:10Z</time>
      </trkpt>
      <trkpt lat="48.04508" lon="7.39315">
        <ele>198.65</ele>
        <time>2017-01-26T12:27:17Z</time>
      </trkpt>
      <trkpt lat="48.04509" lon="7.39302">
        <ele>200.09</ele>
        <time>2017-01-26T12:27:24Z</time>
      </trkpt>
      <trkpt lat="48.04511" lon="7.39288">
        <ele>197.21</ele>
        <time>2017-01-26T12:27:31Z</time>
      </trkpt>
      <trkpt lat="48.04512" lon="7.39274">
        <ele>197.69</ele>
        <time>2017-01-26T12:27:38Z</time>
      </trkpt>
      <trkpt lat="48.04511" lon="7.39258">
        <ele>197.21</ele>
        <time>2017-01-26T12:27:45Z</time>
      </trkpt>
      <trkpt lat="48.04511" lon="7.39245">
        <ele>197.21</ele>
        <time>2017-01-26T12:27:52Z</time>
      </trkpt>
      <trkpt lat="48.04511" lon="7.39231">
        <ele>196.25</ele>
        <time>2017-01-26T12:27:59Z</time>
      </trkpt>
      <trkpt lat="48.04512" lon="7.39218">
        <ele>198.65</ele>
        <time>2017-01-26T12:28:06Z</time>
      </trkpt>
      <trkpt lat="48.04511" lon="7.39203">
        <ele>197.69</ele>
        <time>2017-01-26T12:28:13Z</time>
      </trkpt>
      <trkpt lat="48.04511" lon="7.39189">
        <ele>194.32</ele>
        <time>2017-01-26T12:28:20Z</time>
      </trkpt>
      <trkpt lat="48.04513" lon="7.39174">
        <ele>197.21</ele>
        <time>2017-01-26T12:28:27Z</time>
      </trkpt>
      <trkpt lat="48.04513" lon="7.39162">
        <ele>198.17</ele>
        <time>2017-01-26T12:28:34Z</time>
      </trkpt>
      <trkpt lat="48.04515" lon="7.39148">
        <ele>196.25</ele>
        <time>2017-01-26T12:28:41Z</time>
      </trkpt>
      <trkpt lat="48.04516" lon="7.39135">
        <ele>193.84</ele>
        <time>2017-01-26T12:28:48Z</time>
      </trkpt>
      <trkpt lat="48.04519" lon="7.3912">
        <ele>196.73</ele>
        <time>2017-01-26T12:28:55Z</time>
      </trkpt>
      <trkpt lat="48.04522" lon="7.39106">
        <ele>197.21</ele>
        <time>2017-01-26T12:29:02Z</time>
      </trkpt>
      <trkpt lat="48.04526" lon="7.39092">
        <ele>195.28</ele>
        <time>2017-01-26T12:29:10Z</time>
      </trkpt>
      <trkpt lat="48.04529" lon="7.39076">
        <ele>195.77</ele>
        <time>2017-01-26T12:29:18Z</time>
      </trkpt>
      <trkpt lat="48.04534" lon="7.39063">
        <ele>198.65</ele>
        <time>2017-01-26T12:29:25Z</time>
      </trkpt>
      <trkpt lat="48.04536" lon="7.39049">
        <ele>196.73</ele>
        <time>2017-01-26T12:29:33Z</time>
      </trkpt>
      <trkpt lat="48.04541" lon="7.39035">
        <ele>194.32</ele>
        <time>2017-01-26T12:29:40Z</time>
      </trkpt>
      <trkpt lat="48.04543" lon="7.3902">
        <ele>197.21</ele>
        <time>2017-01-26T12:29:48Z</time>
      </trkpt>
      <trkpt lat="48.04544" lon="7.39006">
        <ele>198.65</ele>
        <time>2017-01-26T12:29:55Z</time>
      </trkpt>
      <trkpt lat="48.04544" lon="7.38991">
        <ele>196.73</ele>
        <time>2017-01-26T12:30:02Z</time>
      </trkpt>
      <trkpt lat="48.04543" lon="7.38978">
        <ele>195.77</ele>
        <time>2017-01-26T12:30:09Z</time>
      </trkpt>
      <trkpt lat="48.04543" lon="7.38965">
        <ele>195.28</ele>
        <time>2017-01-26T12:30:16Z</time>
      </trkpt>
      <trkpt lat="48.04543" lon="7.3895">
        <ele>196.25</ele>
        <time>2017-01-26T12:30:24Z</time>
      </trkpt>
      <trkpt lat="48.04544" lon="7.38934">
        <ele>193.84</ele>
        <time>2017-01-26T12:30:32Z</time>
      </trkpt>
      <trkpt lat="48.04546" lon="7.3892">
        <ele>193.36</ele>
        <time>2017-01-26T12:30:40Z</time>
      </trkpt>
      <trkpt lat="48.04546" lon="7.38914">
        <ele>196.25</ele>
        <time>2017-01-26T12:30:55Z</time>
      </trkpt>
      <trkpt lat="48.04552" lon="7.38903">
        <ele>194.32</ele>
        <time>2017-01-26T12:32:13Z</time>
      </trkpt>
      <trkpt lat="48.04559" lon="7.38887">
        <ele>195.77</ele>
        <time>2017-01-26T12:32:27Z</time>
      </trkpt>
      <trkpt lat="48.0457" lon="7.38864">
        <ele>194.8</ele>
        <time>2017-01-26T12:32:40Z</time>
      </trkpt>
      <trkpt lat="48.04575" lon="7.38839">
        <ele>197.69</ele>
        <time>2017-01-26T12:32:54Z</time>
      </trkpt>
      <trkpt lat="48.04581" lon="7.38815">
        <ele>192.88</ele>
        <time>2017-01-26T12:33:05Z</time>
      </trkpt>
      <trkpt lat="48.04585" lon="7.38781">
        <ele>196.25</ele>
        <time>2017-01-26T12:33:16Z</time>
      </trkpt>
      <trkpt lat="48.04585" lon="7.38759">
        <ele>196.73</ele>
        <time>2017-01-26T12:33:26Z</time>
      </trkpt>
      <trkpt lat="48.04588" lon="7.38745">
        <ele>195.28</ele>
        <time>2017-01-26T12:33:36Z</time>
      </trkpt>
      <trkpt lat="48.04595" lon="7.3873">
        <ele>198.17</ele>
        <time>2017-01-26T12:33:45Z</time>
      </trkpt>
      <trkpt lat="48.04603" lon="7.38709">
        <ele>194.8</ele>
        <time>2017-01-26T12:33:55Z</time>
      </trkpt>
      <trkpt lat="48.04605" lon="7.38689">
        <ele>197.21</ele>
        <time>2017-01-26T12:34:05Z</time>
      </trkpt>
      <trkpt lat="48.0461" lon="7.38675">
        <ele>195.77</ele>
        <time>2017-01-26T12:34:14Z</time>
      </trkpt>
      <trkpt lat="48.04618" lon="7.38659">
        <ele>198.65</ele>
        <time>2017-01-26T12:34:25Z</time>
      </trkpt>
      <trkpt lat="48.04629" lon="7.38635">
        <ele>194.32</ele>
        <time>2017-01-26T12:34:36Z</time>
      </trkpt>
      <trkpt lat="48.04636" lon="7.38609">
        <ele>196.73</ele>
        <time>2017-01-26T12:34:47Z</time>
      </trkpt>
      <trkpt lat="48.04644" lon="7.3859">
        <ele>196.25</ele>
        <time>2017-01-26T12:34:58Z</time>
      </trkpt>
      <trkpt lat="48.04648" lon="7.38573">
        <ele>193.84</ele>
        <time>2017-01-26T12:35:09Z</time>
      </trkpt>
      <trkpt lat="48.04653" lon="7.38556">
        <ele>198.65</ele>
        <time>2017-01-26T12:35:19Z</time>
      </trkpt>
      <trkpt lat="48.04658" lon="7.38534">
        <ele>195.77</ele>
        <time>2017-01-26T12:35:28Z</time>
      </trkpt>
      <trkpt lat="48.04658" lon="7.3851">
        <ele>196.25</ele>
        <time>2017-01-26T12:35:38Z</time>
      </trkpt>
      <trkpt lat="48.04663" lon="7.38497">
        <ele>196.73</ele>
        <time>2017-01-26T12:35:45Z</time>
      </trkpt>
      <trkpt lat="48.04669" lon="7.38489">
        <ele>196.25</ele>
        <time>2017-01-26T12:35:55Z</time>
      </trkpt>
      <trkpt lat="48.04674" lon="7.38503">
        <ele>196.73</ele>
        <time>2017-01-26T12:36:03Z</time>
      </trkpt>
      <trkpt lat="48.04679" lon="7.38517">
        <ele>194.32</ele>
        <time>2017-01-26T12:36:12Z</time>
      </trkpt>
      <trkpt lat="48.04687" lon="7.38529">
        <ele>195.28</ele>
        <time>2017-01-26T12:36:23Z</time>
      </trkpt>
      <trkpt lat="48.04694" lon="7.3854">
        <ele>195.77</ele>
        <time>2017-01-26T12:36:32Z</time>
      </trkpt>
      <trkpt lat="48.04703" lon="7.38551">
        <ele>196.73</ele>
        <time>2017-01-26T12:36:42Z</time>
      </trkpt>
      <trkpt lat="48.04714" lon="7.38562">
        <ele>194.8</ele>
        <time>2017-01-26T12:36:49Z</time>
      </trkpt>
      <trkpt lat="48.0472" lon="7.38575">
        <ele>195.28</ele>
        <time>2017-01-26T12:36:58Z</time>
      </trkpt>
      <trkpt lat="48.04731" lon="7.38586">
        <ele>195.28</ele>
        <time>2017-01-26T12:37:07Z</time>
      </trkpt>
      <trkpt lat="48.04738" lon="7.38592">
        <ele>194.32</ele>
        <time>2017-01-26T12:37:15Z</time>
      </trkpt>
      <trkpt lat="48.04748" lon="7.38601">
        <ele>195.28</ele>
        <time>2017-01-26T12:37:23Z</time>
      </trkpt>
      <trkpt lat="48.04757" lon="7.38609">
        <ele>194.8</ele>
        <time>2017-01-26T12:37:32Z</time>
      </trkpt>
      <trkpt lat="48.04768" lon="7.38624">
        <ele>193.84</ele>
        <time>2017-01-26T12:37:42Z</time>
      </trkpt>
      <trkpt lat="48.04779" lon="7.3864">
        <ele>193.84</ele>
        <time>2017-01-26T12:37:52Z</time>
      </trkpt>
      <trkpt lat="48.04788" lon="7.38652">
        <ele>194.8</ele>
        <time>2017-01-26T12:38:01Z</time>
      </trkpt>
      <trkpt lat="48.04798" lon="7.38661">
        <ele>195.28</ele>
        <time>2017-01-26T12:38:11Z</time>
      </trkpt>
      <trkpt lat="48.04807" lon="7.38673">
        <ele>196.25</ele>
        <time>2017-01-26T12:38:19Z</time>
      </trkpt>
      <trkpt lat="48.04817" lon="7.38682">
        <ele>197.21</ele>
        <time>2017-01-26T12:38:27Z</time>
      </trkpt>
      <trkpt lat="48.04826" lon="7.3869">
        <ele>196.73</ele>
        <time>2017-01-26T12:38:35Z</time>
      </trkpt>
      <trkpt lat="48.04839" lon="7.38693">
        <ele>196.25</ele>
        <time>2017-01-26T12:38:43Z</time>
      </trkpt>
      <trkpt lat="48.04848" lon="7.387">
        <ele>196.25</ele>
        <time>2017-01-26T12:38:50Z</time>
      </trkpt>
      <trkpt lat="48.04859" lon="7.38709">
        <ele>196.25</ele>
        <time>2017-01-26T12:38:59Z</time>
      </trkpt>
      <trkpt lat="48.04868" lon="7.3872">
        <ele>195.77</ele>
        <time>2017-01-26T12:39:07Z</time>
      </trkpt>
      <trkpt lat="48.04877" lon="7.38732">
        <ele>196.25</ele>
        <time>2017-01-26T12:39:16Z</time>
      </trkpt>
      <trkpt lat="48.04883" lon="7.38741">
        <ele>196.73</ele>
        <time>2017-01-26T12:39:25Z</time>
      </trkpt>
      <trkpt lat="48.04894" lon="7.38755">
        <ele>196.25</ele>
        <time>2017-01-26T12:39:35Z</time>
      </trkpt>
      <trkpt lat="48.04903" lon="7.38765">
        <ele>196.25</ele>
        <time>2017-01-26T12:39:42Z</time>
      </trkpt>
      <trkpt lat="48.04915" lon="7.38773">
        <ele>196.73</ele>
        <time>2017-01-26T12:39:51Z</time>
      </trkpt>
      <trkpt lat="48.04926" lon="7.38784">
        <ele>196.73</ele>
        <time>2017-01-26T12:40:00Z</time>
      </trkpt>
      <trkpt lat="48.04937" lon="7.38792">
        <ele>196.25</ele>
        <time>2017-01-26T12:40:07Z</time>
      </trkpt>
      <trkpt lat="48.04943" lon="7.38805">
        <ele>196.25</ele>
        <time>2017-01-26T12:40:16Z</time>
      </trkpt>
      <trkpt lat="48.04952" lon="7.38818">
        <ele>196.25</ele>
        <time>2017-01-26T12:40:25Z</time>
      </trkpt>
      <trkpt lat="48.0496" lon="7.38829">
        <ele>196.25</ele>
        <time>2017-01-26T12:40:33Z</time>
      </trkpt>
      <trkpt lat="48.04971" lon="7.38838">
        <ele>196.73</ele>
        <time>2017-01-26T12:40:42Z</time>
      </trkpt>
      <trkpt lat="48.04981" lon="7.38848">
        <ele>196.25</ele>
        <time>2017-01-26T12:40:51Z</time>
      </trkpt>
      <trkpt lat="48.04989" lon="7.38856">
        <ele>196.25</ele>
        <time>2017-01-26T12:40:57Z</time>
      </trkpt>
      <trkpt lat="48.04998" lon="7.38866">
        <ele>195.77</ele>
        <time>2017-01-26T12:41:06Z</time>
      </trkpt>
      <trkpt lat="48.05007" lon="7.38875">
        <ele>196.73</ele>
        <time>2017-01-26T12:41:16Z</time>
      </trkpt>
      <trkpt lat="48.05022" lon="7.38884">
        <ele>197.21</ele>
        <time>2017-01-26T12:41:25Z</time>
      </trkpt>
      <trkpt lat="48.05031" lon="7.38894">
        <ele>196.25</ele>
        <time>2017-01-26T12:41:34Z</time>
      </trkpt>
      <trkpt lat="48.05042" lon="7.38907">
        <ele>195.77</ele>
        <time>2017-01-26T12:41:45Z</time>
      </trkpt>
      <trkpt lat="48.05052" lon="7.38918">
        <ele>195.77</ele>
        <time>2017-01-26T12:41:53Z</time>
      </trkpt>
      <trkpt lat="48.05062" lon="7.38929">
        <ele>196.25</ele>
        <time>2017-01-26T12:42:02Z</time>
      </trkpt>
      <trkpt lat="48.05072" lon="7.38942">
        <ele>195.77</ele>
        <time>2017-01-26T12:42:11Z</time>
      </trkpt>
      <trkpt lat="48.05086" lon="7.38954">
        <ele>196.25</ele>
        <time>2017-01-26T12:42:22Z</time>
      </trkpt>
      <trkpt lat="48.05096" lon="7.38963">
        <ele>195.77</ele>
        <time>2017-01-26T12:42:30Z</time>
      </trkpt>
      <trkpt lat="48.05105" lon="7.38974">
        <ele>195.77</ele>
        <time>2017-01-26T12:42:40Z</time>
      </trkpt>
      <trkpt lat="48.05117" lon="7.38987">
        <ele>195.77</ele>
        <time>2017-01-26T12:42:49Z</time>
      </trkpt>
      <trkpt lat="48.05127" lon="7.38996">
        <ele>196.25</ele>
        <time>2017-01-26T12:42:57Z</time>
      </trkpt>
      <trkpt lat="48.05137" lon="7.39006">
        <ele>196.25</ele>
        <time>2017-01-26T12:43:05Z</time>
      </trkpt>
      <trkpt lat="48.05146" lon="7.39019">
        <ele>196.25</ele>
        <time>2017-01-26T12:43:15Z</time>
      </trkpt>
      <trkpt lat="48.05157" lon="7.3903">
        <ele>196.73</ele>
        <time>2017-01-26T12:43:25Z</time>
      </trkpt>
      <trkpt lat="48.0517" lon="7.39044">
        <ele>197.21</ele>
        <time>2017-01-26T12:43:36Z</time>
      </trkpt>
      <trkpt lat="48.05179" lon="7.39055">
        <ele>198.17</ele>
        <time>2017-01-26T12:43:45Z</time>
      </trkpt>
      <trkpt lat="48.05187" lon="7.39064">
        <ele>197.69</ele>
        <time>2017-01-26T12:43:53Z</time>
      </trkpt>
      <trkpt lat="48.05196" lon="7.39071">
        <ele>197.21</ele>
        <time>2017-01-26T12:44:01Z</time>
      </trkpt>
      <trkpt lat="48.05204" lon="7.39081">
        <ele>196.73</ele>
        <time>2017-01-26T12:44:09Z</time>
      </trkpt>
      <trkpt lat="48.05214" lon="7.39092">
        <ele>196.25</ele>
        <time>2017-01-26T12:44:19Z</time>
      </trkpt>
      <trkpt lat="48.05225" lon="7.39105">
        <ele>196.25</ele>
        <time>2017-01-26T12:44:28Z</time>
      </trkpt>
      <trkpt lat="48.05233" lon="7.39117">
        <ele>196.25</ele>
        <time>2017-01-26T12:44:37Z</time>
      </trkpt>
      <trkpt lat="48.05243" lon="7.39127">
        <ele>196.25</ele>
        <time>2017-01-26T12:44:46Z</time>
      </trkpt>
      <trkpt lat="48.05254" lon="7.39139">
        <ele>196.25</ele>
        <time>2017-01-26T12:44:55Z</time>
      </trkpt>
      <trkpt lat="48.05264" lon="7.39149">
        <ele>195.28</ele>
        <time>2017-01-26T12:45:04Z</time>
      </trkpt>
      <trkpt lat="48.05272" lon="7.39159">
        <ele>196.25</ele>
        <time>2017-01-26T12:45:12Z</time>
      </trkpt>
      <trkpt lat="48.05281" lon="7.39167">
        <ele>196.25</ele>
        <time>2017-01-26T12:45:20Z</time>
      </trkpt>
      <trkpt lat="48.05292" lon="7.39178">
        <ele>195.77</ele>
        <time>2017-01-26T12:45:29Z</time>
      </trkpt>
      <trkpt lat="48.05301" lon="7.3919">
        <ele>195.77</ele>
        <time>2017-01-26T12:45:38Z</time>
      </trkpt>
      <trkpt lat="48.05313" lon="7.39202">
        <ele>196.25</ele>
        <time>2017-01-26T12:45:47Z</time>
      </trkpt>
      <trkpt lat="48.05323" lon="7.39216">
        <ele>195.77</ele>
        <time>2017-01-26T12:45:58Z</time>
      </trkpt>
      <trkpt lat="48.05332" lon="7.39225">
        <ele>195.77</ele>
        <time>2017-01-26T12:46:06Z</time>
      </trkpt>
      <trkpt lat="48.05342" lon="7.39236">
        <ele>196.25</ele>
        <time>2017-01-26T12:46:14Z</time>
      </trkpt>
      <trkpt lat="48.05351" lon="7.39245">
        <ele>196.25</ele>
        <time>2017-01-26T12:46:22Z</time>
      </trkpt>
      <trkpt lat="48.05359" lon="7.39255">
        <ele>196.25</ele>
        <time>2017-01-26T12:46:30Z</time>
      </trkpt>
      <trkpt lat="48.05371" lon="7.39264">
        <ele>195.77</ele>
        <time>2017-01-26T12:46:39Z</time>
      </trkpt>
      <trkpt lat="48.05383" lon="7.39276">
        <ele>195.77</ele>
        <time>2017-01-26T12:46:49Z</time>
      </trkpt>
      <trkpt lat="48.05392" lon="7.39287">
        <ele>195.77</ele>
        <time>2017-01-26T12:46:58Z</time>
      </trkpt>
      <trkpt lat="48.05403" lon="7.39298">
        <ele>195.77</ele>
        <time>2017-01-26T12:47:08Z</time>
      </trkpt>
      <trkpt lat="48.05411" lon="7.39308">
        <ele>195.28</ele>
        <time>2017-01-26T12:47:17Z</time>
      </trkpt>
      <trkpt lat="48.0542" lon="7.39322">
        <ele>195.77</ele>
        <time>2017-01-26T12:47:28Z</time>
      </trkpt>
      <trkpt lat="48.0543" lon="7.39332">
        <ele>195.77</ele>
        <time>2017-01-26T12:47:37Z</time>
      </trkpt>
      <trkpt lat="48.05441" lon="7.39339">
        <ele>195.28</ele>
        <time>2017-01-26T12:47:45Z</time>
      </trkpt>
      <trkpt lat="48.05452" lon="7.39347">
        <ele>195.77</ele>
        <time>2017-01-26T12:47:53Z</time>
      </trkpt>
      <trkpt lat="48.05461" lon="7.39357">
        <ele>196.25</ele>
        <time>2017-01-26T12:48:02Z</time>
      </trkpt>
      <trkpt lat="48.05468" lon="7.39362">
        <ele>195.77</ele>
        <time>2017-01-26T12:48:10Z</time>
      </trkpt>
      <trkpt lat="48.05481" lon="7.39357">
        <ele>195.77</ele>
        <time>2017-01-26T12:48:22Z</time>
      </trkpt>
      <trkpt lat="48.05486" lon="7.39344">
        <ele>195.77</ele>
        <time>2017-01-26T12:49:07Z</time>
      </trkpt>
      <trkpt lat="48.05492" lon="7.39327">
        <ele>195.77</ele>
        <time>2017-01-26T12:49:17Z</time>
      </trkpt>
      <trkpt lat="48.055" lon="7.39307">
        <ele>195.77</ele>
        <time>2017-01-26T12:49:27Z</time>
      </trkpt>
      <trkpt lat="48.05506" lon="7.39291">
        <ele>195.77</ele>
        <time>2017-01-26T12:49:38Z</time>
      </trkpt>
      <trkpt lat="48.05512" lon="7.39279">
        <ele>195.77</ele>
        <time>2017-01-26T12:49:45Z</time>
      </trkpt>
      <trkpt lat="48.05521" lon="7.39264">
        <ele>194.8</ele>
        <time>2017-01-26T12:49:53Z</time>
      </trkpt>
      <trkpt lat="48.05526" lon="7.39245">
        <ele>195.28</ele>
        <time>2017-01-26T12:50:02Z</time>
      </trkpt>
      <trkpt lat="48.05535" lon="7.39226">
        <ele>195.28</ele>
        <time>2017-01-26T12:50:14Z</time>
      </trkpt>
      <trkpt lat="48.05543" lon="7.39211">
        <ele>195.77</ele>
        <time>2017-01-26T12:50:23Z</time>
      </trkpt>
      <trkpt lat="48.05552" lon="7.39194">
        <ele>194.32</ele>
        <time>2017-01-26T12:50:33Z</time>
      </trkpt>
      <trkpt lat="48.05565" lon="7.39177">
        <ele>195.28</ele>
        <time>2017-01-26T12:50:44Z</time>
      </trkpt>
      <trkpt lat="48.05572" lon="7.39158">
        <ele>195.28</ele>
        <time>2017-01-26T12:50:57Z</time>
      </trkpt>
      <trkpt lat="48.05586" lon="7.39132">
        <ele>195.28</ele>
        <time>2017-01-26T12:51:13Z</time>
      </trkpt>
      <trkpt lat="48.05596" lon="7.39111">
        <ele>195.28</ele>
        <time>2017-01-26T12:51:29Z</time>
      </trkpt>
      <trkpt lat="48.05606" lon="7.39094">
        <ele>195.77</ele>
        <time>2017-01-26T12:51:38Z</time>
      </trkpt>
      <trkpt lat="48.05607" lon="7.39081">
        <ele>195.28</ele>
        <time>2017-01-26T12:51:50Z</time>
      </trkpt>
      <trkpt lat="48.05612" lon="7.39067">
        <ele>194.8</ele>
        <time>2017-01-26T12:52:01Z</time>
      </trkpt>
      <trkpt lat="48.05621" lon="7.3905">
        <ele>194.8</ele>
        <time>2017-01-26T12:52:11Z</time>
      </trkpt>
      <trkpt lat="48.05628" lon="7.39035">
        <ele>194.8</ele>
        <time>2017-01-26T12:52:20Z</time>
      </trkpt>
      <trkpt lat="48.05635" lon="7.3902">
        <ele>193.84</ele>
        <time>2017-01-26T12:52:29Z</time>
      </trkpt>
      <trkpt lat="48.05644" lon="7.39005">
        <ele>194.32</ele>
        <time>2017-01-26T12:52:39Z</time>
      </trkpt>
      <trkpt lat="48.05654" lon="7.38989">
        <ele>194.8</ele>
        <time>2017-01-26T12:52:47Z</time>
      </trkpt>
      <trkpt lat="48.05661" lon="7.3897">
        <ele>194.8</ele>
        <time>2017-01-26T12:52:57Z</time>
      </trkpt>
      <trkpt lat="48.05669" lon="7.38952">
        <ele>194.32</ele>
        <time>2017-01-26T12:53:08Z</time>
      </trkpt>
      <trkpt lat="48.05674" lon="7.38938">
        <ele>192.88</ele>
        <time>2017-01-26T12:53:17Z</time>
      </trkpt>
      <trkpt lat="48.0568" lon="7.38924">
        <ele>194.32</ele>
        <time>2017-01-26T12:53:25Z</time>
      </trkpt>
      <trkpt lat="48.05686" lon="7.38909">
        <ele>194.32</ele>
        <time>2017-01-26T12:53:34Z</time>
      </trkpt>
      <trkpt lat="48.05693" lon="7.38891">
        <ele>194.32</ele>
        <time>2017-01-26T12:53:44Z</time>
      </trkpt>
      <trkpt lat="48.05697" lon="7.38871">
        <ele>193.84</ele>
        <time>2017-01-26T12:53:53Z</time>
      </trkpt>
      <trkpt lat="48.057" lon="7.3885">
        <ele>193.84</ele>
        <time>2017-01-26T12:54:04Z</time>
      </trkpt>
      <trkpt lat="48.05707" lon="7.38834">
        <ele>194.8</ele>
        <time>2017-01-26T12:54:13Z</time>
      </trkpt>
      <trkpt lat="48.05713" lon="7.38813">
        <ele>194.32</ele>
        <time>2017-01-26T12:54:22Z</time>
      </trkpt>
      <trkpt lat="48.0572" lon="7.38796">
        <ele>194.32</ele>
        <time>2017-01-26T12:54:32Z</time>
      </trkpt>
      <trkpt lat="48.05727" lon="7.38778">
        <ele>193.84</ele>
        <time>2017-01-26T12:54:41Z</time>
      </trkpt>
      <trkpt lat="48.05728" lon="7.38764">
        <ele>194.8</ele>
        <time>2017-01-26T12:54:49Z</time>
      </trkpt>
      <trkpt lat="48.05735" lon="7.3875">
        <ele>194.32</ele>
        <time>2017-01-26T12:54:59Z</time>
      </trkpt>
      <trkpt lat="48.0574" lon="7.3873">
        <ele>193.84</ele>
        <time>2017-01-26T12:55:09Z</time>
      </trkpt>
      <trkpt lat="48.05744" lon="7.38715">
        <ele>194.8</ele>
        <time>2017-01-26T12:55:18Z</time>
      </trkpt>
      <trkpt lat="48.05748" lon="7.387">
        <ele>194.32</ele>
        <time>2017-01-26T12:55:28Z</time>
      </trkpt>
      <trkpt lat="48.05756" lon="7.38679">
        <ele>194.8</ele>
        <time>2017-01-26T12:55:38Z</time>
      </trkpt>
      <trkpt lat="48.05761" lon="7.38664">
        <ele>194.8</ele>
        <time>2017-01-26T12:55:47Z</time>
      </trkpt>
      <trkpt lat="48.05764" lon="7.38647">
        <ele>194.32</ele>
        <time>2017-01-26T12:55:58Z</time>
      </trkpt>
      <trkpt lat="48.05767" lon="7.38629">
        <ele>194.32</ele>
        <time>2017-01-26T12:56:08Z</time>
      </trkpt>
      <trkpt lat="48.05768" lon="7.38611">
        <ele>194.32</ele>
        <time>2017-01-26T12:56:18Z</time>
      </trkpt>
      <trkpt lat="48.05776" lon="7.38593">
        <ele>194.8</ele>
        <time>2017-01-26T12:56:28Z</time>
      </trkpt>
      <trkpt lat="48.05783" lon="7.38582">
        <ele>193.84</ele>
        <time>2017-01-26T12:56:37Z</time>
      </trkpt>
      <trkpt lat="48.0579" lon="7.38563">
        <ele>194.32</ele>
        <time>2017-01-26T12:56:46Z</time>
      </trkpt>
      <trkpt lat="48.05794" lon="7.38548">
        <ele>194.32</ele>
        <time>2017-01-26T12:56:56Z</time>
      </trkpt>
      <trkpt lat="48.05795" lon="7.38533">
        <ele>195.28</ele>
        <time>2017-01-26T12:57:05Z</time>
      </trkpt>
      <trkpt lat="48.05796" lon="7.38516">
        <ele>193.84</ele>
        <time>2017-01-26T12:57:14Z</time>
      </trkpt>
      <trkpt lat="48.05801" lon="7.385">
        <ele>193.36</ele>
        <time>2017-01-26T12:57:23Z</time>
      </trkpt>
      <trkpt lat="48.05809" lon="7.38484">
        <ele>193.84</ele>
        <time>2017-01-26T12:57:31Z</time>
      </trkpt>
      <trkpt lat="48.05812" lon="7.38468">
        <ele>193.84</ele>
        <time>2017-01-26T12:57:41Z</time>
      </trkpt>
      <trkpt lat="48.05821" lon="7.38451">
        <ele>193.36</ele>
        <time>2017-01-26T12:57:50Z</time>
      </trkpt>
      <trkpt lat="48.05827" lon="7.38425">
        <ele>194.32</ele>
        <time>2017-01-26T12:58:02Z</time>
      </trkpt>
      <trkpt lat="48.05829" lon="7.38408">
        <ele>194.32</ele>
        <time>2017-01-26T12:58:11Z</time>
      </trkpt>
      <trkpt lat="48.05836" lon="7.38393">
        <ele>194.32</ele>
        <time>2017-01-26T12:58:19Z</time>
      </trkpt>
      <trkpt lat="48.05843" lon="7.38377">
        <ele>194.8</ele>
        <time>2017-01-26T12:58:29Z</time>
      </trkpt>
      <trkpt lat="48.05846" lon="7.38359">
        <ele>192.4</ele>
        <time>2017-01-26T12:58:41Z</time>
      </trkpt>
      <trkpt lat="48.05855" lon="7.3834">
        <ele>193.36</ele>
        <time>2017-01-26T12:58:53Z</time>
      </trkpt>
      <trkpt lat="48.05859" lon="7.38323">
        <ele>193.36</ele>
        <time>2017-01-26T12:59:04Z</time>
      </trkpt>
      <trkpt lat="48.05866" lon="7.38307">
        <ele>193.84</ele>
        <time>2017-01-26T12:59:16Z</time>
      </trkpt>
      <trkpt lat="48.05871" lon="7.38289">
        <ele>194.32</ele>
        <time>2017-01-26T12:59:24Z</time>
      </trkpt>
      <trkpt lat="48.05877" lon="7.38274">
        <ele>194.8</ele>
        <time>2017-01-26T12:59:34Z</time>
      </trkpt>
      <trkpt lat="48.05882" lon="7.38251">
        <ele>194.32</ele>
        <time>2017-01-26T12:59:45Z</time>
      </trkpt>
      <trkpt lat="48.05882" lon="7.38232">
        <ele>194.32</ele>
        <time>2017-01-26T12:59:55Z</time>
      </trkpt>
      <trkpt lat="48.05888" lon="7.38213">
        <ele>194.8</ele>
        <time>2017-01-26T13:00:07Z</time>
      </trkpt>
      <trkpt lat="48.05893" lon="7.38196">
        <ele>192.88</ele>
        <time>2017-01-26T13:00:16Z</time>
      </trkpt>
      <trkpt lat="48.05898" lon="7.38179">
        <ele>194.8</ele>
        <time>2017-01-26T13:00:25Z</time>
      </trkpt>
      <trkpt lat="48.05902" lon="7.38162">
        <ele>194.8</ele>
        <time>2017-01-26T13:00:35Z</time>
      </trkpt>
      <trkpt lat="48.05908" lon="7.38139">
        <ele>195.28</ele>
        <time>2017-01-26T13:00:47Z</time>
      </trkpt>
      <trkpt lat="48.05912" lon="7.38122">
        <ele>195.28</ele>
        <time>2017-01-26T13:01:08Z</time>
      </trkpt>
      <trkpt lat="48.05916" lon="7.38111">
        <ele>196.25</ele>
        <time>2017-01-26T13:01:15Z</time>
      </trkpt>
      <trkpt lat="48.05926" lon="7.38092">
        <ele>196.25</ele>
        <time>2017-01-26T13:01:25Z</time>
      </trkpt>
      <trkpt lat="48.0593" lon="7.38076">
        <ele>196.73</ele>
        <time>2017-01-26T13:01:37Z</time>
      </trkpt>
      <trkpt lat="48.05937" lon="7.38061">
        <ele>196.73</ele>
        <time>2017-01-26T13:01:47Z</time>
      </trkpt>
      <trkpt lat="48.05949" lon="7.38053">
        <ele>196.73</ele>
        <time>2017-01-26T13:01:57Z</time>
      </trkpt>
      <trkpt lat="48.05959" lon="7.38061">
        <ele>196.73</ele>
        <time>2017-01-26T13:02:07Z</time>
      </trkpt>
      <trkpt lat="48.05969" lon="7.38068">
        <ele>196.25</ele>
        <time>2017-01-26T13:02:17Z</time>
      </trkpt>
      <trkpt lat="48.0598" lon="7.38077">
        <ele>197.21</ele>
        <time>2017-01-26T13:02:26Z</time>
      </trkpt>
      <trkpt lat="48.05991" lon="7.38086">
        <ele>197.21</ele>
        <time>2017-01-26T13:02:38Z</time>
      </trkpt>
      <trkpt lat="48.06001" lon="7.38097">
        <ele>199.13</ele>
        <time>2017-01-26T13:02:47Z</time>
      </trkpt>
      <trkpt lat="48.06011" lon="7.38108">
        <ele>198.65</ele>
        <time>2017-01-26T13:02:58Z</time>
      </trkpt>
      <trkpt lat="48.06022" lon="7.38117">
        <ele>200.57</ele>
        <time>2017-01-26T13:03:08Z</time>
      </trkpt>
      <trkpt lat="48.06033" lon="7.38121">
        <ele>199.13</ele>
        <time>2017-01-26T13:03:17Z</time>
      </trkpt>
      <trkpt lat="48.06041" lon="7.38104">
        <ele>201.05</ele>
        <time>2017-01-26T13:03:29Z</time>
      </trkpt>
      <trkpt lat="48.06054" lon="7.38082">
        <ele>200.57</ele>
        <time>2017-01-26T13:03:41Z</time>
      </trkpt>
      <trkpt lat="48.06062" lon="7.38065">
        <ele>201.53</ele>
        <time>2017-01-26T13:03:53Z</time>
      </trkpt>
      <trkpt lat="48.06067" lon="7.38048">
        <ele>202.01</ele>
        <time>2017-01-26T13:04:04Z</time>
      </trkpt>
      <trkpt lat="48.06073" lon="7.38034">
        <ele>202.98</ele>
        <time>2017-01-26T13:04:15Z</time>
      </trkpt>
      <trkpt lat="48.06077" lon="7.38015">
        <ele>201.53</ele>
        <time>2017-01-26T13:04:26Z</time>
      </trkpt>
      <trkpt lat="48.06084" lon="7.38001">
        <ele>201.05</ele>
        <time>2017-01-26T13:04:36Z</time>
      </trkpt>
      <trkpt lat="48.06088" lon="7.37984">
        <ele>202.98</ele>
        <time>2017-01-26T13:04:45Z</time>
      </trkpt>
      <trkpt lat="48.06091" lon="7.37967">
        <ele>201.53</ele>
        <time>2017-01-26T13:04:54Z</time>
      </trkpt>
      <trkpt lat="48.06096" lon="7.37953">
        <ele>199.61</ele>
        <time>2017-01-26T13:05:03Z</time>
      </trkpt>
      <trkpt lat="48.06101" lon="7.37942">
        <ele>199.13</ele>
        <time>2017-01-26T13:05:08Z</time>
      </trkpt>
      <trkpt lat="48.06106" lon="7.37923">
        <ele>198.65</ele>
        <time>2017-01-26T13:05:18Z</time>
      </trkpt>
      <trkpt lat="48.06107" lon="7.37908">
        <ele>197.69</ele>
        <time>2017-01-26T13:05:27Z</time>
      </trkpt>
      <trkpt lat="48.0611" lon="7.37894">
        <ele>197.21</ele>
        <time>2017-01-26T13:05:35Z</time>
      </trkpt>
      <trkpt lat="48.06115" lon="7.37878">
        <ele>196.73</ele>
        <time>2017-01-26T13:05:43Z</time>
      </trkpt>
      <trkpt lat="48.06118" lon="7.37863">
        <ele>196.25</ele>
        <time>2017-01-26T13:05:51Z</time>
      </trkpt>
      <trkpt lat="48.06122" lon="7.3785">
        <ele>195.28</ele>
        <time>2017-01-26T13:05:59Z</time>
      </trkpt>
      <trkpt lat="48.06125" lon="7.37836">
        <ele>194.8</ele>
        <time>2017-01-26T13:06:07Z</time>
      </trkpt>
      <trkpt lat="48.06129" lon="7.37821">
        <ele>194.32</ele>
        <time>2017-01-26T13:06:16Z</time>
      </trkpt>
      <trkpt lat="48.06132" lon="7.37806">
        <ele>193.84</ele>
        <time>2017-01-26T13:06:24Z</time>
      </trkpt>
      <trkpt lat="48.06137" lon="7.37792">
        <ele>194.32</ele>
        <time>2017-01-26T13:06:33Z</time>
      </trkpt>
      <trkpt lat="48.06146" lon="7.37772">
        <ele>194.32</ele>
        <time>2017-01-26T13:06:44Z</time>
      </trkpt>
      <trkpt lat="48.06152" lon="7.37758">
        <ele>193.84</ele>
        <time>2017-01-26T13:06:54Z</time>
      </trkpt>
      <trkpt lat="48.06157" lon="7.37744">
        <ele>193.84</ele>
        <time>2017-01-26T13:07:05Z</time>
      </trkpt>
      <trkpt lat="48.06168" lon="7.37729">
        <ele>193.36</ele>
        <time>2017-01-26T13:07:17Z</time>
      </trkpt>
      <trkpt lat="48.06177" lon="7.37718">
        <ele>193.36</ele>
        <time>2017-01-26T13:07:26Z</time>
      </trkpt>
      <trkpt lat="48.06189" lon="7.37702">
        <ele>193.36</ele>
        <time>2017-01-26T13:07:37Z</time>
      </trkpt>
      <trkpt lat="48.06201" lon="7.37686">
        <ele>193.36</ele>
        <time>2017-01-26T13:07:46Z</time>
      </trkpt>
      <trkpt lat="48.06208" lon="7.37674">
        <ele>193.36</ele>
        <time>2017-01-26T13:07:57Z</time>
      </trkpt>
      <trkpt lat="48.06218" lon="7.37662">
        <ele>193.36</ele>
        <time>2017-01-26T13:08:05Z</time>
      </trkpt>
      <trkpt lat="48.06226" lon="7.37652">
        <ele>192.88</ele>
        <time>2017-01-26T13:08:16Z</time>
      </trkpt>
      <trkpt lat="48.06241" lon="7.37633">
        <ele>193.36</ele>
        <time>2017-01-26T13:08:29Z</time>
      </trkpt>
      <trkpt lat="48.06254" lon="7.3762">
        <ele>193.36</ele>
        <time>2017-01-26T13:08:40Z</time>
      </trkpt>
      <trkpt lat="48.06263" lon="7.37603">
        <ele>193.84</ele>
        <time>2017-01-26T13:08:51Z</time>
      </trkpt>
      <trkpt lat="48.06268" lon="7.37591">
        <ele>193.36</ele>
        <time>2017-01-26T13:08:59Z</time>
      </trkpt>
      <trkpt lat="48.06273" lon="7.37575">
        <ele>193.36</ele>
        <time>2017-01-26T13:09:09Z</time>
      </trkpt>
      <trkpt lat="48.06277" lon="7.37559">
        <ele>193.84</ele>
        <time>2017-01-26T13:09:17Z</time>
      </trkpt>
      <trkpt lat="48.06279" lon="7.37542">
        <ele>193.84</ele>
        <time>2017-01-26T13:09:25Z</time>
      </trkpt>
      <trkpt lat="48.06282" lon="7.37527">
        <ele>192.88</ele>
        <time>2017-01-26T13:09:34Z</time>
      </trkpt>
      <trkpt lat="48.06287" lon="7.37515">
        <ele>193.36</ele>
        <time>2017-01-26T13:09:42Z</time>
      </trkpt>
      <trkpt lat="48.06291" lon="7.37503">
        <ele>193.84</ele>
        <time>2017-01-26T13:09:50Z</time>
      </trkpt>
      <trkpt lat="48.06299" lon="7.37489">
        <ele>193.84</ele>
        <time>2017-01-26T13:10:00Z</time>
      </trkpt>
      <trkpt lat="48.06305" lon="7.37479">
        <ele>193.36</ele>
        <time>2017-01-26T13:10:08Z</time>
      </trkpt>
      <trkpt lat="48.06312" lon="7.37467">
        <ele>193.84</ele>
        <time>2017-01-26T13:10:17Z</time>
      </trkpt>
      <trkpt lat="48.06318" lon="7.37452">
        <ele>193.84</ele>
        <time>2017-01-26T13:10:26Z</time>
      </trkpt>
      <trkpt lat="48.06325" lon="7.37439">
        <ele>194.32</ele>
        <time>2017-01-26T13:10:35Z</time>
      </trkpt>
      <trkpt lat="48.0633" lon="7.37427">
        <ele>193.84</ele>
        <time>2017-01-26T13:10:44Z</time>
      </trkpt>
      <trkpt lat="48.0634" lon="7.37419">
        <ele>193.36</ele>
        <time>2017-01-26T13:10:55Z</time>
      </trkpt>
      <trkpt lat="48.06352" lon="7.37421">
        <ele>193.36</ele>
        <time>2017-01-26T13:11:04Z</time>
      </trkpt>
      <trkpt lat="48.06363" lon="7.37425">
        <ele>193.36</ele>
        <time>2017-01-26T13:11:12Z</time>
      </trkpt>
      <trkpt lat="48.06371" lon="7.37432">
        <ele>193.36</ele>
        <time>2017-01-26T13:11:20Z</time>
      </trkpt>
      <trkpt lat="48.06381" lon="7.3744">
        <ele>193.84</ele>
        <time>2017-01-26T13:11:29Z</time>
      </trkpt>
      <trkpt lat="48.0639" lon="7.37447">
        <ele>194.32</ele>
        <time>2017-01-26T13:11:38Z</time>
      </trkpt>
      <trkpt lat="48.06398" lon="7.37455">
        <ele>193.84</ele>
        <time>2017-01-26T13:11:46Z</time>
      </trkpt>
      <trkpt lat="48.06408" lon="7.3746">
        <ele>193.84</ele>
        <time>2017-01-26T13:11:53Z</time>
      </trkpt>
      <trkpt lat="48.06417" lon="7.37467">
        <ele>193.36</ele>
        <time>2017-01-26T13:12:01Z</time>
      </trkpt>
      <trkpt lat="48.06426" lon="7.37469">
        <ele>193.84</ele>
        <time>2017-01-26T13:12:08Z</time>
      </trkpt>
      <trkpt lat="48.06434" lon="7.37473">
        <ele>193.84</ele>
        <time>2017-01-26T13:12:15Z</time>
      </trkpt>
      <trkpt lat="48.06443" lon="7.37479">
        <ele>193.36</ele>
        <time>2017-01-26T13:12:22Z</time>
      </trkpt>
      <trkpt lat="48.06452" lon="7.37482">
        <ele>193.84</ele>
        <time>2017-01-26T13:12:29Z</time>
      </trkpt>
      <trkpt lat="48.06461" lon="7.37487">
        <ele>193.84</ele>
        <time>2017-01-26T13:12:37Z</time>
      </trkpt>
      <trkpt lat="48.06472" lon="7.37491">
        <ele>193.84</ele>
        <time>2017-01-26T13:12:46Z</time>
      </trkpt>
      <trkpt lat="48.06482" lon="7.37494">
        <ele>193.36</ele>
        <time>2017-01-26T13:12:54Z</time>
      </trkpt>
      <trkpt lat="48.06491" lon="7.37498">
        <ele>193.36</ele>
        <time>2017-01-26T13:13:02Z</time>
      </trkpt>
      <trkpt lat="48.06499" lon="7.37504">
        <ele>193.84</ele>
        <time>2017-01-26T13:13:10Z</time>
      </trkpt>
      <trkpt lat="48.06508" lon="7.37509">
        <ele>193.84</ele>
        <time>2017-01-26T13:13:19Z</time>
      </trkpt>
      <trkpt lat="48.06518" lon="7.37514">
        <ele>193.36</ele>
        <time>2017-01-26T13:13:30Z</time>
      </trkpt>
      <trkpt lat="48.06531" lon="7.37517">
        <ele>192.88</ele>
        <time>2017-01-26T13:13:40Z</time>
      </trkpt>
      <trkpt lat="48.06541" lon="7.37523">
        <ele>193.36</ele>
        <time>2017-01-26T13:13:49Z</time>
      </trkpt>
      <trkpt lat="48.0655" lon="7.37527">
        <ele>193.36</ele>
        <time>2017-01-26T13:13:58Z</time>
      </trkpt>
      <trkpt lat="48.06561" lon="7.37531">
        <ele>193.36</ele>
        <time>2017-01-26T13:14:08Z</time>
      </trkpt>
      <trkpt lat="48.06571" lon="7.37535">
        <ele>193.36</ele>
        <time>2017-01-26T13:14:17Z</time>
      </trkpt>
      <trkpt lat="48.06581" lon="7.37541">
        <ele>193.36</ele>
        <time>2017-01-26T13:14:26Z</time>
      </trkpt>
      <trkpt lat="48.06591" lon="7.37547">
        <ele>193.36</ele>
        <time>2017-01-26T13:14:35Z</time>
      </trkpt>
      <trkpt lat="48.06603" lon="7.37551">
        <ele>192.88</ele>
        <time>2017-01-26T13:14:44Z</time>
      </trkpt>
      <trkpt lat="48.06612" lon="7.37554">
        <ele>192.88</ele>
        <time>2017-01-26T13:14:53Z</time>
      </trkpt>
      <trkpt lat="48.06623" lon="7.37558">
        <ele>192.88</ele>
        <time>2017-01-26T13:15:02Z</time>
      </trkpt>
      <trkpt lat="48.06632" lon="7.37564">
        <ele>192.88</ele>
        <time>2017-01-26T13:15:10Z</time>
      </trkpt>
      <trkpt lat="48.06642" lon="7.37567">
        <ele>192.4</ele>
        <time>2017-01-26T13:15:18Z</time>
      </trkpt>
      <trkpt lat="48.06651" lon="7.37571">
        <ele>192.88</ele>
        <time>2017-01-26T13:15:26Z</time>
      </trkpt>
      <trkpt lat="48.06661" lon="7.37574">
        <ele>193.36</ele>
        <time>2017-01-26T13:15:34Z</time>
      </trkpt>
      <trkpt lat="48.0667" lon="7.37577">
        <ele>192.88</ele>
        <time>2017-01-26T13:15:42Z</time>
      </trkpt>
      <trkpt lat="48.0668" lon="7.37583">
        <ele>192.4</ele>
        <time>2017-01-26T13:15:51Z</time>
      </trkpt>
      <trkpt lat="48.06692" lon="7.37587">
        <ele>192.4</ele>
        <time>2017-01-26T13:15:59Z</time>
      </trkpt>
      <trkpt lat="48.06703" lon="7.37585">
        <ele>192.4</ele>
        <time>2017-01-26T13:16:07Z</time>
      </trkpt>
      <trkpt lat="48.06712" lon="7.37582">
        <ele>192.4</ele>
        <time>2017-01-26T13:16:15Z</time>
      </trkpt>
      <trkpt lat="48.06721" lon="7.37584">
        <ele>192.4</ele>
        <time>2017-01-26T13:16:24Z</time>
      </trkpt>
      <trkpt lat="48.06731" lon="7.3759">
        <ele>192.4</ele>
        <time>2017-01-26T13:16:32Z</time>
      </trkpt>
      <trkpt lat="48.0674" lon="7.37594">
        <ele>192.88</ele>
        <time>2017-01-26T13:16:39Z</time>
      </trkpt>
      <trkpt lat="48.06749" lon="7.37599">
        <ele>192.4</ele>
        <time>2017-01-26T13:16:46Z</time>
      </trkpt>
      <trkpt lat="48.06758" lon="7.37603">
        <ele>192.88</ele>
        <time>2017-01-26T13:16:55Z</time>
      </trkpt>
      <trkpt lat="48.06768" lon="7.37606">
        <ele>191.44</ele>
        <time>2017-01-26T13:17:03Z</time>
      </trkpt>
      <trkpt lat="48.06778" lon="7.3761">
        <ele>192.88</ele>
        <time>2017-01-26T13:17:11Z</time>
      </trkpt>
      <trkpt lat="48.06786" lon="7.37615">
        <ele>192.4</ele>
        <time>2017-01-26T13:17:18Z</time>
      </trkpt>
      <trkpt lat="48.06796" lon="7.37618">
        <ele>192.4</ele>
        <time>2017-01-26T13:17:25Z</time>
      </trkpt>
      <trkpt lat="48.06804" lon="7.3762">
        <ele>192.4</ele>
        <time>2017-01-26T13:17:33Z</time>
      </trkpt>
      <trkpt lat="48.06814" lon="7.37624">
        <ele>191.92</ele>
        <time>2017-01-26T13:17:41Z</time>
      </trkpt>
      <trkpt lat="48.06823" lon="7.37628">
        <ele>192.4</ele>
        <time>2017-01-26T13:17:49Z</time>
      </trkpt>
      <trkpt lat="48.06832" lon="7.3763">
        <ele>192.4</ele>
        <time>2017-01-26T13:17:57Z</time>
      </trkpt>
      <trkpt lat="48.0684" lon="7.37627">
        <ele>192.88</ele>
        <time>2017-01-26T13:18:04Z</time>
      </trkpt>
      <trkpt lat="48.06848" lon="7.37619">
        <ele>192.4</ele>
        <time>2017-01-26T13:18:14Z</time>
      </trkpt>
      <trkpt lat="48.06854" lon="7.37606">
        <ele>192.4</ele>
        <time>2017-01-26T13:18:24Z</time>
      </trkpt>
      <trkpt lat="48.06855" lon="7.37591">
        <ele>192.4</ele>
        <time>2017-01-26T13:18:33Z</time>
      </trkpt>
      <trkpt lat="48.06859" lon="7.37577">
        <ele>192.4</ele>
        <time>2017-01-26T13:18:41Z</time>
      </trkpt>
      <trkpt lat="48.06868" lon="7.37571">
        <ele>192.4</ele>
        <time>2017-01-26T13:18:49Z</time>
      </trkpt>
      <trkpt lat="48.0687" lon="7.37557">
        <ele>192.4</ele>
        <time>2017-01-26T13:18:56Z</time>
      </trkpt>
      <trkpt lat="48.06872" lon="7.37542">
        <ele>192.88</ele>
        <time>2017-01-26T13:19:05Z</time>
      </trkpt>
      <trkpt lat="48.06872" lon="7.37528">
        <ele>192.88</ele>
        <time>2017-01-26T13:19:13Z</time>
      </trkpt>
      <trkpt lat="48.06872" lon="7.37512">
        <ele>192.4</ele>
        <time>2017-01-26T13:19:23Z</time>
      </trkpt>
      <trkpt lat="48.06881" lon="7.37512">
        <ele>192.4</ele>
        <time>2017-01-26T13:19:30Z</time>
      </trkpt>
      <trkpt lat="48.06889" lon="7.37514">
        <ele>192.4</ele>
        <time>2017-01-26T13:19:38Z</time>
      </trkpt>
      <trkpt lat="48.06899" lon="7.37513">
        <ele>192.4</ele>
        <time>2017-01-26T13:19:47Z</time>
      </trkpt>
      <trkpt lat="48.06908" lon="7.37511">
        <ele>192.4</ele>
        <time>2017-01-26T13:19:55Z</time>
      </trkpt>
      <trkpt lat="48.06918" lon="7.37512">
        <ele>190.96</ele>
        <time>2017-01-26T13:20:04Z</time>
      </trkpt>
      <trkpt lat="48.06927" lon="7.37514">
        <ele>192.88</ele>
        <time>2017-01-26T13:20:12Z</time>
      </trkpt>
      <trkpt lat="48.06936" lon="7.37514">
        <ele>192.88</ele>
        <time>2017-01-26T13:20:19Z</time>
      </trkpt>
      <trkpt lat="48.06947" lon="7.37514">
        <ele>192.4</ele>
        <time>2017-01-26T13:20:28Z</time>
      </trkpt>
      <trkpt lat="48.06958" lon="7.37518">
        <ele>192.4</ele>
        <time>2017-01-26T13:20:36Z</time>
      </trkpt>
      <trkpt lat="48.06966" lon="7.37518">
        <ele>191.92</ele>
        <time>2017-01-26T13:20:44Z</time>
      </trkpt>
      <trkpt lat="48.06977" lon="7.37521">
        <ele>191.92</ele>
        <time>2017-01-26T13:20:52Z</time>
      </trkpt>
      <trkpt lat="48.06986" lon="7.37521">
        <ele>191.92</ele>
        <time>2017-01-26T13:20:59Z</time>
      </trkpt>
      <trkpt lat="48.06996" lon="7.37522">
        <ele>191.92</ele>
        <time>2017-01-26T13:21:07Z</time>
      </trkpt>
      <trkpt lat="48.07007" lon="7.37524">
        <ele>191.92</ele>
        <time>2017-01-26T13:21:15Z</time>
      </trkpt>
      <trkpt lat="48.07016" lon="7.37526">
        <ele>191.92</ele>
        <time>2017-01-26T13:21:22Z</time>
      </trkpt>
      <trkpt lat="48.07026" lon="7.37526">
        <ele>191.92</ele>
        <time>2017-01-26T13:21:29Z</time>
      </trkpt>
      <trkpt lat="48.07035" lon="7.37527">
        <ele>191.92</ele>
        <time>2017-01-26T13:21:38Z</time>
      </trkpt>
      <trkpt lat="48.07043" lon="7.37531">
        <ele>191.92</ele>
        <time>2017-01-26T13:21:45Z</time>
      </trkpt>
      <trkpt lat="48.07051" lon="7.37538">
        <ele>191.92</ele>
        <time>2017-01-26T13:21:53Z</time>
      </trkpt>
      <trkpt lat="48.07059" lon="7.37545">
        <ele>191.92</ele>
        <time>2017-01-26T13:22:02Z</time>
      </trkpt>
      <trkpt lat="48.07067" lon="7.37553">
        <ele>192.4</ele>
        <time>2017-01-26T13:22:11Z</time>
      </trkpt>
      <trkpt lat="48.07077" lon="7.37561">
        <ele>192.88</ele>
        <time>2017-01-26T13:22:18Z</time>
      </trkpt>
      <trkpt lat="48.07085" lon="7.37567">
        <ele>192.4</ele>
        <time>2017-01-26T13:22:27Z</time>
      </trkpt>
      <trkpt lat="48.07094" lon="7.37571">
        <ele>191.92</ele>
        <time>2017-01-26T13:22:35Z</time>
      </trkpt>
      <trkpt lat="48.071" lon="7.37572">
        <ele>192.4</ele>
        <time>2017-01-26T13:22:43Z</time>
      </trkpt>
      <trkpt lat="48.07111" lon="7.37576">
        <ele>191.44</ele>
        <time>2017-01-26T13:22:52Z</time>
      </trkpt>
      <trkpt lat="48.07121" lon="7.37578">
        <ele>191.44</ele>
        <time>2017-01-26T13:23:00Z</time>
      </trkpt>
      <trkpt lat="48.0713" lon="7.37568">
        <ele>192.4</ele>
        <time>2017-01-26T13:23:08Z</time>
      </trkpt>
      <trkpt lat="48.07132" lon="7.37553">
        <ele>191.92</ele>
        <time>2017-01-26T13:23:15Z</time>
      </trkpt>
      <trkpt lat="48.07136" lon="7.3754">
        <ele>191.44</ele>
        <time>2017-01-26T13:23:24Z</time>
      </trkpt>
      <trkpt lat="48.07139" lon="7.37526">
        <ele>192.4</ele>
        <time>2017-01-26T13:23:33Z</time>
      </trkpt>
      <trkpt lat="48.07141" lon="7.37509">
        <ele>192.4</ele>
        <time>2017-01-26T13:23:41Z</time>
      </trkpt>
      <trkpt lat="48.07143" lon="7.37493">
        <ele>191.92</ele>
        <time>2017-01-26T13:23:49Z</time>
      </trkpt>
      <trkpt lat="48.07144" lon="7.37477">
        <ele>192.4</ele>
        <time>2017-01-26T13:23:58Z</time>
      </trkpt>
      <trkpt lat="48.07144" lon="7.3746">
        <ele>191.92</ele>
        <time>2017-01-26T13:24:07Z</time>
      </trkpt>
      <trkpt lat="48.07146" lon="7.37444">
        <ele>192.4</ele>
        <time>2017-01-26T13:24:16Z</time>
      </trkpt>
      <trkpt lat="48.07148" lon="7.37429">
        <ele>192.4</ele>
        <time>2017-01-26T13:24:25Z</time>
      </trkpt>
      <trkpt lat="48.07151" lon="7.37415">
        <ele>192.4</ele>
        <time>2017-01-26T13:24:34Z</time>
      </trkpt>
      <trkpt lat="48.07152" lon="7.37399">
        <ele>192.88</ele>
        <time>2017-01-26T13:24:42Z</time>
      </trkpt>
      <trkpt lat="48.07155" lon="7.37385">
        <ele>192.4</ele>
        <time>2017-01-26T13:24:51Z</time>
      </trkpt>
      <trkpt lat="48.07158" lon="7.37369">
        <ele>192.4</ele>
        <time>2017-01-26T13:25:00Z</time>
      </trkpt>
      <trkpt lat="48.07164" lon="7.37357">
        <ele>191.92</ele>
        <time>2017-01-26T13:25:09Z</time>
      </trkpt>
      <trkpt lat="48.0717" lon="7.37345">
        <ele>192.88</ele>
        <time>2017-01-26T13:25:18Z</time>
      </trkpt>
      <trkpt lat="48.07174" lon="7.37328">
        <ele>192.4</ele>
        <time>2017-01-26T13:25:27Z</time>
      </trkpt>
      <trkpt lat="48.07176" lon="7.37311">
        <ele>192.4</ele>
        <time>2017-01-26T13:25:36Z</time>
      </trkpt>
      <trkpt lat="48.07175" lon="7.37292">
        <ele>192.4</ele>
        <time>2017-01-26T13:25:48Z</time>
      </trkpt>
      <trkpt lat="48.07172" lon="7.37274">
        <ele>191.92</ele>
        <time>2017-01-26T13:25:57Z</time>
      </trkpt>
      <trkpt lat="48.07173" lon="7.37257">
        <ele>192.4</ele>
        <time>2017-01-26T13:26:08Z</time>
      </trkpt>
      <trkpt lat="48.07174" lon="7.37238">
        <ele>192.88</ele>
        <time>2017-01-26T13:26:18Z</time>
      </trkpt>
      <trkpt lat="48.07177" lon="7.37222">
        <ele>192.4</ele>
        <time>2017-01-26T13:26:28Z</time>
      </trkpt>
      <trkpt lat="48.07181" lon="7.37208">
        <ele>192.88</ele>
        <time>2017-01-26T13:26:38Z</time>
      </trkpt>
      <trkpt lat="48.07184" lon="7.37191">
        <ele>192.88</ele>
        <time>2017-01-26T13:26:48Z</time>
      </trkpt>
      <trkpt lat="48.07189" lon="7.37176">
        <ele>192.88</ele>
        <time>2017-01-26T13:26:58Z</time>
      </trkpt>
      <trkpt lat="48.07192" lon="7.37161">
        <ele>192.88</ele>
        <time>2017-01-26T13:27:08Z</time>
      </trkpt>
      <trkpt lat="48.07194" lon="7.37144">
        <ele>193.36</ele>
        <time>2017-01-26T13:27:17Z</time>
      </trkpt>
      <trkpt lat="48.07198" lon="7.37128">
        <ele>192.88</ele>
        <time>2017-01-26T13:27:25Z</time>
      </trkpt>
      <trkpt lat="48.07204" lon="7.37116">
        <ele>191.92</ele>
        <time>2017-01-26T13:27:34Z</time>
      </trkpt>
      <trkpt lat="48.07207" lon="7.37102">
        <ele>191.92</ele>
        <time>2017-01-26T13:27:43Z</time>
      </trkpt>
      <trkpt lat="48.07211" lon="7.37087">
        <ele>190.96</ele>
        <time>2017-01-26T13:27:52Z</time>
      </trkpt>
      <trkpt lat="48.07213" lon="7.37073">
        <ele>192.4</ele>
        <time>2017-01-26T13:28:01Z</time>
      </trkpt>
      <trkpt lat="48.07213" lon="7.37058">
        <ele>192.88</ele>
        <time>2017-01-26T13:28:10Z</time>
      </trkpt>
      <trkpt lat="48.07214" lon="7.37043">
        <ele>192.88</ele>
        <time>2017-01-26T13:28:19Z</time>
      </trkpt>
      <trkpt lat="48.07214" lon="7.37025">
        <ele>192.4</ele>
        <time>2017-01-26T13:28:29Z</time>
      </trkpt>
      <trkpt lat="48.07215" lon="7.37008">
        <ele>192.88</ele>
        <time>2017-01-26T13:28:39Z</time>
      </trkpt>
      <trkpt lat="48.07214" lon="7.36992">
        <ele>192.4</ele>
        <time>2017-01-26T13:28:48Z</time>
      </trkpt>
      <trkpt lat="48.07214" lon="7.36971">
        <ele>192.4</ele>
        <time>2017-01-26T13:28:59Z</time>
      </trkpt>
      <trkpt lat="48.07214" lon="7.36951">
        <ele>191.92</ele>
        <time>2017-01-26T13:29:09Z</time>
      </trkpt>
      <trkpt lat="48.07215" lon="7.36936">
        <ele>192.4</ele>
        <time>2017-01-26T13:29:18Z</time>
      </trkpt>
      <trkpt lat="48.07216" lon="7.3692">
        <ele>192.4</ele>
        <time>2017-01-26T13:29:28Z</time>
      </trkpt>
      <trkpt lat="48.07218" lon="7.36902">
        <ele>192.88</ele>
        <time>2017-01-26T13:29:38Z</time>
      </trkpt>
      <trkpt lat="48.07217" lon="7.36886">
        <ele>192.88</ele>
        <time>2017-01-26T13:29:47Z</time>
      </trkpt>
      <trkpt lat="48.07217" lon="7.36869">
        <ele>192.4</ele>
        <time>2017-01-26T13:29:58Z</time>
      </trkpt>
      <trkpt lat="48.07217" lon="7.36849">
        <ele>192.4</ele>
        <time>2017-01-26T13:30:10Z</time>
      </trkpt>
      <trkpt lat="48.07223" lon="7.36834">
        <ele>192.4</ele>
        <time>2017-01-26T13:30:20Z</time>
      </trkpt>
      <trkpt lat="48.07234" lon="7.36834">
        <ele>191.44</ele>
        <time>2017-01-26T13:30:29Z</time>
      </trkpt>
      <trkpt lat="48.07243" lon="7.36839">
        <ele>191.92</ele>
        <time>2017-01-26T13:30:38Z</time>
      </trkpt>
      <trkpt lat="48.07254" lon="7.36842">
        <ele>190.48</ele>
        <time>2017-01-26T13:30:48Z</time>
      </trkpt>
      <trkpt lat="48.07267" lon="7.36843">
        <ele>192.4</ele>
        <time>2017-01-26T13:30:59Z</time>
      </trkpt>
      <trkpt lat="48.07279" lon="7.36844">
        <ele>192.4</ele>
        <time>2017-01-26T13:31:10Z</time>
      </trkpt>
      <trkpt lat="48.0729" lon="7.36845">
        <ele>192.88</ele>
        <time>2017-01-26T13:31:18Z</time>
      </trkpt>
      <trkpt lat="48.07301" lon="7.36847">
        <ele>192.4</ele>
        <time>2017-01-26T13:31:28Z</time>
      </trkpt>
      <trkpt lat="48.07309" lon="7.36855">
        <ele>192.88</ele>
        <time>2017-01-26T13:31:37Z</time>
      </trkpt>
      <trkpt lat="48.07318" lon="7.36861">
        <ele>192.4</ele>
        <time>2017-01-26T13:31:45Z</time>
      </trkpt>
      <trkpt lat="48.07327" lon="7.36868">
        <ele>191.92</ele>
        <time>2017-01-26T13:31:53Z</time>
      </trkpt>
      <trkpt lat="48.07337" lon="7.36876">
        <ele>191.92</ele>
        <time>2017-01-26T13:32:02Z</time>
      </trkpt>
      <trkpt lat="48.07347" lon="7.36884">
        <ele>191.92</ele>
        <time>2017-01-26T13:32:11Z</time>
      </trkpt>
      <trkpt lat="48.07356" lon="7.36891">
        <ele>191.92</ele>
        <time>2017-01-26T13:32:19Z</time>
      </trkpt>
      <trkpt lat="48.07365" lon="7.36897">
        <ele>191.44</ele>
        <time>2017-01-26T13:32:27Z</time>
      </trkpt>
      <trkpt lat="48.07374" lon="7.36906">
        <ele>190.96</ele>
        <time>2017-01-26T13:32:35Z</time>
      </trkpt>
      <trkpt lat="48.07382" lon="7.36913">
        <ele>191.92</ele>
        <time>2017-01-26T13:32:43Z</time>
      </trkpt>
      <trkpt lat="48.07389" lon="7.36921">
        <ele>192.4</ele>
        <time>2017-01-26T13:32:53Z</time>
      </trkpt>
      <trkpt lat="48.07399" lon="7.36929">
        <ele>191.44</ele>
        <time>2017-01-26T13:33:01Z</time>
      </trkpt>
      <trkpt lat="48.07408" lon="7.36936">
        <ele>191.44</ele>
        <time>2017-01-26T13:33:10Z</time>
      </trkpt>
      <trkpt lat="48.07416" lon="7.36946">
        <ele>191.44</ele>
        <time>2017-01-26T13:33:19Z</time>
      </trkpt>
      <trkpt lat="48.07424" lon="7.3695">
        <ele>191.92</ele>
        <time>2017-01-26T13:33:29Z</time>
      </trkpt>
      <trkpt lat="48.07429" lon="7.36938">
        <ele>191.92</ele>
        <time>2017-01-26T13:33:38Z</time>
      </trkpt>
      <trkpt lat="48.07433" lon="7.36923">
        <ele>191.92</ele>
        <time>2017-01-26T13:33:48Z</time>
      </trkpt>
      <trkpt lat="48.07436" lon="7.36905">
        <ele>191.44</ele>
        <time>2017-01-26T13:33:58Z</time>
      </trkpt>
      <trkpt lat="48.07438" lon="7.36888">
        <ele>191.92</ele>
        <time>2017-01-26T13:34:07Z</time>
      </trkpt>
      <trkpt lat="48.07441" lon="7.36872">
        <ele>191.44</ele>
        <time>2017-01-26T13:34:18Z</time>
      </trkpt>
      <trkpt lat="48.07443" lon="7.36855">
        <ele>192.4</ele>
        <time>2017-01-26T13:34:29Z</time>
      </trkpt>
      <trkpt lat="48.07445" lon="7.36837">
        <ele>191.92</ele>
        <time>2017-01-26T13:34:39Z</time>
      </trkpt>
      <trkpt lat="48.07447" lon="7.36819">
        <ele>191.92</ele>
        <time>2017-01-26T13:34:49Z</time>
      </trkpt>
      <trkpt lat="48.07449" lon="7.36803">
        <ele>190.96</ele>
        <time>2017-01-26T13:34:59Z</time>
      </trkpt>
      <trkpt lat="48.07441" lon="7.36793">
        <ele>190.96</ele>
        <time>2017-01-26T13:35:09Z</time>
      </trkpt>
      <trkpt lat="48.07433" lon="7.36785">
        <ele>191.92</ele>
        <time>2017-01-26T13:35:16Z</time>
      </trkpt>
      <trkpt lat="48.07427" lon="7.36771">
        <ele>191.92</ele>
        <time>2017-01-26T13:35:27Z</time>
      </trkpt>
      <trkpt lat="48.07429" lon="7.36757">
        <ele>190.48</ele>
        <time>2017-01-26T13:35:36Z</time>
      </trkpt>
      <trkpt lat="48.07432" lon="7.36742">
        <ele>191.44</ele>
        <time>2017-01-26T13:35:45Z</time>
      </trkpt>
      <trkpt lat="48.07434" lon="7.36721">
        <ele>191.44</ele>
        <time>2017-01-26T13:35:57Z</time>
      </trkpt>
      <trkpt lat="48.07436" lon="7.36704">
        <ele>192.4</ele>
        <time>2017-01-26T13:36:08Z</time>
      </trkpt>
      <trkpt lat="48.07439" lon="7.36688">
        <ele>191.92</ele>
        <time>2017-01-26T13:36:18Z</time>
      </trkpt>
      <trkpt lat="48.07449" lon="7.36687">
        <ele>191.44</ele>
        <time>2017-01-26T13:36:28Z</time>
      </trkpt>
      <trkpt lat="48.0746" lon="7.3669">
        <ele>190.48</ele>
        <time>2017-01-26T13:36:36Z</time>
      </trkpt>
      <trkpt lat="48.0747" lon="7.36693">
        <ele>191.44</ele>
        <time>2017-01-26T13:36:45Z</time>
      </trkpt>
      <trkpt lat="48.0748" lon="7.36696">
        <ele>191.44</ele>
        <time>2017-01-26T13:36:54Z</time>
      </trkpt>
      <trkpt lat="48.07485" lon="7.36684">
        <ele>191.44</ele>
        <time>2017-01-26T13:37:12Z</time>
      </trkpt>
      <trkpt lat="48.07491" lon="7.36669">
        <ele>191.44</ele>
        <time>2017-01-26T13:37:22Z</time>
      </trkpt>
      <trkpt lat="48.07491" lon="7.36651">
        <ele>190.48</ele>
        <time>2017-01-26T13:37:32Z</time>
      </trkpt>
      <trkpt lat="48.07491" lon="7.36635">
        <ele>190.96</ele>
        <time>2017-01-26T13:37:44Z</time>
      </trkpt>
      <trkpt lat="48.07486" lon="7.36619">
        <ele>190.96</ele>
        <time>2017-01-26T13:37:54Z</time>
      </trkpt>
      <trkpt lat="48.07491" lon="7.36608">
        <ele>189.04</ele>
        <time>2017-01-26T13:38:05Z</time>
      </trkpt>
      <trkpt lat="48.07501" lon="7.36593">
        <ele>190.48</ele>
        <time>2017-01-26T13:38:17Z</time>
      </trkpt>
      <trkpt lat="48.07511" lon="7.36588">
        <ele>190.48</ele>
        <time>2017-01-26T13:38:25Z</time>
      </trkpt>
      <trkpt lat="48.07521" lon="7.36579">
        <ele>190.96</ele>
        <time>2017-01-26T13:38:34Z</time>
      </trkpt>
      <trkpt lat="48.07529" lon="7.36572">
        <ele>190.48</ele>
        <time>2017-01-26T13:38:43Z</time>
      </trkpt>
      <trkpt lat="48.07539" lon="7.36564">
        <ele>190.96</ele>
        <time>2017-01-26T13:38:53Z</time>
      </trkpt>
      <trkpt lat="48.07543" lon="7.3655">
        <ele>190.96</ele>
        <time>2017-01-26T13:39:03Z</time>
      </trkpt>
      <trkpt lat="48.07547" lon="7.36537">
        <ele>190.96</ele>
        <time>2017-01-26T13:39:11Z</time>
      </trkpt>
      <trkpt lat="48.07556" lon="7.36537">
        <ele>191.44</ele>
        <time>2017-01-26T13:39:20Z</time>
      </trkpt>
      <trkpt lat="48.07565" lon="7.36527">
        <ele>191.92</ele>
        <time>2017-01-26T13:39:30Z</time>
      </trkpt>
      <trkpt lat="48.07572" lon="7.36514">
        <ele>191.92</ele>
        <time>2017-01-26T13:39:41Z</time>
      </trkpt>
      <trkpt lat="48.07575" lon="7.36497">
        <ele>192.4</ele>
        <time>2017-01-26T13:39:52Z</time>
      </trkpt>
      <trkpt lat="48.07572" lon="7.36484">
        <ele>191.92</ele>
        <time>2017-01-26T13:40:01Z</time>
      </trkpt>
      <trkpt lat="48.07568" lon="7.36472">
        <ele>191.92</ele>
        <time>2017-01-26T13:40:10Z</time>
      </trkpt>
      <trkpt lat="48.07564" lon="7.36458">
        <ele>192.4</ele>
        <time>2017-01-26T13:40:20Z</time>
      </trkpt>
      <trkpt lat="48.07561" lon="7.36444">
        <ele>191.44</ele>
        <time>2017-01-26T13:40:29Z</time>
      </trkpt>
      <trkpt lat="48.07557" lon="7.3643">
        <ele>191.92</ele>
        <time>2017-01-26T13:40:37Z</time>
      </trkpt>
      <trkpt lat="48.07552" lon="7.36418">
        <ele>191.44</ele>
        <time>2017-01-26T13:40:51Z</time>
      </trkpt>
      <trkpt lat="48.07545" lon="7.36402">
        <ele>191.92</ele>
        <time>2017-01-26T13:40:58Z</time>
      </trkpt>
      <trkpt lat="48.0754" lon="7.36385">
        <ele>191.92</ele>
        <time>2017-01-26T13:41:09Z</time>
      </trkpt>
      <trkpt lat="48.07533" lon="7.36372">
        <ele>191.44</ele>
        <time>2017-01-26T13:41:18Z</time>
      </trkpt>
      <trkpt lat="48.07525" lon="7.36358">
        <ele>191.92</ele>
        <time>2017-01-26T13:41:27Z</time>
      </trkpt>
      <trkpt lat="48.07527" lon="7.36346">
        <ele>191.92</ele>
        <time>2017-01-26T13:41:45Z</time>
      </trkpt>
      <trkpt lat="48.07535" lon="7.36336">
        <ele>192.88</ele>
        <time>2017-01-26T13:41:53Z</time>
      </trkpt>
      <trkpt lat="48.07542" lon="7.36325">
        <ele>193.36</ele>
        <time>2017-01-26T13:42:02Z</time>
      </trkpt>
      <trkpt lat="48.07549" lon="7.36316">
        <ele>193.36</ele>
        <time>2017-01-26T13:42:09Z</time>
      </trkpt>
      <trkpt lat="48.07553" lon="7.36309">
        <ele>193.36</ele>
        <time>2017-01-26T13:42:20Z</time>
      </trkpt>
      <trkpt lat="48.07562" lon="7.36313">
        <ele>192.4</ele>
        <time>2017-01-26T13:42:28Z</time>
      </trkpt>
      <trkpt lat="48.0757" lon="7.36308">
        <ele>192.88</ele>
        <time>2017-01-26T13:42:37Z</time>
      </trkpt>
      <trkpt lat="48.07577" lon="7.36296">
        <ele>192.4</ele>
        <time>2017-01-26T13:42:50Z</time>
      </trkpt>
      <trkpt lat="48.07583" lon="7.36284">
        <ele>191.92</ele>
        <time>2017-01-26T13:42:59Z</time>
      </trkpt>
      <trkpt lat="48.0759" lon="7.36272">
        <ele>191.92</ele>
        <time>2017-01-26T13:43:24Z</time>
      </trkpt>
      <trkpt lat="48.0759" lon="7.36255">
        <ele>191.92</ele>
        <time>2017-01-26T13:43:31Z</time>
      </trkpt>
      <trkpt lat="48.07589" lon="7.36241">
        <ele>191.44</ele>
        <time>2017-01-26T13:43:39Z</time>
      </trkpt>
      <trkpt lat="48.07585" lon="7.36228">
        <ele>191.92</ele>
        <time>2017-01-26T13:43:47Z</time>
      </trkpt>
      <trkpt lat="48.07579" lon="7.36215">
        <ele>191.44</ele>
        <time>2017-01-26T13:43:58Z</time>
      </trkpt>
      <trkpt lat="48.07581" lon="7.362">
        <ele>191.44</ele>
        <time>2017-01-26T13:44:05Z</time>
      </trkpt>
      <trkpt lat="48.07586" lon="7.3619">
        <ele>191.44</ele>
        <time>2017-01-26T13:44:14Z</time>
      </trkpt>
      <trkpt lat="48.07594" lon="7.36183">
        <ele>190.96</ele>
        <time>2017-01-26T13:44:24Z</time>
      </trkpt>
      <trkpt lat="48.07603" lon="7.36178">
        <ele>191.44</ele>
        <time>2017-01-26T13:44:32Z</time>
      </trkpt>
      <trkpt lat="48.07612" lon="7.3617">
        <ele>191.92</ele>
        <time>2017-01-26T13:44:40Z</time>
      </trkpt>
      <trkpt lat="48.07617" lon="7.36164">
        <ele>191.44</ele>
        <time>2017-01-26T13:44:53Z</time>
      </trkpt>
      <trkpt lat="48.07616" lon="7.36164">
        <ele>190.96</ele>
        <time>2017-01-26T13:44:55Z</time>
      </trkpt>
      <trkpt lat="48.07616" lon="7.36164">
        <ele>194.8</ele>
        <time>2017-01-26T14:33:48Z</time>
      </trkpt>
      <trkpt lat="48.07615" lon="7.3601">
        <ele>194.32</ele>
        <time>2017-01-26T14:34:52Z</time>
      </trkpt>
      <trkpt lat="48.07656" lon="7.36104">
        <ele>194.32</ele>
        <time>2017-01-26T14:35:10Z</time>
      </trkpt>
      <trkpt lat="48.07665" lon="7.3611">
        <ele>196.25</ele>
        <time>2017-01-26T14:35:22Z</time>
      </trkpt>
      <trkpt lat="48.07674" lon="7.36093">
        <ele>195.28</ele>
        <time>2017-01-26T14:35:33Z</time>
      </trkpt>
      <trkpt lat="48.07685" lon="7.36077">
        <ele>196.73</ele>
        <time>2017-01-26T14:35:42Z</time>
      </trkpt>
      <trkpt lat="48.07689" lon="7.36063">
        <ele>197.21</ele>
        <time>2017-01-26T14:35:50Z</time>
      </trkpt>
      <trkpt lat="48.07696" lon="7.36049">
        <ele>195.28</ele>
        <time>2017-01-26T14:35:58Z</time>
      </trkpt>
      <trkpt lat="48.07707" lon="7.36034">
        <ele>198.65</ele>
        <time>2017-01-26T14:36:07Z</time>
      </trkpt>
      <trkpt lat="48.07713" lon="7.36015">
        <ele>197.69</ele>
        <time>2017-01-26T14:36:15Z</time>
      </trkpt>
      <trkpt lat="48.07715" lon="7.36002">
        <ele>195.77</ele>
        <time>2017-01-26T14:36:23Z</time>
      </trkpt>
      <trkpt lat="48.07722" lon="7.35991">
        <ele>198.65</ele>
        <time>2017-01-26T14:36:31Z</time>
      </trkpt>
      <trkpt lat="48.07729" lon="7.35977">
        <ele>199.13</ele>
        <time>2017-01-26T14:36:39Z</time>
      </trkpt>
      <trkpt lat="48.07732" lon="7.35961">
        <ele>196.73</ele>
        <time>2017-01-26T14:36:47Z</time>
      </trkpt>
      <trkpt lat="48.07746" lon="7.35945">
        <ele>201.53</ele>
        <time>2017-01-26T14:36:53Z</time>
      </trkpt>
      <trkpt lat="48.07754" lon="7.35931">
        <ele>197.69</ele>
        <time>2017-01-26T14:37:01Z</time>
      </trkpt>
      <trkpt lat="48.07766" lon="7.35913">
        <ele>197.69</ele>
        <time>2017-01-26T14:37:16Z</time>
      </trkpt>
      <trkpt lat="48.07768" lon="7.35899">
        <ele>199.61</ele>
        <time>2017-01-26T14:37:24Z</time>
      </trkpt>
      <trkpt lat="48.07772" lon="7.35885">
        <ele>201.05</ele>
        <time>2017-01-26T14:37:31Z</time>
      </trkpt>
      <trkpt lat="48.07776" lon="7.35872">
        <ele>195.77</ele>
        <time>2017-01-26T14:37:39Z</time>
      </trkpt>
      <trkpt lat="48.07779" lon="7.35857">
        <ele>202.49</ele>
        <time>2017-01-26T14:37:47Z</time>
      </trkpt>
      <trkpt lat="48.0778" lon="7.35841">
        <ele>198.65</ele>
        <time>2017-01-26T14:37:55Z</time>
      </trkpt>
      <trkpt lat="48.07782" lon="7.35825">
        <ele>201.05</ele>
        <time>2017-01-26T14:38:03Z</time>
      </trkpt>
      <trkpt lat="48.07786" lon="7.35797">
        <ele>199.13</ele>
        <time>2017-01-26T14:38:16Z</time>
      </trkpt>
      <trkpt lat="48.07792" lon="7.35783">
        <ele>201.53</ele>
        <time>2017-01-26T14:38:22Z</time>
      </trkpt>
      <trkpt lat="48.07804" lon="7.35765">
        <ele>197.69</ele>
        <time>2017-01-26T14:38:33Z</time>
      </trkpt>
      <trkpt lat="48.07822" lon="7.35785">
        <ele>200.09</ele>
        <time>2017-01-26T14:38:51Z</time>
      </trkpt>
      <trkpt lat="48.07837" lon="7.35808">
        <ele>199.61</ele>
        <time>2017-01-26T14:39:07Z</time>
      </trkpt>
      <trkpt lat="48.07853" lon="7.35834">
        <ele>199.61</ele>
        <time>2017-01-26T14:39:24Z</time>
      </trkpt>
      <trkpt lat="48.07873" lon="7.35854">
        <ele>201.53</ele>
        <time>2017-01-26T14:39:35Z</time>
      </trkpt>
      <trkpt lat="48.07878" lon="7.35862">
        <ele>199.13</ele>
        <time>2017-01-26T14:39:41Z</time>
      </trkpt>
      <trkpt lat="48.07884" lon="7.35871">
        <ele>198.65</ele>
        <time>2017-01-26T14:39:47Z</time>
      </trkpt>
      <trkpt lat="48.07901" lon="7.35847">
        <ele>198.65</ele>
        <time>2017-01-26T14:39:57Z</time>
      </trkpt>
      <trkpt lat="48.07912" lon="7.35834">
        <ele>199.61</ele>
        <time>2017-01-26T14:40:05Z</time>
      </trkpt>
      <trkpt lat="48.07918" lon="7.35823">
        <ele>199.61</ele>
        <time>2017-01-26T14:40:09Z</time>
      </trkpt>
      <trkpt lat="48.0792" lon="7.35809">
        <ele>198.65</ele>
        <time>2017-01-26T14:40:13Z</time>
      </trkpt>
      <trkpt lat="48.07922" lon="7.35798">
        <ele>199.13</ele>
        <time>2017-01-26T14:40:18Z</time>
      </trkpt>
      <trkpt lat="48.07924" lon="7.35784">
        <ele>200.09</ele>
        <time>2017-01-26T14:40:27Z</time>
      </trkpt>
      <trkpt lat="48.07925" lon="7.35768">
        <ele>202.01</ele>
        <time>2017-01-26T14:40:32Z</time>
      </trkpt>
      <trkpt lat="48.07927" lon="7.35756">
        <ele>199.61</ele>
        <time>2017-01-26T14:40:38Z</time>
      </trkpt>
      <trkpt lat="48.07927" lon="7.35741">
        <ele>199.61</ele>
        <time>2017-01-26T14:40:47Z</time>
      </trkpt>
      <trkpt lat="48.07927" lon="7.35726">
        <ele>199.61</ele>
        <time>2017-01-26T14:40:53Z</time>
      </trkpt>
      <trkpt lat="48.0793" lon="7.35712">
        <ele>199.61</ele>
        <time>2017-01-26T14:41:00Z</time>
      </trkpt>
      <trkpt lat="48.0793" lon="7.35697">
        <ele>200.57</ele>
        <time>2017-01-26T14:41:08Z</time>
      </trkpt>
      <trkpt lat="48.07926" lon="7.35683">
        <ele>200.09</ele>
        <time>2017-01-26T14:41:13Z</time>
      </trkpt>
      <trkpt lat="48.07924" lon="7.3567">
        <ele>200.09</ele>
        <time>2017-01-26T14:41:19Z</time>
      </trkpt>
      <trkpt lat="48.0793" lon="7.35662">
        <ele>200.57</ele>
        <time>2017-01-26T14:41:28Z</time>
      </trkpt>
      <trkpt lat="48.07939" lon="7.35666">
        <ele>200.09</ele>
        <time>2017-01-26T14:41:36Z</time>
      </trkpt>
      <trkpt lat="48.07949" lon="7.35656">
        <ele>200.57</ele>
        <time>2017-01-26T14:41:46Z</time>
      </trkpt>
      <trkpt lat="48.07967" lon="7.35644">
        <ele>200.09</ele>
        <time>2017-01-26T14:41:58Z</time>
      </trkpt>
      <trkpt lat="48.0798" lon="7.35639">
        <ele>200.57</ele>
        <time>2017-01-26T14:42:20Z</time>
      </trkpt>
    </trkseg>
  </trk>
</gpx>